     2              OBSERVATION DATA    GPS                 RINEX VERSION / TYPE
ASHTORIN USGS 12 - MAY - 93 14:24                           PGM / RUN BY / DATE
                                                            COMMENT
Original Marker Name: go42 Gold_1942_USC&GS                 COMMENT
Campaign Name: USGS Parkfield                               COMMENT
4-Character Station Name: GOLD                              COMMENT
6-Character Antenna Code: ASHL12                            COMMENT
Vertical Measurement Point: BBE                             COMMENT
Vertical Offset to Rinex Ref. Point: 0.0595                 COMMENT
Radial Measurement Point: EGP                               COMMENT
Radial Offset to Rinex Ref. Point: 0.1424                   COMMENT
Antenna Height from Field Measurement: 1.2650 m             COMMENT
Additional Antenna Identification Info.:                    COMMENT
Original Ashtech L1/L2 (700228ABC)                          COMMENT
Original XYZ: -2633208.4300 -4478668.6400 3688054.0000      COMMENT
New XYZ position is based on association with SCEC monument COMMENT
E1F1E7F9+0011. Position of that monument is believed to be  COMMENT
valid to within 1 m horizontally; vertical accuracy         COMMENT
should be no worse than 3-times this value.                 COMMENT
                                                            COMMENT
Revised Rinex header created by UCSD GPS archive for        COMMENT
GSAC on 11-Jul-2000 (2000:193) 00:21:46 GMT                 COMMENT
For assistance contact dagnew@ucsd.edu                      COMMENT
or anderson@python.ucsd.edu                                 COMMENT
                                                            COMMENT
GOLD 1942                                                   MARKER NAME
                                                            MARKER NUMBER
GDH US GEOLOGICAL SURVEY                                    OBSERVER / AGENCY
763 ASHTECH L-XII 6M24                                      REC # / TYPE / VERS
718 ASHTECH GEODETIC L                                      ANT # / TYPE
 -2616053.6173 -4467854.6723  3713257.5710                  APPROX POSITION XYZ
        1.1975        0.0000        0.0000                  ANTENNA: DELTA H/E/N
     1     2     0                                          WAVELENGTH FACT L1/2
     4    L1    L2    C1    D1                              # / TYPES OF OBSERV
    30                                                      INTERVAL
  1993     5    10     3     0   30.000000                  TIME OF FIRST OBS
  1993     5    10    13    30    0.000000                  TIME OF LAST OBS
    18                                                      # OF SATELLITES
           1   721   721   721   721                        PRN / # OF OBS
           3   562   562   562   562                        PRN / # OF OBS
          12   166   166   166   166                        PRN / # OF OBS
          14   378   378   378   378                        PRN / # OF OBS
          15   565   565   565   565                        PRN / # OF OBS
          16   227   227   227   227                        PRN / # OF OBS
          17   697   697   697   697                        PRN / # OF OBS
          18   101   101   101   101                        PRN / # OF OBS
          20   235   235   235   235                        PRN / # OF OBS
          21   797   797   797   797                        PRN / # OF OBS
          22   611   611   611   611                        PRN / # OF OBS
          23   763   763   763   763                        PRN / # OF OBS
          24    40    40    40    40                        PRN / # OF OBS
          25   569   569   569   569                        PRN / # OF OBS
          26   432   432   432   432                        PRN / # OF OBS
          28   549   549   549   549                        PRN / # OF OBS
          29   335   335   335   335                        PRN / # OF OBS
                                                            END OF HEADER
 93  5 10  3  0 30.0000000  0  5 20 17 16  3 24                      0.000981000
 -18553288.55218 -14469220.00419  21023617.661        1997.245
  -7121288.92016  -6623519.84416  22627029.044       -2025.731
 -17561036.41617 -13684998.85518  21725065.701        1342.596
  -9641329.87817  -6624225.04517  22598090.218       -1475.911
  -1428237.12015  -1118199.49515  24307445.895        3172.869
 93  5 10  3  1  0.0000000  0  5 20 17 16  3 24                      0.000987920
 -18493082.470 8 -14422306.181 9  21035074.171        2016.506
  -7181891.410 6  -6670742.508 6  22615496.916       -2014.476
 -17520460.913 7 -13653381.567 8  21732787.186        1362.434
  -9685554.533 7  -6658685.777 7  22589674.544       -1472.649
  -1333040.971 5  -1044020.644 5  24325560.815        3173.721
 93  5 10  3  1 30.0000000  0  5 20 17 16  3 24                      0.000994900
 -18432301.124 8 -14374944.100 9  21046640.803        2035.576
  -7242160.507 6  -6717705.373 6  22604027.927       -2003.609
 -17479288.188 7 -13621298.908 8  21740622.401        1382.490
  -9729682.833 7  -6693071.441 7  22581277.576       -1469.461
  -1237810.725 5   -969815.297 5  24343682.081        3175.018
 93  5 10  3  2  0.0010000  0  5 20 17 16  3 24                      0.001001920
 -18370943.916 8 -14327133.308 9  21058316.702        2054.671
  -7302113.696 6  -6764422.067 6  22592619.774       -1993.389
 -17437503.548 7 -13588739.456 8  21748573.656        1402.885
  -9773715.729 7  -6727382.754 7  22572898.489       -1466.282
  -1142533.565 5   -895573.382 5  24361812.843        3176.307
 93  5 10  3  2 30.0010000  0  5 20 17 16  3 24                      0.001008960
 -18309021.924 8 -14278882.401 9  21070099.964        2073.475
  -7361768.393 6  -6810906.183 6  22581267.552       -1983.753
 -17395116.117 7 -13555710.255 8  21756639.682        1422.963
  -9817654.891 7  -6761621.033 7  22564537.016       -1463.186
  -1047225.583 6   -821307.395 5  24379949.199        3177.301
 93  5 10  3  3  0.0010000  0  5 20 17 16  3 24                      0.001016010
 -18246527.690 8 -14230185.615 9  21081992.160        2092.654
  -7421138.465 6  -6857168.530 6  22569969.856       -1974.363
 -17352117.720 7 -13522205.009 8  21764822.095        1443.325
  -9861494.517 7  -6795781.764 7  22556194.482       -1459.740
   -951885.047 6   -747016.064 5  24398092.353        3178.605
 93  5 10  3  3 30.0010000  0  5 20 17 16  3 24                      0.001023070
 -18183469.262 8 -14181049.194 9  21093991.993        2111.498
  -7480234.843 6  -6903217.599 6  22558724.122       -1965.192
 -17308532.374 7 -13488242.401 8  21773115.855        1462.522
  -9905240.926 7  -6829869.844 7  22547869.944       -1456.590
   -856517.199 5   -672703.478 5  24416240.483        3179.575
 93  5 10  3  4  0.0010000  0  5 20 17 16  3 24                      0.001030150
 -18119842.132 8 -14131469.622 9  21106099.552        2130.324
  -7539050.341 6  -6949047.805 6  22547531.818       -1955.843
 -17264372.911 7 -13453832.407 8  21781519.088        1481.452
  -9948886.916 7  -6863879.683 7  22539564.225       -1453.334
   -761114.623 5   -598363.779 5  24434394.587        3180.532
 93  5 10  3  4 30.0010000  0  5 20 17 16  3 24                      0.001037240
 -18055655.074 8 -14081453.735 9  21118313.877        2148.921
  -7597580.010 6  -6994655.306 6  22536393.892       -1946.072
 -17219644.062 7 -13418978.762 8  21790030.486        1500.679
  -9992439.278 7  -6897816.564 7  22531276.540       -1450.294
   -665696.782 5   -524012.261 5  24452552.469        3180.877
 93  5 10  3  5  0.0010000  0  5 20 17 16  3 24                      0.001044350
 -17990906.813 8 -14031000.558 9  21130635.187        2167.622
  -7655821.674 6  -7040038.357 6  22525310.821       -1936.617
 -17174333.274 7 -13383671.643 8  21798652.976        1519.956
 -10035894.785 7  -6931677.975 7  22523007.116       -1446.983
   -570260.419 6   -449646.269 5  24470713.503        3181.498
 93  5 10  3  5 30.0010000  0  5 20 17 16  3 24                      0.001051480
 -17925599.973 8 -13980112.122 9  21143062.523        2186.132
  -7713782.373 6  -7085202.484 6  22514281.067       -1927.562
 -17128446.117 7 -13347915.396 8  21807385.111        1539.237
 -10079253.117 7  -6965463.670 7  22514756.259       -1443.924
   -474799.520 5   -375261.099 5  24488878.875        3182.498
 93  5 10  3  6  0.0010000  0  5 20 17 16  3 24                      0.001058610
 -17859735.817 8 -13928789.412 9  21155596.376        2204.674
  -7771473.946 6  -7130156.895 6  22503302.977       -1918.623
 -17081972.335 7 -13311702.042 8  21816228.669        1559.085
 -10122513.679 7  -6999173.167 7  22506524.266       -1440.558
   -379312.356 5   -300855.553 5  24507049.996        3183.072
 93  5 10  3  6 30.0010000  0  5 20 17 16  3 24                      0.001065730
 -17793318.717 8 -13877035.828 9  21168235.016        2223.109
  -7828897.009 6  -7174902.085 6  22492375.984       -1909.675
 -17034902.463 7 -13275024.197 8  21825185.810        1578.846
 -10165678.769 7  -7032808.280 7  22498310.593       -1437.347
   -283814.110 5   -226441.324 5  24525222.259        3183.584
 93  5 10  3  7  0.0010000  0  5 20 17 16  3 24                      0.001072840
 -17726353.590 8 -13824855.209 9  21180977.914        2241.237
  -7886058.526 6  -7219443.491 6  22481498.321       -1900.804
 -16987250.604 7 -13237892.882 8  21834253.531        1597.938
 -10208750.584 7  -7066370.721 7  22490113.999       -1434.285
   -188295.789 5   -152011.471 5  24543398.637        3184.296
 93  5 10  3  7 30.0010000  0  5 20 17 16  3 24                      0.001079980
 -17658842.718 8 -13772249.358 9  21193824.920        2259.530
  -7942936.234 6  -7263763.725 6  22470675.018       -1890.910
 -16939020.982 7 -13200311.346 8  21843431.338        1617.389
 -10251729.218 7  -7099860.534 7  22481935.299       -1431.087
    -92750.858 5    -77560.863 5  24561579.797        3185.275
 93  5 10  3  8  0.0010000  0  5 20 17 16  3 24                      0.001087150
 -17590786.387 8 -13719218.463 9  21206775.644        2277.593
  -7999505.740 6  -7307843.823 6  22459910.108       -1880.278
 -16890211.317 7 -13162277.817 8  21852719.605        1636.804
 -10294612.358 7  -7133275.931 7  22473775.088       -1427.936
      2810.863 5     -3097.200 5  24579764.981        3185.425
 93  5 10  3  8 30.0010000  0  5 20 17 16  3 24                      0.001094330
 -17522184.959 8 -13665762.798 9  21219830.346        2295.582
  -8055755.047 6  -7351674.386 6  22449205.651       -1869.805
 -16840818.545 7 -13123789.936 8  21862118.861        1655.886
 -10337397.952 7  -7166615.314 7  22465633.224       -1424.844
     98375.483 5     71368.743 5  24597950.431        3185.492
 93  5 10  3  9  0.0010000  0  5 20 17 16  3 24                      0.001101550
 -17453044.160 8 -13611886.871 9  21232987.159        2313.778
  -8111680.652 6  -7395252.728 6  22438563.445       -1858.568
 -16790848.742 7 -13084852.414 8  21871627.797        1675.346
 -10380089.352 7  -7199881.324 7  22457509.241       -1421.468
    193944.694 5    145838.209 5  24616136.484        3185.813
 93  5 10  3  9 30.0010000  0  5 20 17 16  3 24                      0.001108790
 -17383363.114 7 -13557589.946 9  21246246.980        2331.534
  -8167277.128 6  -7438574.589 6  22427983.951       -1848.200
 -16740302.106 7 -13045465.414 8  21881246.410        1694.241
 -10422683.392 7  -7233071.450 7  22449403.841       -1418.439
    289512.516 5    220306.649 5  24634322.079        3185.267
 93  5 10  3 10  0.0010000  0  5 20 17 16  3 24                      0.001116030
 -17313148.124 7 -13502876.979 9  21259608.629        2349.523
  -8222568.362 6  -7481658.621 6  22417461.924       -1837.784
 -16689190.170 7 -13005637.910 8  21890972.723        1713.221
 -10465184.022 7  -7266188.785 7  22441316.282       -1415.094
    385064.546 5    294762.764 5  24652505.558        3184.995
 93  5 10  3 10 30.0010000  0  5 20 17 16  3 24                      0.001123300
 -17242403.085 8 -13447750.992 9  21273071.108        2366.935
  -8277560.644 6  -7524509.680 6  22406997.768       -1828.189
 -16637521.693 7 -12965376.748 8  21900805.086        1731.275
 -10507592.035 7  -7299233.961 7  22433246.094       -1412.196
    480614.460 5    369217.187 5  24670688.202        3185.083
 93  5 10  3 11  0.0010000  0  5 20 17 16  3 24                      0.001130590
 -17171128.565 8 -13392212.411 9  21286634.101        2384.657
  -8332250.649 6  -7567125.204 6  22396590.462       -1817.943
 -16585313.949 7 -12924695.388 8  21910739.761        1749.115
 -10549905.654 7  -7332205.590 7  22425194.171       -1408.953
    576177.391 5    443681.768 5  24688872.770        3185.623
 93  5 10  3 11 30.0010000  0  5 20 17 16  3 24                      0.001137930
 -17099327.990 7 -13336263.925 9  21300297.241        2402.050
  -8386648.320 6  -7609512.952 6  22386239.077       -1808.575
 -16532580.606 7 -12883604.475 8  21920774.453        1766.507
 -10592125.674 7  -7365104.275 7  22417160.113       -1405.948
    671744.076 5    518149.313 5  24707058.292        3185.560
 93  5 10  3 12  0.0010000  0  5 20 17 16  3 24                      0.001145290
 -17027005.166 8 -13279908.476 9  21314060.002        2419.560
  -8440758.721 6  -7651676.829 6  22375942.719       -1798.619
 -16479321.302 7 -12842103.724 8  21930909.518        1784.156
 -10634253.177 7  -7397930.872 7  22409143.553       -1402.704
    767308.449 5    592615.062 5  24725244.126        3185.507
 93  5 10  3 12 30.0010000  0  5 20 17 16  3 24                      0.001152680
 -16954156.876 8 -13223143.591 9  21327922.836        2437.040
  -8494569.864 6  -7693607.559 6  22365702.487       -1788.788
 -16425526.255 7 -12800185.501 8  21941146.661        1802.256
 -10676282.047 7  -7430680.619 7  22401145.641       -1399.386
    862869.065 5    667077.817 5  24743428.208        3185.269
 93  5 10  3 13  0.0010000  0  4 20 17 16  3                         0.001159870
 -16880790.400 8 -13165974.924 9  21341884.031        2454.134
  -8548087.786 6  -7735309.770 6  22355518.196       -1778.993
 -16371184.393 7 -12757841.202 8  21951487.482        1820.757
 -10718216.981 7  -7463357.175 7  22393165.524       -1396.401
 93  5 10  3 13 30.0010000  0  4 20 17 16  3                         0.001167350
 -16806913.636 8 -13108408.619 9  21355942.279        2471.067
  -8601316.315 6  -7776786.483 7  22345388.909       -1769.454
 -16316280.691 7 -12715059.096 8  21961935.079        1839.584
 -10760063.378 7  -7495964.732 7  22385202.389       -1393.501
 93  5 10  3 14  0.0010000  0  4 20 17 16  3                         0.001174900
 -16732530.190 7 -13050447.501 9  21370096.979        2487.777
  -8654257.116 6  -7818038.985 7  22335314.124       -1759.858
 -16260816.790 7 -12671840.480 8  21972489.462        1858.047
 -10801822.038 7  -7528503.927 7  22377256.198       -1390.701
 93  5 10  3 14 30.0010000  0  4 20 17 16  3                         0.001182580
 -16657644.396 7 -12992094.940 9  21384347.205        2504.415
  -8706907.245 6  -7859064.985 7  22325295.028       -1750.494
 -16204793.911 7 -12628186.295 8  21983150.582        1876.508
 -10843494.677 7  -7560976.106 7  22369325.917       -1387.889
 93  5 10  3 15  0.0010000  0  4 20 17 16  3                         0.001190310
 -16582257.388 7 -12933351.827 9  21398692.654        2521.363
  -8759275.213 6  -7899871.128 7  22315329.640       -1740.826
 -16148223.087 7 -12584105.121 8  21993915.649        1894.706
 -10885079.231 7  -7593379.624 7  22361412.705       -1384.684
 93  5 10  3 15 30.0010000  0  4 20 17 16  3                         0.001198000
 -16506373.901 8 -12874221.851 9  21413132.777        2537.680
  -8811379.496 6  -7940471.827 7  22305414.792       -1732.764
 -16091125.729 7 -12539613.703 8  22004780.918        1911.766
 -10926577.580 7  -7625715.977 7  22353515.894       -1381.958
 93  5 10  3 16  0.0010000  0  5 20 17 16  3 24                      0.001204110
 -16429993.316 7 -12814704.519 9  21427667.764        2554.274
  -8863236.352 6  -7980879.716 7  22295546.684       -1724.421
 -16033511.500 7 -12494719.493 8  22015744.568        1929.158
 -10967986.353 7  -7657982.519 7  22345636.138       -1378.930
      6362.48915     13631.16211  24870588.819        3181.394
 93  5 10  3 16 30.0010000  0  5 20 17 16  3 24                      0.001211470
 -16353118.476 7 -12754802.040 9  21442296.506        2570.720
  -8914846.748 6  -8021095.534 7  22285726.035       -1716.374
 -15975378.789 7 -12449421.275 8  22026807.049        1946.325
 -11009305.787 7  -7690179.452 7  22337773.471       -1375.934
    101810.784 5     88008.905 1  24888750.262        3181.595
 93  5 10  3 17  0.0010000  0  5 20 17 16  3 24                      0.001218850
 -16275750.565 7 -12694515.398 9  21457019.415        2587.421
  -8966215.993 6  -8061123.497 7  22275950.322       -1707.916
 -15916729.534 7 -12403720.570 8  22037967.631        1963.993
 -11050534.095 7  -7722305.393 7  22329927.992       -1372.614
    197251.158 5    162378.069 3  24906911.944        3181.447
 93  5 10  3 17 30.0010000  0  5 20 17 16  3 24                      0.001226220
 -16197881.705 7 -12633838.362 9  21471837.217        2603.849
  -9017330.021 6  -8100952.546 7  22266223.512       -1699.558
 -15857545.913 7 -12357603.481 8  22049229.915        1981.618
 -11091660.474 7  -7754351.884 7  22322101.801       -1369.371
    292691.784 5    236747.400 4  24925073.519        3181.163
 93  5 10  3 18  0.0010000  0  5 20 17 16  3 24                      0.001233590
 -16119515.786 7 -12572774.019 9  21486749.953        2620.471
  -9068166.399 6  -8140565.269 7  22256549.652       -1689.561
 -15797829.792 7 -12311071.444 8  22060593.737        1999.399
 -11132685.350 7  -7786319.308 7  22314294.805       -1365.901
    388117.156 5    311104.664 4  24943232.644        3180.409
 93  5 10  3 18 30.0010000  0  5 20 17 16  3 24                      0.001240970
 -16040658.629 7 -12511326.894 9  21501756.004        2636.742
  -9118704.419 6  -8179945.471 7  22246932.551       -1679.560
 -15737585.130 7 -12264127.538 7  22072057.843        2016.978
 -11173611.997 7  -7818210.154 8  22306506.845       -1362.691
    483510.261 5    385437.002 5  24961385.382        3179.055
 93  5 10  3 19  0.0010000  0  5 20 17 16  3 24                      0.001248350
 -15961304.076 7 -12449492.205 9  21516856.670        2653.340
  -9168926.204 6  -8219079.287 7  22237375.405       -1668.680
 -15676806.110 7 -12216767.263 7  22083623.576        2034.653
 -11214431.241 7  -7850017.328 8  22298739.464       -1359.024
    578875.182 5    459747.325 5  24979532.717        3178.539
 93  5 10  3 19 30.0010000  0  5 20 17 16  3 24                      0.001255760
 -15881461.316 7 -12387277.081 9  21532049.933        2669.597
  -9218825.671 6  -8257961.922 7  22227879.930       -1657.824
 -15615508.172 7 -12169002.652 7  22095287.850        2051.907
 -11255148.758 7  -7881745.250 8  22290990.968       -1355.656
    674219.976 5    534041.911 5  24997676.392        3177.844
 93  5 10  3 20  0.0010000  0  5 20 17 16  3 24                      0.001263200
 -15801134.690 7 -12324684.923 9  21547335.668        2685.540
  -9268396.571 7  -8296588.559 7  22218446.931       -1647.067
 -15553694.867 7 -12120836.454 7  22107050.697        2069.084
 -11295766.453 7  -7913395.372 8  22283261.778       -1352.461
    769543.753 5    608320.098 5  25015816.314        3177.073
 93  5 10  3 20 30.0010000  0  5 20 17 16  3 24                      0.001270670
 -15720321.503 7 -12261713.625 9  21562713.944        2701.823
  -9317647.711 7  -8334966.013 7  22209074.509       -1636.471
 -15491355.105 7 -12072260.019 7  22118913.545        2086.744
 -11336277.953 7  -7944962.744 8  22275552.576       -1348.715
    864860.397 5    682592.806 5  25033954.364        3177.196
 93  5 10  3 21  0.0010000  0  5 20 17 16  3 24                      0.001278160
 -15639024.095 7 -12198365.015 9  21578184.294        2717.690
  -9366594.004 7  -8373105.929 7  22199760.526       -1626.960
 -15428493.579 7 -12023277.020 7  22130875.734        2103.790
 -11376682.578 7  -7976446.821 8  22267863.689       -1345.392
    960173.875 5    756863.043 5  25052091.055        3176.750
 93  5 10  3 21 30.0010000  0  5 20 17 16  3 24                      0.001285660
 -15557254.348 7 -12134648.368 9  21593744.451        2733.561
  -9415260.344 7  -8411027.701 7  22190500.044       -1617.597
 -15365112.005 7 -11973888.803 7  22142936.673        2121.547
 -11416988.939 7  -8007854.374 8  22260193.479       -1341.986
   1055469.647 5    831119.407 5  25070225.437        3176.222
 93  5 10  3 22  0.0010000  0  5 20 17 16  3 24                      0.001293150
 -15475012.813 7 -12070564.063 9  21609394.518        2749.184
  -9463648.874 7  -8448732.978 7  22181291.732       -1608.355
 -15301205.474 7 -11924091.493 7  22155097.795        2138.862
 -11457194.554 7  -8039183.386 8  22252542.375       -1338.615
   1150742.934 5    905358.332 5  25088356.116        3175.226
 93  5 10  3 22 30.0010000  0  5 20 17 16  3 24                      0.001300630
 -15392304.299 7 -12006115.886 9  21625133.671        2764.754
  -9511762.959 7  -8486224.425 7  22172135.839       -1599.087
 -15236781.796 7 -11873891.238 7  22167356.886        2156.021
 -11497301.260 7  -8070435.330 8  22244910.399       -1335.317
   1245984.888 5    979572.820 5  25106479.646        3174.387
 93  5 10  3 23  0.0010000  0  5 20 17 16  3 24                      0.001308100
 -15309133.306 7 -11941307.344 9  21640960.725        2780.241
  -9559606.064 7  -8523504.712 7  22163031.783       -1590.106
 -15171848.150 7 -11823293.593 7  22179713.582        2173.039
 -11537309.980 7  -8101610.919 8  22237297.179       -1331.927
   1341193.391 5   1053761.231 5  25124597.350        3173.209
 93  5 10  3 23 30.0010000  0  4 20 17 16  3                         0.001316010
 -15225494.941 7 -11876134.606 9  21656876.347        2795.586
  -9607165.853 7  -8560564.235 7  22153981.557       -1580.630
 -15106403.028 7 -11772297.396 7  22192167.412        2189.670
 -11577212.856 7  -8132704.035 8  22229704.077       -1328.577
 93  5 10  3 24  0.0010000  0  4 20 17 16  3                         0.001323600
 -15141394.284 7 -11810601.648 9  21672880.396        2811.157
  -9654441.801 7  -8597402.581 7  22144984.836       -1571.061
 -15040473.203 7 -11720923.507 7  22204713.327        2205.744
 -11617011.670 7  -8163716.070 8  22222130.610       -1324.873
 93  5 10  3 24 30.0010000  0  4 20 17 16  3                         0.001331040
 -15056830.516 7 -11744707.837 9  21688972.647        2826.363
  -9701440.709 7  -8634025.047 7  22136041.138       -1562.261
 -14974063.755 7 -11669175.899 7  22217350.490        2221.423
 -11656702.102 7  -8194643.647 8  22214577.968       -1321.432
 93  5 10  3 25  0.0010000  0  4 20 17 16  3                         0.001338280
 -14971810.077 7 -11678458.147 9  21705151.227        2841.658
  -9748174.450 7  -8670440.909 7  22127147.945       -1553.214
 -14907185.015 7 -11617062.609 7  22230077.237        2237.156
 -11696287.443 7  -8225489.342 8  22207045.193       -1317.850
 93  5 10  3 25 30.0010000  0  4 20 17 16  3                         0.001345360
 -14886337.602 7 -11611856.248 9  21721416.098        2856.708
  -9794630.669 7  -8706640.520 7  22118307.575       -1543.690
 -14839842.988 7 -11564588.310 7  22242892.246        2252.600
 -11735768.682 7  -8256253.920 8  22199532.123       -1314.288
 93  5 10  3 26  0.0010000  0  4 20 17 16  3                         0.001352380
 -14800416.004 7 -11544904.363 9  21737766.507        2871.489
  -9840798.071 7  -8742615.061 7  22109522.395       -1534.005
 -14772035.610 7 -11511751.397 7  22255795.325        2268.166
 -11775145.761 7  -8286937.320 8  22192038.963       -1310.973
 93  5 10  3 26 30.0010000  0  4 20 17 16  3                         0.001359510
 -14714044.237 7 -11477601.735 9  21754202.420        2886.438
  -9886663.695 7  -8778354.471 7  22100794.948       -1523.884
 -14703739.057 7 -11458533.317 7  22268791.768        2284.642
 -11814413.939 7  -8317535.892 8  22184566.354       -1307.341
 93  5 10  3 27  0.0010000  0  4 20 17 16  3                         0.001366790
 -14627233.020 7 -11409956.642 9  21770722.203        2901.247
  -9932228.784 7  -8813859.667 7  22092123.750       -1513.449
 -14634954.937 7 -11404935.293 7  22281881.314        2301.242
 -11853580.589 7  -8348055.342 8  22177112.925       -1303.730
 93  5 10  3 27 30.0010000  0  5 20 17 16  3 26                      0.001375860
 -14539976.167 7 -11341964.302 9  21787326.467        2915.998
  -9977482.246 7  -8849122.056 7  22083512.452       -1503.454
 -14565668.829 7 -11350946.120 7  22295065.867        2318.004
 -11892636.190 7  -8378488.241 8  22169680.998       -1299.996
     -6355.63615    -12968.31511  24789256.358       -2118.731
 93  5 10  3 28  0.0010000  0  5 20 17 16  3 26                      0.001383440
 -14452274.545 7 -11273625.389 9  21804015.353        2930.712
 -10022448.786 7  -8884160.860 7  22074955.557       -1494.367
 -14495872.886 7 -11296559.684 7  22308347.582        2334.975
 -11931577.730 8  -8408832.270 8  22162270.849       -1296.322
    -69882.484 5    -62469.714 2  24777165.166       -2116.376
 93  5 10  3 28 30.0010000  0  5 20 17 16  3 26                      0.001391030
 -14364136.274 7 -11204946.244 9  21820787.632        2945.270
 -10067150.352 7  -8918993.209 7  22066449.474       -1485.615
 -14425571.675 7 -11241779.529 7  22321725.630        2351.759
 -11970410.144 8  -8439091.275 8  22154881.575       -1292.650
   -133335.386 5   -111913.489 3  24765089.784       -2113.572
 93  5 10  3 29  0.0010000  0  5 20 17 16  3 26                      0.001398580
 -14275561.200 7 -11135926.728 9  21837643.104        2959.808
 -10111591.607 7  -8953622.708 7  22057992.501       -1476.979
 -14354770.616 7 -11186609.871 7  22335198.734        2368.495
 -12009129.543 8  -8469262.201 8  22147513.564       -1288.818
   -196705.885 5   -161293.016 4  24753030.217       -2111.041
 93  5 10  3 29 30.0010000  0  5 20 17 16  3 26                      0.001406100
 -14186550.550 7 -11066567.794 9  21854581.489        2974.130
 -10155773.996 7  -8988050.513 7  22049584.651       -1468.600
 -14283467.076 7 -11131048.681 7  22348767.180        2384.944
 -12047733.454 7  -8499343.154 8  22140167.281       -1285.108
   -260003.353 5   -210615.722 4  24740984.716       -2108.863
 93  5 10  3 30  0.0010000  0  5 20 17 16  3 26                      0.001413590
 -14097110.279 7 -10996874.100 9  21871601.157        2988.477
 -10199691.810 7  -9022272.123 7  22041226.896       -1459.084
 -14211677.673 7 -11075108.865 7  22362428.245        2400.905
 -12086224.702 8  -8529336.301 8  22132842.391       -1281.244
   -323231.822 5   -259884.566 5  24728952.876       -2106.437
 93  5 10  3 30 30.0010000  0  4 20 17 16  3                         0.001418700
 -14007242.955 7 -10926847.630 9  21888702.406        3002.672
 -10243313.558 7  -9056263.065 7  22032925.514       -1449.137
 -14139414.397 7 -11018799.826 7  22376179.362        2416.606
 -12124602.113 8  -8559240.771 8  22125539.468       -1277.441
 93  5 10  3 31  0.0010000  0  4 20 17 16  3                         0.001426160
 -13916947.698 7 -10856487.714 8  21905884.942        3016.914
 -10286631.104 7  -9090016.929 7  22024682.679       -1438.723
 -14066680.515 7 -10962124.049 7  22390020.152        2432.226
 -12162861.264 8  -8589053.078 8  22118258.988       -1273.487
 93  5 10  3 31 30.0010000  0  4 20 17 16  3                         0.001433810
 -13826226.748 7 -10785796.077 9  21923148.659        3030.956
 -10329633.483 7  -9123525.248 7  22016499.255       -1428.249
 -13993485.172 7 -10905088.732 7  22403948.950        2447.259
 -12201000.390 8  -8618771.863 8  22111001.333       -1269.550
 93  5 10  3 32  0.0010000  0  4 20 17 16  3                         0.001441690
 -13735083.283 7 -10714775.205 8  21940493.013        3045.031
 -10372319.764 7  -9156787.247 7  22008376.588       -1417.711
 -13919836.803 7 -10847700.376 7  22417963.746        2462.492
 -12239019.185 8  -8648396.863 8  22103766.611       -1265.475
 93  5 10  3 32 30.0010000  0  4 20 17 16  3                         0.001449770
 -13643518.481 7 -10643426.038 8  21957917.220        3059.161
 -10414695.530 7  -9189807.281 8  22000312.771       -1407.760
 -13845725.900 7 -10789951.602 7  22432066.464        2478.107
 -12276914.950 8  -8677926.003 8  22096555.133       -1261.275
 93  5 10  3 33  0.0010000  0  4 20 17 16  3                         0.001457880
 -13551535.739 7 -10571751.197 8  21975421.012        3072.984
 -10456786.482 7  -9222605.385 8  21992303.586       -1398.376
 -13771151.580 7 -10731841.735 7  22446257.470        2493.436
 -12314687.674 8  -8707359.292 8  22089366.939       -1257.202
 93  5 10  3 33 30.0010000  0  4 20 17 16  3                         0.001465810
 -13459139.261 7 -10499753.949 8  21993003.481        3086.725
 -10498603.852 7  -9255190.311 8  21984345.775       -1389.407
 -13696119.110 7 -10673374.845 7  22460535.374        2508.659
 -12352337.876 8  -8736697.088 8  22082202.460       -1253.014
 93  5 10  3 34  0.0010000  0  4 20 17 16  3                         0.001473680
 -13366322.713 7 -10427429.381 8  22010665.435        3100.921
 -10540138.506 7  -9287554.927 8  21976442.175       -1379.610
 -13620620.171 7 -10614544.489 7  22474902.489        2524.484
 -12389855.377 8  -8765931.485 8  22075063.472       -1248.426
 93  5 10  3 34 30.0010000  0  4 20 17 16  3                         0.001481460
 -13273097.056 7 -10354786.041 8  22028405.831        3114.186
 -10581396.795 7  -9319704.207 8  21968591.063       -1370.949
 -13544663.713 7 -10555357.621 7  22489356.351        2539.302
 -12427247.466 8  -8795068.145 8  22067947.788       -1244.481
 93  5 10  3 35  0.0010000  0  4 20 17 16  3                         0.001489100
 -13179463.298 7 -10281824.697 8  22046223.786        3127.895
 -10622379.136 7  -9351638.478 8  21960792.299       -1361.202
 -13468254.240 7 -10495817.746 7  22503896.529        2554.487
 -12464511.058 8  -8824104.688 8  22060856.496       -1240.134
 93  5 10  3 35 30.0010000  0  4 20 17 16  3                         0.001496810
 -13085423.268 7 -10208546.754 8  22064119.079        3141.339
 -10663062.407 7  -9383339.680 8  21953050.391       -1351.026
 -13391395.307 7 -10435927.643 7  22518522.140        2569.258
 -12501644.316 8  -8853039.672 8  22053790.258       -1235.837
 93  5 10  3 36  0.0010000  0  7 20 17 16  3 22 26 23                0.001505140
 -12990983.049 7 -10134957.011 8  22082090.627        3154.852
 -10703440.707 7  -9414803.247 8  21945366.310       -1340.829
 -13314098.224 7 -10375696.107 7  22533231.727        2583.994
 -12538649.354 8  -8881874.746 8  22046748.433       -1231.262
   -129301.86115   -124365.02815  25211773.021       -2503.243
     -7194.66115    -19883.31811  24586207.940       -2060.916
  -1743820.96915   -167623.46912  24477886.760       -3135.469
 93  5 10  3 36 30.0010000  0  7 20 17 16  3 22 26 23                0.001512810
 -12896139.584 7 -10061053.020 8  22100139.002        3168.023
 -10743524.251 7  -9446037.133 8  21937738.621       -1331.490
 -13236362.416 7 -10315122.730 7  22548024.607        2598.319
 -12575519.264 8  -8910604.529 8  22039732.200       -1226.975
   -204266.869 5   -182779.226 5  25197507.854       -2494.313
    -68955.739 5    -68005.507 1  24574454.519       -2056.462
  -1837825.744 5   -240873.750 4  24459998.147       -3131.591
 93  5 10  3 37  0.0010000  0  7 20 17 16  3 22 26 23                0.001520490
 -12800899.282 7  -9986839.829 8  22118262.575        3181.091
 -10783322.402 7  -9477048.636 8  21930165.373       -1321.857
 -13158199.998 7 -10254216.922 7  22562898.242        2612.386
 -12612256.761 8  -8939231.117 8  22032741.379       -1222.623
   -278955.045 5   -240977.737 5  25183295.860       -2485.068
   -130581.450 5   -116023.789 3  24562727.962       -2052.069
  -1931710.043 5   -314030.208 5  24442132.454       -3127.565
 93  5 10  3 37 30.0010000  0  7 20 17 16  3 22 26 23                0.001528170
 -12705268.996 7  -9912322.713 8  22136459.919        3194.419
 -10822840.759 7  -9507842.121 8  21922644.949       -1312.633
 -13079616.410 7 -10192982.934 7  22577852.118        2626.724
 -12648864.759 8  -8967756.798 8  22025775.294       -1217.964
   -353360.800 5   -298956.170 5  25169136.437       -2475.128
   -192066.194 5   -163933.941 5  24551028.554       -2046.643
  -2025470.174 5   -387089.891 5  24424290.788       -3123.224
 93  5 10  3 38  0.0010000  0  7 20 17 16  3 22 26 23                0.001535860
 -12609241.542 7  -9837496.157 8  22154733.696        3207.492
 -10862088.064 7  -9538424.394 8  21915176.258       -1303.733
 -13000593.224 7 -10131406.399 7  22592889.859        2641.659
 -12685332.123 8  -8996172.919 8  22018835.508       -1213.390
   -427464.057 5   -356698.901 5  25155034.923       -2464.979
   -253384.643 5   -211714.468 5  24539359.944       -2041.235
  -2119104.905 5   -460051.837 5  24406471.871       -3118.855
 93  5 10  3 38 30.0010000  0  7 20 17 16  3 22 26 23                0.001543570
 -12512821.602 7  -9762363.763 8  22173081.755        3220.497
 -10901059.669 7  -9568791.850 8  21907760.572       -1294.366
 -12921110.799 7 -10069471.989 7  22608014.865        2657.173
 -12721659.884 8  -9024480.247 8  22011922.533       -1208.747
   -501257.998 6   -414200.609 5  25140992.019       -2454.518
   -314544.372 5   -259371.376 5  24527721.444       -2036.017
  -2212595.069 5   -532901.147 5  24388681.004       -3113.758
 93  5 10  3 39  0.0010000  0  7 20 17 16  3 22 26 23                0.001551300
 -12416013.024 7  -9686928.518 8  22191503.791        3233.595
 -10939750.364 7  -9598940.402 8  21900398.010       -1284.787
 -12841158.852 7 -10007171.755 7  22623229.363        2673.233
 -12757847.435 8  -9052678.299 8  22005036.081       -1203.839
   -574733.952 5   -471454.528 5  25127010.077       -2443.718
   -375542.393 5   -306902.263 5  24516113.469       -2030.292
  -2305935.609 5   -605633.892 5  24370918.056       -3108.715
 93  5 10  3 39 30.0010000  0  7 20 17 16  3 22 26 23                0.001559060
 -12318815.808 7  -9611190.446 8  22210000.156        3246.282
 -10978156.720 7  -9628867.394 8  21893089.629       -1275.522
 -12760725.089 7  -9944496.057 7  22638535.428        2689.045
 -12793891.204 8  -9080764.330 8  21998177.129       -1199.249
   -647894.230 5   -528462.485 5  25113087.495       -2433.524
   -436365.645 5   -354296.949 5  24504539.096       -2024.587
  -2399124.505 5   -678248.465 5  24353185.141       -3103.896
 93  5 10  3 40  0.0010000  0  7 20 17 16  3 22 26 23                0.001566820
 -12221235.893 7  -9535154.174 7  22228568.852        3259.078
 -11016271.961 7  -9658567.545 8  21885836.750       -1265.404
 -12679816.104 7  -9881450.064 7  22653931.650        2704.768
 -12829792.923 8  -9108739.659 8  21991345.128       -1194.372
   -720751.792 5   -585234.562 5  25099223.967       -2423.482
   -497023.253 5   -401562.570 5  24492996.177       -2019.188
  -2492161.719 5   -750744.821 5  24335480.371       -3098.516
 93  5 10  3 40 30.0010000  0  7 20 17 16  3 22 26 23                0.001574600
 -12123274.195 7  -9458820.396 7  22247210.247        3271.668
 -11054086.159 7  -9688033.114 8  21878640.843       -1255.597
 -12598455.070 7  -9818051.810 7  22669414.071        2719.080
 -12865549.444 8  -9136601.860 9  21984541.159       -1189.645
   -793306.741 5   -641770.778 5  25085417.285       -2413.461
   -557521.789 5   -448704.242 5  24481484.143       -2014.005
  -2585040.062 5   -823117.400 5  24317805.461       -3093.536
 93  5 10  3 41  0.0010000  0  7 20 17 16  3 22 26 23                0.001582370
 -12024940.857 7  -9382197.034 7  22265922.453        3284.018
 -11091615.406 7  -9717276.656 8  21871498.997       -1246.080
 -12516686.547 7  -9754336.047 7  22684974.229        2732.254
 -12901167.170 8  -9164355.914 9  21977763.361       -1184.918
   -865562.112 5   -698073.586 5  25071667.173       -2403.581
   -617865.958 5   -495725.624 5  24470000.749       -2008.734
  -2677782.257 5   -895383.874 5  24300156.852       -3089.048
 93  5 10  3 41 30.0010000  0  7 20 17 16  3 22 26 23                0.001590130
 -11926235.668 7  -9305283.920 7  22284705.718        3296.366
 -11128843.250 7  -9746285.338 8  21864414.987       -1235.673
 -12434524.660 7  -9690313.776 7  22700609.124        2745.076
 -12936641.477 8  -9191998.207 9  21971012.704       -1180.181
   -937519.338 5   -754144.099 5  25057974.055       -2393.385
   -678049.416 5   -542621.736 5  24458547.877       -2003.602
  -2770387.738 5   -967543.815 5  24282535.174       -3084.656
 93  5 10  3 42  0.0010000  0  7 20 17 16  3 22 26 23                0.001597900
 -11827159.459 7  -9228081.694 7  22303559.258        3308.551
 -11165750.648 7  -9775044.311 8  21857391.312       -1225.152
 -12351981.285 7  -9625994.218 7  22716316.651        2757.601
 -12971969.318 8  -9219526.367 9  21964289.998       -1175.420
  -1009162.346 5   -809969.750 5  25044340.837       -2382.792
   -738079.577 5   -589398.407 5  24447125.064       -1998.627
  -2862854.617 5  -1039595.789 5  24264938.655       -3079.984
 93  5 10  3 42 30.0010000  0  7 20 17 16  3 22 26 23                0.001605650
 -11727722.516 7  -9150598.388 7  22322481.106        3320.622
 -11202352.296 7  -9803565.020 8  21850426.073       -1215.049
 -12269059.782 7  -9561380.023 7  22732095.828        2770.659
 -13007156.754 8  -9246945.118 9  21957593.995       -1170.599
  -1080477.251 5   -865539.760 5  25030769.939       -2371.533
   -797966.388 5   -636063.355 5  24435727.865       -1993.904
  -2955189.150 5  -1111544.631 5  24247368.434       -3075.624
 93  5 10  3 43  0.0010000  0  7 20 17 16  3 22 26 23                0.001613410
 -11627923.604 7  -9072833.037 7  22341472.089        3332.698
 -11238654.714 7  -9831852.602 8  21843517.687       -1204.958
 -12185727.666 7  -9496445.886 7  22747953.440        2785.041
 -13042198.487 8  -9274250.326 9  21950925.850       -1165.662
  -1151454.598 5   -920846.672 5  25017262.905       -2360.297
   -857709.053 5   -682615.960 5  24424359.220       -1988.991
  -3047388.377 5  -1183388.019 5  24229823.040       -3070.709
 93  5 10  3 43 30.0010000  0  7 20 17 16  3 22 26 23                0.001621180
 -11527761.546 7  -8994784.683 7  22360532.444        3344.768
 -11274646.824 7  -9859898.367 8  21836668.950       -1194.632
 -12101953.927 7  -9431167.612 7  22763895.003        2799.805
 -13077089.086 8  -9301437.797 9  21944286.365       -1160.597
  -1222090.522 5   -975887.547 5  25003821.014       -2348.639
   -917303.088 5   -729052.767 5  24413018.803       -1984.033
  -3139430.530 5  -1255109.017 5  24212309.110       -3065.202
 93  5 10  3 44  0.0010000  0  7 20 17 16  3 22 26 23                0.001628950
 -11427243.026 7  -8916458.591 7  22379660.473        3356.435
 -11310349.332 7  -9887718.477 8  21829874.972       -1185.695
 -12017736.345 7  -9365543.484 7  22779921.027        2814.650
 -13111831.294 8  -9328509.624 9  21937674.954       -1155.812
  -1292377.036 5  -1030656.189 5  24990446.600       -2337.332
   -976751.416 5   -775375.968 5  24401705.952       -1979.089
  -3231299.732 5  -1326695.274 5  24194825.700       -3059.387
 93  5 10  3 44 30.0010000  0  7 20 17 16  3 22 26 23                0.001636740
 -11326370.929 7  -8837856.969 7  22398855.855        3368.115
 -11345790.190 7  -9915334.688 8  21823130.443       -1177.315
 -11933072.562 7  -9299571.682 7  22796031.965        2829.213
 -13146423.925 8  -9355464.887 9  21931092.380       -1150.854
  -1362331.825 5  -1085166.346 5  24977134.775       -2326.622
  -1036038.564 5   -821573.595 5  24390424.114       -1973.485
  -3322994.812 5  -1398145.845 5  24177377.619       -3053.897
 93  5 10  3 45  0.0010000  0  7 20 17 16  3 22 26 23                0.001644530
 -11225153.343 7  -8758986.158 7  22418117.163        3379.767
 -11380979.671 7  -9942755.033 8  21816434.436       -1168.422
 -11847986.052 7  -9233270.469 7  22812223.454        2843.095
 -13180870.999 8  -9382306.742 9  21924536.999       -1145.757
  -1431972.421 5  -1139431.699 5  24963882.923       -2315.875
  -1095148.956 5   -867633.490 5  24379175.986       -1967.062
  -3414523.643 5  -1469466.890 5  24159960.007       -3047.952
 93  5 10  3 45 30.0010000  0  7 20 17 16  3 22 26 23                0.001652330
 -11123591.043 7  -8679846.707 7  22437443.262        3391.015
 -11415903.548 7  -9969968.390 8  21809788.538       -1160.081
 -11762503.631 7  -9166660.757 7  22828490.094        2855.682
 -13215168.775 8  -9409032.261 9  21918010.588       -1140.977
  -1501285.670 5  -1193441.944 5  24950692.892       -2304.942
  -1154066.092 5   -913542.770 5  24367964.853       -1960.656
  -3505880.019 5  -1540653.508 5  24142575.199       -3042.534
 93  5 10  3 46  0.0010000  0  7 20 17 16  3 22 26 23                0.001660140
 -11021688.159 7  -8600441.872 7  22456835.056        3402.446
 -11450587.875 7  -9996995.114 8  21803188.695       -1152.165
 -11676642.004 7  -9099755.581 7  22844829.054        2868.420
 -13249317.122 8  -9435641.316 9  21911512.586       -1135.804
  -1570272.196 5  -1247197.574 5  24937564.856       -2294.213
  -1212782.957 5   -959295.997 5  24356791.128       -1953.702
  -3597074.274 5  -1611713.840 5  24125221.421       -3037.107
 93  5 10  3 46 30.0010000  0  7 20 17 16  3 22 26 23                0.001667970
 -10919447.534 7  -8520773.878 7  22476291.067        3413.658
 -11485032.784 7 -10023835.273 8  21796634.564       -1144.032
 -11590412.185 7  -9032563.482 6  22861237.794        2880.394
 -13283314.518 8  -9462132.768 9  21905042.794       -1130.824
  -1638938.323 5  -1300703.578 5  24924498.484       -2283.285
  -1271287.579 5  -1004883.837 5  24345657.942       -1946.642
  -3688107.208 5  -1682648.512 5  24107898.535       -3031.560
 93  5 10  3 47  0.0010000  0  7 20 17 16  3 22 26 23                0.001675820
 -10816870.042 7  -8440843.374 7  22495811.026        3424.719
 -11519221.178 7 -10050475.557 8  21790128.518       -1135.218
 -11503815.432 7  -8965085.474 6  22877716.825        2892.753
 -13317157.761 8  -9488504.100 9  21898602.722       -1125.744
  -1707259.283 5  -1353940.638 5  24911496.947       -2271.796
  -1329582.714 5  -1050308.469 5  24334564.871       -1939.902
  -3778961.927 5  -1753444.252 5  24090609.058       -3025.395
 93  5 10  3 47 30.0010000  0  7 20 17 16  3 22 26 23                0.001683680
 -10713965.166 7  -8360657.777 7  22515393.196        3435.767
 -11553148.739 7 -10076912.567 8  21783671.997       -1126.550
 -11416842.185 7  -8897314.115 6  22894267.538        2905.671
 -13350852.266 8  -9514759.529 9  21892191.052       -1120.571
  -1775240.428 5  -1406912.876 5  24898560.324       -2260.413
  -1387684.566 5  -1095582.468 5  24323508.628       -1933.444
  -3869629.202 5  -1824093.957 5  24073355.832       -3019.014
 93  5 10  3 48  0.0010000  0  7 20 17 16  3 22 26 23                0.001691550
 -10610729.420 7  -8280214.351 7  22535038.556        3446.794
 -11586808.700 7 -10103141.087 9  21777266.302       -1117.037
 -11329477.183 7  -8829237.463 6  22910892.337        2918.770
 -13384390.412 8  -9540893.110 9  21885808.940       -1115.334
  -1842890.465 5  -1459627.067 5  24885687.313       -2249.459
  -1445592.142 5  -1140705.133 5  24312489.105       -1926.895
  -3960099.818 5  -1894590.438 5  24056140.359       -3012.169
 93  5 10  3 48 30.0010000  0  7 20 17 16  3 22 26 23                0.001699420
 -10507168.071 7  -8199517.212 7  22554745.357        3457.455
 -11620170.639 7 -10129137.362 9  21770917.647       -1106.834
 -11241721.891 7  -8760856.695 6  22927591.666        2931.852
 -13417772.609 8  -9566905.185 9  21879456.588       -1110.246
  -1910208.359 5  -1512082.513 5  24872876.804       -2238.221
  -1503305.880 5  -1185676.743 5  24301506.125       -1920.643
  -4050371.096 5  -1964931.549 5  24038962.470       -3005.852
 93  5 10  3 49  0.0010000  0  7 20 17 16  3 22 26 23                0.001707280
 -10403282.048 7  -8118567.075 7  22574513.750        3468.146
 -11653208.529 7 -10154881.156 9  21764630.550       -1095.755
 -11153556.890 7  -8692156.667 6  22944368.906        2945.670
 -13450995.743 8  -9592793.318 9  21873134.493       -1104.973
  -1977186.767 5  -1564273.417 5  24860131.087       -2227.197
  -1560828.069 5  -1230499.170 5  24290559.387       -1914.239
  -4140454.348 5  -2035126.167 5  24021820.492       -2999.841
 93  5 10  3 49 30.0010000  0  7 20 17 16  3 22 26 23                0.001715120
 -10299079.476 7  -8037370.266 7  22594343.022        3478.617
 -11685922.019 7 -10180372.144 9  21758405.228       -1085.293
 -11064987.071 6  -8623141.197 6  22961223.118        2958.724
 -13484063.870 8  -9618560.669 9  21866841.841       -1099.798
  -2043838.649 5  -1616209.889 5  24847447.690       -2216.210
  -1618157.585 5  -1275171.341 5  24279649.492       -1907.692
  -4230366.103 5  -2105187.134 5  24004709.678       -2994.508
 93  5 10  3 50  0.0010000  0  7 20 17 16  3 22 26 23                0.001722950
 -10194563.311 7  -7955929.122 7  22614231.884        3489.063
 -11718323.222 7 -10205619.799 9  21752240.117       -1074.795
 -10976033.271 6  -8553826.549 6  22978150.426        2971.458
 -13516975.242 8  -9644205.868 9  21860578.696       -1094.484
  -2110154.831 5  -1667884.758 5  24834828.032       -2204.656
  -1675279.666 5  -1319681.939 5  24268779.745       -1900.310
  -4320115.197 5  -2175121.394 5  23987630.798       -2988.812
 93  5 10  3 50 30.0010000  0  7 20 17 16  3 22 26 23                0.001730790
 -10089735.864 7  -7874245.416 7  22634180.182        3499.366
 -11750417.499 7 -10230628.311 9  21746132.495       -1064.996
 -10886701.546 7  -8484217.404 6  22995149.519        2984.063
 -13549728.253 8  -9669727.661 9  21854345.881       -1089.199
  -2176112.646 5  -1719280.370 5  24822276.872       -2192.365
  -1732173.564 5  -1364014.778 5  24257953.280       -1892.673
  -4409694.834 6  -2244923.587 5  23970583.833       -2983.192
 93  5 10  3 51  0.0010000  0  7 20 17 16  3 22 26 23                0.001738640
  -9984600.947 7  -7792322.103 7  22654186.522        3509.701
 -11782229.288 7 -10255416.677 9  21740078.835       -1055.891
 -10796993.849 6  -8414315.280 6  23012220.403        2996.376
 -13582321.842 8  -9695125.255 9  21848143.586       -1083.787
  -2241700.518 5  -1770387.730 5  24809795.927       -2179.895
  -1788840.802 5  -1408170.938 5  24247170.133       -1884.993
  -4499106.046 6  -2314594.561 5  23953569.370       -2977.364
 93  5 10  3 51 30.0010000  0  7 20 17 16  3 22 26 23                0.001746520
  -9879159.683 7  -7710160.086 7  22674250.873        3519.779
 -11813787.803 7 -10280007.695 9  21734073.186       -1047.972
 -10706929.725 6  -8344135.435 6  23029359.117        3007.810
 -13614753.168 8  -9720396.386 9  21841972.146       -1078.435
  -2306907.837 5  -1821198.587 5  24797387.692       -2167.189
  -1845275.292 5  -1452145.755 5  24236431.481       -1877.178
  -4588338.180 6  -2384125.966 5  23936589.726       -2971.376
 93  5 10  3 52  0.0010000  0  7 20 17 16  3 22 26 23                0.001754410
  -9773418.095 7  -7627764.043 7  22694372.563        3529.677
 -11845105.190 7 -10304410.828 9  21728113.850       -1039.818
 -10616522.154 6  -8273687.981 6  23046563.197        3019.412
 -13647023.782 8  -9745542.298 9  21835831.018       -1073.160
  -2371733.162 6  -1871711.735 5  24785051.678       -2154.465
  -1901480.367 5  -1495941.812 5  24225735.398       -1869.860
  -4677386.543 6  -2453514.178 5  23919643.877       -2965.193
 93  5 10  3 52 30.0010000  0  7 20 17 16  3 22 26 23                0.001762330
  -9667381.361 7  -7545138.025 7  22714551.294        3539.519
 -11876178.068 7 -10328623.421 9  21722200.663       -1031.714
 -10525763.013 6  -8202966.570 6  23063834.062        3031.256
 -13679134.242 8  -9770563.399 9  21829720.809       -1067.695
  -2436177.544 6  -1921928.088 5  24772788.070       -2141.849
  -1957471.384 5  -1539571.046 5  24215080.766       -1863.073
  -4766252.578 5  -2522760.355 5  23902733.844       -2959.138
 93  5 10  3 53  0.0010000  0  7 20 17 16  3 22 26 23                0.001770250
  -9561050.846 7  -7462283.074 7  22734785.406        3549.178
 -11907009.807 7 -10352648.122 9  21716333.535       -1023.597
 -10434657.285 6  -8131975.083 6  23081170.759        3042.341
 -13711081.369 8  -9795457.247 9  21823641.587       -1062.317
  -2500257.797 6  -1971860.691 5  24760593.958       -2130.154
  -2013270.892 5  -1583051.064 5  24204462.566       -1856.843
  -4854934.961 6  -2591863.397 5  23885857.423       -2952.992
 93  5 10  3 53 30.0010000  0  7 20 17 16  3 22 26 23                0.001778170
  -9454428.916 7  -7379201.066 7  22755074.990        3558.869
 -11937589.858 7 -10376476.698 9  21710514.814       -1014.940
 -10343218.924 6  -8060724.408 6  23098570.712        3053.468
 -13742863.207 8  -9820222.299 9  21817593.714       -1056.741
  -2563987.547 6  -2021520.192 5  24748466.805       -2118.641
  -2068870.114 5  -1626375.025 5  24193881.636       -1849.950
  -4943424.510 5  -2660816.200 5  23869018.218       -2946.365
 93  5 10  3 54  0.0010000  0  7 20 17 16  3 22 26 23                0.001786060
  -9347517.194 7  -7295893.233 7  22775419.407        3568.545
 -11967895.788 7 -10400091.679 9  21704747.657       -1005.456
 -10251437.877 6  -7989206.710 6  23116036.000        3065.372
 -13774476.889 8  -9844856.311 9  21811577.639       -1051.039
  -2627378.016 5  -2070915.316 5  24736403.757       -2107.324
  -2124268.698 5  -1669542.640 5  24183339.483       -1843.230
  -5031712.390 6  -2729611.851 5  23852217.511       -2939.493
 93  5 10  3 54 30.0010000  0  7 20 17 16  3 22 26 23                0.001793930
  -9240320.206 7  -7212363.121 7  22795818.563        3578.019
 -11997921.105 7 -10423488.015 9  21699034.251        -996.103
 -10159301.362 6  -7917412.031 6  23133569.146        3077.182
 -13805922.749 8  -9869359.557 9  21805593.752       -1045.420
  -2690431.291 5  -2120047.670 5  24724404.322       -2096.069
  -2179463.623 5  -1712551.551 5  24172836.099       -1836.364
  -5119798.708 6  -2798250.424 5  23835455.236       -2932.700
 93  5 10  3 55  0.0010000  0  7 20 17 16  3 22 26 23                0.001801790
  -9132841.593 7  -7128613.576 7  22816271.302        3587.245
 -12027660.367 7 -10446661.433 9  21693375.189        -986.258
 -10066804.114 6  -7845336.256 6  23151170.888        3089.350
 -13837199.440 8  -9893730.974 9  21799642.092       -1039.874
  -2753144.263 6  -2168914.873 5  24712470.462       -2084.617
  -2234444.183 5  -1755393.425 5  24162373.436       -1828.773
  -5207683.522 6  -2866732.011 5  23818732.403       -2926.237
 93  5 10  3 55 30.0010000  0  7 20 17 16  3 22 26 23                0.001809630
  -9025083.614 7  -7044646.312 7  22836776.917        3596.520
 -12057091.215 7 -10469594.524 9  21687774.496        -975.851
  -9973932.808 6  -7772969.002 6  23168843.665        3102.058
 -13868305.250 8  -9917969.239 9  21793722.750       -1034.117
  -2815501.805 6  -2217505.143 5  24700604.745       -2072.513
  -2289187.584 5  -1798050.479 5  24151955.984       -1820.981
  -5295369.215 6  -2935058.422 5  23802047.075       -2919.637
 93  5 10  3 56  0.0010000  0  7 20 17 16  3 22 26 23                0.001817460
  -8917049.285 6  -6960463.713 7  22857335.125        3605.605
 -12086212.172 7 -10492286.143 9  21682232.714        -965.752
  -9880679.196 6  -7700303.860 6  23186589.380        3114.588
 -13899238.370 8  -9942072.938 9  21787836.516       -1028.469
  -2877485.846 5  -2265804.346 5  24688809.207       -2059.773
  -2343702.601 5  -1840529.652 5  24141581.659       -1813.318
  -5382860.560 6  -3003233.403 5  23785397.352       -2913.455
 93  5 10  3 56 30.0010000  0  7 20 17 16  3 22 26 23                0.001825300
  -8808742.470 6  -6876068.806 7  22877945.398        3614.697
 -12115035.081 7 -10514745.520 9  21676747.850        -955.887
  -9787059.642 6  -7627353.556 6  23204404.826        3126.446
 -13929998.224 8  -9966041.632 9  21781983.196       -1022.577
  -2939073.126 5  -2313794.386 5  24677089.269       -2046.275
  -2397974.891 5  -1882819.639 5  24131254.443       -1804.878
  -5470172.004 6  -3071268.222 5  23768782.337       -2907.346
 93  5 10  3 57  0.0010000  0  7 20 17 16  3 22 26 23                0.001833150
  -8700163.883 7  -6791462.107 6  22898607.482        3623.744
 -12143563.453 7 -10536975.398 9  21671319.128        -946.192
  -9693092.401 6  -7554132.340 6  23222285.945        3137.811
 -13960580.941 8  -9989872.309 9  21776163.445       -1016.587
  -3000255.746 5  -2361469.096 5  24665446.673       -2032.742
  -2451990.129 5  -1924909.327 5  24120975.897       -1796.075
  -5557294.013 6  -3139155.421 5  23752202.960       -2900.697
 93  5 10  3 57 30.0010000  0  7 20 17 16  3 22 26 23                0.001841020
  -8591314.058 6  -6706644.095 6  22919320.833        3632.923
 -12171812.571 7 -10558987.681 9  21665943.552        -937.212
  -9598796.867 6  -7480655.303 6  23240229.903        3148.566
 -13990982.145 8 -10013561.551 9  21770378.031       -1010.324
  -3061038.396 5  -2408832.149 5  24653880.015       -2019.292
  -2505739.360 6  -1966791.766 5  24110747.444       -1787.100
  -5644206.431 6  -3206879.296 6  23735664.125       -2893.420
 93  5 10  3 58  0.0010000  0  7 20 17 16  3 22 26 23                0.001848910
  -8482197.014 6  -6621617.815 6  22940084.960        3641.599
 -12199811.346 7 -10580804.859 9  21660615.297        -929.348
  -9504193.247 6  -7406938.196 6  23258232.321        3158.376
 -14021201.851 8 -10037109.345 9  21764627.243       -1004.415
  -3121421.587 5  -2455883.942 5  24642390.180       -2006.272
  -2559216.356 5  -2008462.071 5  24100571.314       -1777.768
  -5730902.316 6  -3274434.421 6  23719166.434       -2886.209
 93  5 10  3 58 30.0010000  0  7 20 17 16  3 22 26 23                0.001856820
  -8372818.202 6  -6536387.576 6  22960898.981        3650.253
 -12227575.689 7 -10602439.398 9  21655332.025        -921.649
  -9409292.741 6  -7332989.764 6  23276290.985        3168.226
 -14051240.763 8 -10060516.252 9  21758910.920        -998.423
  -3181423.090 5  -2502638.315 5  24630971.482       -1993.973
  -2612404.423 5  -2049907.231 5  24090449.786       -1768.252
  -5817375.579 6  -3341816.108 5  23702711.065       -2878.468
 93  5 10  3 59  0.0010000  0  7 20 17 16  3 22 26 23                0.001864730
  -8263181.103 6  -6450956.066 6  22981761.829        3658.897
 -12255114.081 7 -10623897.862 9  21650091.494        -914.309
  -9314100.888 6  -7258814.304 6  23294405.260        3177.931
 -14081097.961 8 -10083781.595 9  21753229.393        -992.265
  -3241067.299 5  -2549114.263 5  24619621.581       -1982.130
  -2665318.229 5  -2091138.698 5  24080380.851       -1759.264
  -5903604.952 6  -3409007.769 6  23686301.895       -2870.268
 93  5 10  3 59 30.0010000  0  7 20 17 16  3 22 26 23                0.001872630
  -8153286.587 6  -6365323.994 6  23002674.379        3667.394
 -12282434.035 7 -10645186.111 9  21644892.734        -907.024
  -9218618.295 6  -7184412.269 6  23312575.341        3187.589
 -14110769.753 8 -10106902.444 9  21747582.912        -986.133
  -3300350.973 5  -2595309.279 5  24608339.446       -1970.026
  -2717969.766 5  -2132165.785 5  24070361.440       -1750.809
  -5989600.088 6  -3476016.838 6  23669937.786       -2862.921
 93  5 10  4  0  0.0010000  0  7 20 17 16  3 22 26 23                0.001880540
  -8043140.903 6  -6279496.196 6  23023634.671        3675.748
 -12309528.580 7 -10666298.721 9  21639736.772        -899.085
  -9122841.102 6  -7109780.689 6  23330801.093        3197.696
 -14140257.625 8 -10129879.996 9  21741971.667        -979.884
  -3359263.110 5  -2641214.805 5  24597129.360       -1957.417
  -2770362.649 5  -2172991.353 5  24060391.327       -1742.106
  -6075381.187 6  -3542859.197 6  23653613.784       -2855.675
 93  5 10  4  0 30.0010000  0  7 20 17 16  3 22 26 23                0.001888440
  -7932744.862 6  -6193473.310 6  23044642.278        3684.037
 -12336373.224 7 -10687216.598 9  21634628.481        -890.373
  -9026751.143 6  -7034905.391 6  23349086.275        3208.468
 -14169557.908 8 -10152711.355 9  21736395.965        -973.633
  -3417798.446 5  -2686826.710 5  24585990.762       -1944.710
  -2822503.527 5  -2213620.508 5  24050468.677       -1733.991
  -6160943.178 6  -3609530.760 6  23637332.353       -2848.347
 93  5 10  4  1  0.0010000  0  7 20 17 16  3 22 26 23                0.001896340
  -7822098.510 6  -6107255.389 6  23065697.561        3692.227
 -12362945.632 7 -10707922.367 9  21629571.479        -881.204
  -8930329.462 6  -6959771.641 6  23367434.385        3219.666
 -14198666.235 8 -10175393.162 9  21730856.821        -967.300
  -3475937.100 5  -2732129.531 5  24574927.538       -1931.226
  -2874398.203 5  -2254057.865 5  24040593.022       -1725.673
  -6246278.284 6  -3676025.570 6  23621093.455       -2840.961
 93  5 10  4  1 30.0010000  0  7 20 17 16  3 22 26 23                0.001904230
  -7711211.018 6  -6020849.559 6  23086798.211        3700.196
 -12389233.942 7 -10728406.735 9  21624569.031        -871.232
  -8833558.699 6  -6884365.850 6  23385849.166        3231.652
 -14227586.522 8 -10197928.424 9  21725353.641        -960.976
  -3533668.612 5  -2777115.081 5  24563941.415       -1917.647
  -2926033.543 5  -2294293.144 5  24030766.848       -1716.708
  -6331402.152 6  -3742355.772 6  23604894.813       -2833.907
 93  5 10  4  2  0.0010000  0  7 20 17 16  3 22 26 23                0.001912140
  -7600082.138 6  -5934255.615 6  23107944.823        3708.431
 -12415210.965 7 -10748648.552 9  21619625.895        -860.500
  -8736422.719 6  -6808675.469 6  23404333.847        3244.040
 -14256313.874 8 -10220313.344 9  21719886.935        -954.297
  -3590992.094 5  -2821782.687 5  24553033.386       -1903.894
  -2977396.332 5  -2334315.988 5  24020993.082       -1707.548
  -6416295.306 6  -3808506.212 6  23588739.928       -2825.403
 93  5 10  4  2 30.0010000  0  7 20 17 16  3 22 26 23                0.001920040
  -7488709.466 6  -5847471.721 6  23129138.372        3716.337
 -12440873.510 7 -10768645.319 9  21614742.496        -850.495
  -8638923.520 6  -6732702.072 6  23422887.762        3255.648
 -14284841.588 8 -10242542.714 9  21714458.303        -947.808
  -3647910.465 5  -2866134.593 5  24542201.749       -1890.534
  -3028485.786 5  -2374125.862 5  24011271.543       -1698.353
  -6500929.561 6  -3874454.881 6  23572634.404       -2816.890
 93  5 10  4  3  0.0010000  0  7 20 17 16  3 22 26 23                0.001927960
  -7377095.645 6  -5760499.918 6  23150378.577        3724.559
 -12466240.582 7 -10788411.866 9  21609915.187        -840.797
  -8541086.162 6  -6656465.181 6  23441505.940        3266.703
 -14313167.330 8 -10264614.694 9  21709068.095        -940.817
  -3704418.004 6  -2910166.435 5  24531449.147       -1876.586
  -3079290.238 6  -2413713.669 5  24001603.986       -1688.567
  -6585309.798 6  -3940205.631 6  23556576.963       -2808.518
 93  5 10  4  3 30.0010000  0  7 20 17 16  3 22 26 23                0.001935870
  -7265243.979 6  -5673342.787 6  23171663.671        3732.346
 -12491322.688 7 -10807956.333 9  21605142.592        -831.248
  -8442933.709 6  -6579982.756 6  23460183.643        3276.741
 -14341290.020 8 -10286528.455 9  21703716.399        -934.090
  -3760516.270 6  -2953879.341 5  24520773.590       -1863.136
  -3129807.830 6  -2453077.940 5  23991991.421       -1679.161
  -6669448.985 6  -4005768.525 6  23540565.757       -2800.595
 93  5 10  4  4  0.0010000  0  7 20 17 16  3 22 26 23                0.001943790
  -7153153.109 6  -5585999.242 6  23192993.786        3740.340
 -12516120.385 7 -10827279.209 9  21600423.529        -821.968
  -8344488.749 6  -6503272.375 6  23478916.915        3286.197
 -14369203.462 8 -10308279.176 9  21698404.487        -927.002
  -3816201.209 6  -2997270.154 5  24510177.218       -1849.142
  -3180041.113 6  -2492220.713 5  23982432.078       -1669.678
  -6753338.638 6  -4071137.016 6  23524602.308       -2792.123
 93  5 10  4  4 30.0010000  0  7 20 17 16  3 22 26 23                0.001951700
  -7040827.306 6  -5498472.658 6  23214368.328        3747.962
 -12540647.539 7 -10846391.260 9  21595756.379        -813.138
  -8245768.128 6  -6426347.215 6  23497703.039        3295.163
 -14396907.249 8 -10329866.516 9  21693132.596        -920.195
  -3871462.331 5  -3040330.754 5  24499661.399       -1835.081
  -3229987.239 6  -2531139.699 5  23972927.707       -1659.965
  -6836991.103 6  -4136320.661 6  23508683.418       -2784.923
 93  5 10  4  5  0.0010000  0  7 20 17 16  3 22 26 23                0.001959620
  -6928266.517 6  -5410762.953 6  23235787.810        3755.775
 -12564890.206 7 -10865281.627 9  21591143.374        -803.364
  -8146763.175 6  -6349200.516 6  23516542.878        3304.956
 -14424397.003 8 -10351287.086 9  21687901.608        -912.994
  -3926291.496 6  -3083054.751 5  24489227.728       -1820.695
  -3279636.467 5  -2569827.303 5  23963479.580       -1650.290
  -6920421.450 6  -4201331.270 6  23492807.126       -2777.337
 93  5 10  4  5 30.0010000  0  7 20 17 16  3 22 26 23                0.001967540
  -6815477.495 6  -5322875.418 6  23257251.219        3763.341
 -12588841.296 7 -10883944.818 9  21586585.777        -793.536
  -8047464.766 6  -6271825.135 6  23535438.726        3314.868
 -14451674.592 8 -10372542.328 9  21682711.071        -905.845
  -3980702.460 6  -3125452.858 5  24478874.158       -1806.737
  -3328997.774 6  -2608290.601 5  23954086.073       -1640.448
  -7003621.109 6  -4266162.082 6  23476974.647       -2769.289
 93  5 10  4  6  0.0010000  0  7 20 17 16  3 22 26 23                0.001975460
  -6702460.972 6  -5234810.612 6  23278757.682        3770.869
 -12612502.700 7 -10902382.257 9  21582083.045        -784.155
  -7947866.752 6  -6194216.308 6  23554391.455        3324.788
 -14478735.724 8 -10393628.909 9  21677561.417        -898.646
  -4034682.803 6  -3167515.434 5  24468601.832       -1792.203
  -3378057.706 6  -2646519.090 5  23944749.640       -1630.305
  -7086564.497 6  -4330793.213 6  23461191.005       -2760.520
 93  5 10  4  6 30.0010000  0  7 20 17 16  3 22 26 23                0.001983390
  -6589223.878 6  -5146573.905 6  23300305.833        3778.238
 -12635890.363 7 -10920606.384 9  21577632.466        -774.984
  -7847974.168 6  -6116377.916 6  23573400.422        3334.683
 -14505582.611 8 -10414548.532 9  21672452.623        -891.408
  -4088227.652 6  -3209238.683 5  24458412.715       -1777.561
  -3426804.229 6  -2684503.314 5  23935473.665       -1619.464
  -7169250.759 6  -4395224.009 6  23445456.577       -2751.898
 93  5 10  4  7  0.0010000  0  7 20 17 16  3 22 26 23                0.001991350
  -6475767.207 6  -5058166.123 6  23321895.619        3785.478
 -12659009.115 8 -10938620.992 9  21573233.132        -766.536
  -7747788.606 6  -6038311.250 6  23592465.106        3344.215
 -14532211.721 8 -10435298.468 9  21667385.261        -884.141
  -4141333.314 6  -3250619.698 5  24448307.184       -1762.969
  -3475223.106 6  -2722232.243 5  23926259.934       -1608.559
  -7251665.590 6  -4459443.262 6  23429773.205       -2742.536
 93  5 10  4  7 30.0010000  0  7 20 17 16  3 22 26 23                0.001999330
  -6362097.407 6  -4969592.252 6  23343525.622        3792.531
 -12681883.388 7 -10956445.084 9  21568880.315        -758.412
  -7647321.366 6  -5960025.117 6  23611583.183        3353.571
 -14558624.518 8 -10455879.841 9  21662359.090        -876.887
  -4194002.047 6  -3291660.241 5  24438284.176       -1748.243
  -3523310.047 6  -2759702.549 5  23917109.374       -1597.151
  -7333806.818 6  -4523449.375 6  23414142.207       -2733.556
 93  5 10  4  8  0.0020000  0  7 20 17 16  3 22 26 23                0.002007330
  -6248213.848 6  -4880851.842 6  23365197.483        3799.313
 -12704514.807 7 -10974079.946 9  21564573.895        -750.379
  -7546572.435 6  -5881519.458 6  23630755.098        3362.703
 -14584820.718 8 -10476292.459 9  21657374.122        -869.792
  -4246231.439 6  -3332358.418 5  24428344.733       -1733.896
  -3571057.754 6  -2796908.504 5  23908023.123       -1586.020
  -7415692.204 6  -4587256.093 6  23398560.431       -2725.518
 93  5 10  4  8 30.0020000  0  7 20 17 16  3 22 26 23                0.002015340
  -6134131.635 6  -4791956.593 6  23386907.060        3806.171
 -12726897.905 8 -10991521.308 9  21560314.377        -741.848
  -7445550.715 6  -5802801.246 6  23649979.062        3372.180
 -14610801.057 8 -10496536.856 9  21652430.123        -862.473
  -4298040.035 6  -3372728.757 5  24418486.004       -1720.000
  -3618467.169 6  -2833850.866 5  23899000.760       -1574.784
  -7497341.606 6  -4650878.933 6  23383023.458       -2717.772
 93  5 10  4  9  0.0020000  0  7 20 17 16  3 22 26 23                0.002023350
  -6019850.553 6  -4702906.423 6  23408654.237        3812.651
 -12749028.227 8 -11008765.695 9  21556103.011        -733.484
  -7344245.772 6  -5723862.313 6  23669256.549        3381.561
 -14636565.296 8 -10516612.862 9  21647527.429        -855.320
  -4349438.547 6  -3412779.529 5  24408705.425       -1706.660
  -3665559.101 6  -2870545.843 5  23890039.776       -1564.620
  -7578757.480 6  -4714319.804 6  23367530.287       -2709.947
 93  5 10  4  9 30.0020000  0  7 20 17 16  3 22 26 23                0.002031330
  -5905371.133 6  -4613701.681 6  23430438.663        3819.214
 -12770892.487 8 -11025802.765 9  21551942.309        -724.034
  -7242651.194 6  -5644697.722 6  23688589.102        3391.239
 -14662109.151 8 -10536517.135 9  21642666.614        -847.909
  -4400432.184 6  -3452514.788 5  24399001.642       -1692.833
  -3712346.259 6  -2907003.289 5  23881136.322       -1554.659
  -7659930.246 6  -4777571.236 6  23352083.089       -2701.508
 93  5 10  4 10  0.0020000  0  7 20 17 16  3 22 26 23                0.002039310
  -5790699.526 6  -4524347.189 6  23452259.859        3825.501
 -12792473.705 8 -11042619.284 9  21547835.275        -714.721
  -7140775.893 6  -5565314.378 6  23707975.523        3400.366
 -14687434.040 8 -10556250.797 9  21637847.400        -840.625
  -4451014.120 6  -3491929.251 5  24389376.384       -1679.138
  -3758837.066 6  -2943229.880 5  23872289.198       -1544.800
  -7740847.337 6  -4840623.460 6  23336684.611       -2692.729
 93  5 10  4 10 30.0020000  0  7 20 17 16  3 22 26 23                0.002047260
  -5675838.571 6  -4434845.156 6  23474116.807        3831.740
 -12813776.156 8 -11059218.588 9  21543781.519        -705.525
  -7038637.461 6  -5485725.969 6  23727411.963        3408.792
 -14712538.123 8 -10575812.393 9  21633070.186        -833.282
  -4501173.387 6  -3531014.391 5  24379831.439       -1664.787
  -3805041.352 6  -2979233.170 5  23863496.892       -1535.569
  -7821486.277 6  -4903458.938 6  23321338.982       -2683.169
 93  5 10  4 11  0.0020000  0  7 20 17 16  3 22 26 23                0.002055210
  -5560790.247 6  -4345197.107 6  23496009.570        3838.104
 -12834800.817 8 -11075601.422 9  21539780.630        -696.060
  -6936245.971 6  -5405940.401 6  23746896.620        3417.149
 -14737418.458 8 -10595199.639 9  21628335.453        -825.717
  -4550894.704 6  -3569758.277 5  24370369.783       -1650.030
  -3850958.053 5  -3015012.373 5  23854759.181       -1525.530
  -7901830.405 6  -4966064.678 6  23306050.137       -2673.192
 93  5 10  4 11 30.0020000  0  7 20 17 16  3 22 26 23                0.002063160
  -5445562.112 6  -4255408.966 6  23517937.291        3843.815
 -12855545.049 8 -11091765.740 9  21535833.313        -686.877
  -6833612.359 6  -5325966.137 6  23766427.203        3425.057
 -14762077.569 8 -10614414.518 9  21623642.965        -818.444
  -4600172.921 6  -3608156.866 5  24360992.516       -1635.038
  -3896568.544 6  -3050553.005 5  23846079.590       -1515.075
  -7981888.990 6  -5028447.928 6  23290815.923       -2664.119
 93  5 10  4 12  0.0020000  0  7 20 17 16  3 22 26 23                0.002071100
  -5330159.795 6  -4165485.089 6  23539897.761        3849.757
 -12876023.702 8 -11107723.112 9  21531936.182        -678.311
  -6730740.563 6  -5245806.316 6  23786003.152        3433.245
 -14786516.818 8 -10633458.074 9  21618992.392        -810.913
  -4648995.342 6  -3646200.297 5  24351701.318       -1619.771
  -3941860.530 6  -3085845.421 5  23837460.980       -1504.098
  -8061677.932 6  -5090621.078 6  23275632.314       -2655.110
 93  5 10  4 12 30.0020000  0  7 20 17 16  3 22 26 23                0.002079060
  -5214580.178 6  -4075423.038 6  23561891.767        3855.620
 -12896246.074 8 -11123480.780 9  21528088.036        -669.747
  -6627620.302 6  -5165452.874 6  23805626.177        3441.697
 -14810727.966 8 -10652323.898 9  21614385.022        -803.318
  -4697363.419 6  -3683889.688 5  24342497.380       -1604.766
  -3986818.429 6  -3120877.507 5  23828905.786       -1492.873
  -8141207.912 6  -5152592.428 6  23260498.131       -2646.813
 93  5 10  4 13  0.0020000  0  7 20 17 16  3 22 26 23                0.002087020
  -5098826.805 6  -3985225.617 6  23583919.046        3861.401
 -12916210.880 8 -11139037.749 9  21524288.654        -661.134
  -6524233.548 6  -5084891.815 6  23825300.039        3450.817
 -14834709.533 8 -10671010.808 9  21609821.612        -795.600
  -4745283.117 6  -3721229.714 5  24333378.102       -1589.818
  -4031428.567 6  -3155638.622 5  23820416.460       -1481.170
  -8220485.810 6  -5214367.350 6  23245412.085       -2638.375
 93  5 10  4 13 30.0020000  0  7 20 17 16  3 22 26 23                0.002095000
  -4982900.420 6  -3894893.372 6  23605979.070        3866.966
 -12935918.890 8 -11154394.613 9  21520538.460        -652.807
  -6420567.421 6  -5004113.018 6  23845026.791        3460.087
 -14858457.535 8 -10689515.709 9  21605302.520        -787.864
  -4792750.406 6  -3758217.187 5  24324345.324       -1574.790
  -4075690.803 6  -3190128.642 5  23811993.639       -1469.720
  -8299512.558 6  -5275946.576 6  23230373.886       -2630.071
 93  5 10  4 14  0.0020000  0  7 20 17 16  3 22 26 23                0.002102990
  -4866805.098 6  -3804429.501 6  23628070.956        3872.684
 -12955374.947 8 -11169555.148 9  21516836.064        -644.172
  -6316625.677 6  -4923119.463 6  23864806.558        3469.267
 -14881971.503 8 -10707838.259 9  21600828.067        -779.954
  -4839776.934 6  -3794861.240 5  24315396.936       -1560.394
  -4119612.335 6  -3224353.199 5  23803636.297       -1458.224
  -8378279.976 6  -5337323.746 6  23215384.713       -2621.061
 93  5 10  4 14 30.0020000  0  7 20 17 16  3 22 26 23                0.002110980
  -4750539.407 6  -3713832.855 6  23650195.330        3878.226
 -12974563.396 8 -11184507.157 9  21513184.452        -635.145
  -6212414.380 6  -4841915.882 6  23884637.381        3478.103
 -14905244.820 8 -10725973.289 9  21596399.495        -771.971
  -4886373.947 6  -3831170.584 5  24306529.896       -1546.249
  -4163179.534 6  -3258301.628 5  23795345.747       -1446.389
  -8456772.273 6  -5398486.519 6  23200448.293       -2611.727
 93  5 10  4 15  0.0020000  0  7 20 17 16  3 22 26 23                0.002118960
  -4634107.898 6  -3623106.992 6  23672351.805        3883.726
 -12993476.814 8 -11199244.846 9  21509585.714        -625.932
  -6107937.177 6  -4760505.089 6  23904518.831        3486.881
 -14928277.471 8 -10743920.790 9  21592016.358        -763.839
  -4932541.660 6  -3867145.447 5  24297744.502       -1531.656
  -4206384.828 6  -3291968.058 5  23787123.965       -1434.155
  -8534974.470 6  -5459423.224 6  23185566.546       -2602.008
 93  5 10  4 15 30.0020000  0  7 20 17 16  3 22 26 23                0.002126940
  -4517512.692 6  -3532253.609 6  23694539.321        3889.091
 -13012119.648 8 -11213771.714 9  21506038.169        -617.119
  -6003205.794 6  -4678896.260 6  23924448.903        3494.936
 -14951066.685 8 -10761678.602 9  21587679.701        -755.823
  -4978271.820 6  -3902779.341 5  24289042.546       -1517.171
  -4249216.892 6  -3325343.697 5  23778972.991       -1421.433
  -8612888.490 6  -5520135.406 6  23170740.233       -2592.235
 93  5 10  4 16  0.0020000  0  7 20 17 16  3 22 26 23                0.002134910
  -4400760.950 6  -3441278.231 6  23716756.204        3894.321
 -13030501.311 8 -11228095.054 9  21502540.322        -608.455
  -5898245.594 6  -4597109.121 6  23944421.871        3502.366
 -14973614.530 8 -10779248.319 9  21583389.011        -747.683
  -5023571.096 6  -3938077.469 5  24280422.434       -1502.560
  -4291666.803 6  -3358421.524 5  23770894.501       -1408.602
  -8690502.160 6  -5580613.526 6  23155970.994       -2582.038
 93  5 10  4 16 30.0020000  0  7 20 17 16  3 22 26 23                0.002142890
  -4283855.326 6  -3350182.939 6  23739002.407        3899.494
 -13048633.873 8 -11242224.295 9  21499089.870        -600.290
  -5793063.940 6  -4515149.388 6  23964437.392        3509.977
 -14995919.049 8 -10796628.445 9  21579144.499        -739.363
  -5068413.699 6  -3973019.786 5  24271888.954       -1486.644
  -4333733.543 6  -3391200.787 5  23762889.718       -1395.876
  -8767810.759 6  -5640853.941 6  23141259.750       -2571.792
 93  5 10  4 17  0.0020000  0  7 20 17 16  3 22 26 23                0.002150890
  -4166797.667 6  -3258969.189 6  23761278.120        3904.492
 -13066530.724 8 -11256169.861 9  21495684.038        -592.732
  -5687654.045 6  -4433011.835 6  23984495.982        3517.391
 -15017977.251 8 -10813816.645 9  21574946.875        -731.238
  -5112775.084 6  -4007587.074 5  24263447.155       -1470.456
  -4375431.904 6  -3423692.994 5  23754955.137       -1383.978
  -8844821.858 6  -5700862.528 7  23126604.966       -2562.179
 93  5 10  4 17 30.0020000  0  7 20 17 16  3 22 26 23                0.002158910
  -4049592.294 6  -3167640.342 5  23783581.928        3909.260
 -13084199.786 8 -11269937.912 9  21492321.575        -585.032
  -5582028.843 6  -4350706.492 5  24004595.656        3524.204
 -15039788.635 8 -10830812.501 9  21570796.550        -723.026
  -5156647.991 6  -4041773.755 5  24255098.437       -1454.415
  -4416778.802 6  -3455911.339 5  23747087.626       -1372.414
  -8921541.798 6  -5760644.263 7  23112004.936       -2552.447
 93  5 10  4 18  0.0020000  0  7 20 17 16  3 22 26 23                0.002166940
  -3932244.282 6  -3076200.326 5  23805912.289        3914.062
 -13101629.184 8 -11283519.236 9  21489004.830        -576.785
  -5476199.115 6  -4268241.763 5  24024734.240        3531.380
 -15061352.965 8 -10847615.858 9  21566693.119        -714.697
  -5200034.939 6  -4075581.789 5  24246841.902       -1437.851
  -4457787.399 6  -3487866.077 5  23739283.304       -1361.327
  -8997974.657 6  -5820202.269 7  23097460.321       -2543.149
 93  5 10  4 18 30.0020000  0  7 20 17 16  3 22 26 23                0.002174980
  -3814755.914 6  -2984650.946 5  23828269.604        3918.559
 -13118805.856 8 -11296903.649 9  21485736.404        -568.082
  -5370140.217 6  -4185598.470 5  24044916.678        3539.353
 -15082668.228 8 -10864225.125 9  21562636.717        -706.416
  -5242925.837 6  -4109003.251 5  24238679.932       -1421.701
  -4498462.885 6  -3519561.218 5  23731542.707       -1350.297
  -9074142.654 6  -5879553.923 6  23082966.204       -2534.645
 93  5 10  4 19  0.0020000  0  7 20 17 16  3 22 26 23                0.002183020
  -3697130.204 6  -2892994.579 5  23850652.868        3923.183
 -13135709.479 8 -11310075.272 9  21482519.750        -558.672
  -5263848.709 6  -4102773.925 5  24065143.240        3546.717
 -15103732.151 8 -10880638.549 9  21558628.432        -698.048
  -5285349.740 6  -4142060.854 5  24230607.009       -1406.494
  -4538800.264 6  -3550992.951 5  23723866.989       -1338.699
  -9150046.820 6  -5938699.966 6  23068521.984       -2525.590
 93  5 10  4 19 30.0020000  0  7 20 17 16  3 22 26 23                0.002191050
  -3579371.021 6  -2801234.165 5  23873061.816        3927.475
 -13152319.797 8 -11323018.337 9  21479359.077        -548.740
  -5157335.055 6  -4019776.282 5  24085412.226        3554.165
 -15124544.004 8 -10896855.565 9  21554668.024        -689.655
  -5327312.904 6  -4174759.421 5  24222621.481       -1391.185
  -4578781.347 6  -3582147.024 5  23716258.869       -1326.708
  -9225673.945 6  -5997630.166 7  23054130.808       -2516.311
 93  5 10  4 20  0.0020000  0  7 20 17 16  3 22 26 23                0.002199080
  -3461477.802 6  -2709369.369 5  23895496.313        3931.982
 -13168634.911 8 -11335731.399 9  21476254.360        -539.139
  -5050587.652 6  -3936596.522 5  24105726.153        3562.273
 -15145098.148 8 -10912871.760 9  21550756.711        -680.932
  -5368810.501 6  -4207095.246 5  24214724.876       -1375.483
  -4618396.383 6  -3613015.854 5  23708720.476       -1314.299
  -9301016.988 6  -6056339.003 7  23039793.650       -2506.621
 93  5 10  4 20 30.0020000  0  7 20 17 16  3 22 26 23                0.002207100
  -3343454.353 6  -2617403.021 5  23917955.093        3936.231
 -13184669.304 8 -11348225.698 9  21473203.191        -529.842
  -4943605.545 6  -3853233.864 5  24126084.601        3569.606
 -15165393.753 8 -10928686.507 9  21546894.785        -672.333
  -5409846.822 6  -4239071.586 5  24206915.880       -1360.426
  -4657635.001 6  -3643591.396 6  23701253.901       -1301.537
  -9376061.714 6  -6114815.347 7  23025513.019       -2496.196
 93  5 10  4 21  0.0020000  0  7 20 17 16  3 22 26 23                0.002215110
  -3225305.256 6  -2525338.797 5  23940438.730        3940.454
 -13200429.393 8 -11360506.274 9  21470204.157        -520.809
  -4836419.132 6  -3769712.012 5  24146481.369        3576.360
 -15185430.177 8 -10944299.283 9  21543082.077        -663.603
  -5450428.014 6  -4270693.321 5  24199193.743       -1344.625
  -4696484.190 6  -3673863.467 5  23693861.352       -1288.319
  -9450786.996 6  -6173042.802 7  23011293.446       -2485.329
 93  5 10  4 21 30.0020000  0  7 20 17 16  3 22 26 23                0.002223130
  -3107032.567 6  -2433178.296 5  23962945.386        3944.520
 -13215928.336 8 -11372583.345 9  21467254.818        -512.506
  -4729018.588 6  -3686023.327 5  24166918.839        3583.709
 -15205204.996 8 -10959708.212 9  21539319.009        -654.844
  -5490527.062 6  -4301939.327 5  24191563.037       -1328.751
  -4734943.194 6  -3703831.502 5  23686542.515       -1275.469
  -9525185.934 6  -6231015.961 7  22997135.813       -2474.420
 93  5 10  4 22  0.0020000  0  7 20 17 16  3 22 26 23                0.002231150
  -2988637.976 6  -2340922.789 5  23985475.444        3948.556
 -13231183.376 8 -11384470.374 9  21464351.770        -504.352
  -4621398.433 6  -3602163.485 5  24187397.514        3591.209
 -15224714.845 8 -10974910.680 9  21535606.310        -645.950
  -5530157.127 6  -4332819.907 5  24184021.981       -1313.242
  -4773009.914 6  -3733493.865 5  23679298.174       -1262.138
  -9599248.152 6  -6288726.750 7  22983042.448       -2463.045
 93  5 10  4 22 30.0020000  0  7 20 17 16  3 22 26 23                0.002239190
  -2870121.726 6  -2248572.484 5  24008028.457        3952.472
 -13246186.208 8 -11396160.864 9  21461496.876        -495.863
  -4513552.553 6  -3518127.772 5  24207919.738        3598.485
 -15243955.020 8 -10989903.004 9  21531944.895        -636.984
  -5569320.049 6  -4363336.476 5  24176570.009       -1297.556
  -4810668.284 6  -3762838.036 5  23672132.061       -1248.582
  -9672967.700 6  -6346170.499 7  22969014.094       -2451.726
 93  5 10  4 23  0.0020000  0  7 20 17 16  3 22 26 23                0.002247230
  -2751491.778 6  -2156133.565 5  24030602.581        3956.216
 -13260940.984 8 -11407658.081 9  21458688.819        -487.788
  -4405483.966 6  -3433918.538 5  24228484.467        3606.100
 -15262928.526 8 -11004687.549 9  21528334.444        -628.053
  -5608011.356 6  -4393485.548 5  24169207.707       -1281.680
  -4847928.435 6  -3791871.889 5  23665042.352       -1235.449
  -9746357.755 6  -6403357.518 7  22955048.029       -2440.880
 93  5 10  4 23 30.0020000  0  7 20 17 16  3 22 26 23                0.002255280
  -2632749.130 6  -2063606.868 5  24053197.537        3959.930
 -13275454.628 8 -11418967.383 9  21455926.940        -479.939
  -4297192.411 6  -3349535.581 5  24249091.733        3613.126
 -15281631.454 8 -11019261.246 9  21524775.427        -619.082
  -5646227.719 6  -4423264.531 5  24161935.300       -1266.281
  -4884801.115 6  -3820603.824 6  23658025.947       -1222.693
  -9819420.432 6  -6460289.444 7  22941144.387       -2430.051
 93  5 10  4 24  0.0020000  0  7 20 17 16  3 22 26 23                0.002263330
  -2513896.501 6  -1970994.441 5  24075814.257        3963.491
 -13289729.180 8 -11430090.391 9  21453210.643        -471.784
  -4188697.619 6  -3264994.272 5  24269738.009        3619.634
 -15300061.942 8 -11033622.661 9  21521268.146        -609.976
  -5683982.271 6  -4452683.671 5  24154750.694       -1250.554
  -4921289.030 6  -3849035.947 6  23651081.969       -1209.912
  -9892162.651 6  -6516971.644 7  22927301.989       -2419.679
 93  5 10  4 24 30.0020000  0  7 20 17 16  3 22 26 23                0.002271380
  -2394941.817 6  -1878302.493 5  24098450.950        3966.838
 -13303761.174 8 -11441024.389 9  21450540.248        -463.757
  -4080021.018 6  -3180311.274 5  24290418.493        3625.336
 -15318223.060 8 -11047774.143 9  21517811.980        -600.959
  -5721258.549 6  -4481730.134 5  24147657.055       -1234.492
  -4957396.943 6  -3877171.964 6  23644211.460       -1197.328
  -9964603.275 6  -6573418.838 7  22913517.151       -2409.747
 93  5 10  4 25  0.0020000  0  7 20 17 16  3 22 26 23                0.002279420
  -2275883.004 6  -1785529.390 5  24121106.744        3970.345
 -13317548.973 8 -11451768.110 9  21447916.387        -455.441
  -3971172.344 6  -3095494.167 5  24311131.703        3631.116
 -15336107.425 8 -11061709.998 9  21514408.816        -591.588
  -5758050.446 6  -4510399.143 5  24140655.984       -1218.309
  -4993126.590 6  -3905013.238 5  23637412.146       -1184.581
 -10036743.466 6  -6629631.959 7  22899789.156       -2399.630
 93  5 10  4 25 30.0020000  0  7 20 17 16  3 22 26 23                0.002287460
  -2156724.945 6  -1692678.986 5  24143781.937        3973.515
 -13331089.069 8 -11462318.815 9  21445339.740        -447.123
  -3862158.683 6  -3010548.549 5  24331876.749        3636.603
 -15353715.385 8 -11075430.470 9  21511058.044        -582.475
  -5794366.105 6  -4538697.050 5  24133745.417       -1202.772
  -5028469.527 6  -3932553.131 6  23630686.488       -1171.575
 -10108584.807 6  -6685612.182 7  22886118.298       -2389.931
 93  5 10  4 26  0.0020000  0  7 20 17 16  3 22 26 23                0.002295480
  -2037470.312 6  -1599753.282 5  24166475.899        3976.831
 -13344365.443 8 -11472664.024 9  21442813.200        -437.785
  -3752970.788 6  -2925467.090 5  24352654.777        3642.525
 -15371044.497 8 -11088933.660 9  21507760.387        -573.050
  -5830209.302 6  -4566626.788 5  24126924.619       -1186.711
  -5063407.968 6  -3959777.860 6  23624037.562       -1157.549
 -10180135.414 6  -6741365.848 7  22872503.025       -2380.024
 93  5 10  4 26 30.0020000  0  7 20 17 16  3 22 26 23                0.002303480
  -1918124.792 6  -1506756.831 5  24189187.277        3979.666
 -13357359.432 8 -11482789.201 9  21440340.342        -428.383
  -3643614.873 6  -2840254.715 5  24373464.476        3648.116
 -15388095.530 8 -11102220.169 9  21504515.972        -563.839
  -5865576.543 6  -4594185.694 5  24120194.776       -1171.162
  -5097927.270 6  -3986676.024 6  23617468.206       -1143.728
 -10251389.825 6  -6796888.751 7  22858943.206       -2370.181
 93  5 10  4 27  0.0020000  0  7 20 17 16  3 22 26 23                0.002311470
  -1798689.289 6  -1413690.201 5  24211914.354        3982.707
 -13370061.448 8 -11492686.864 9  21437923.186        -418.366
  -3534077.144 6  -2754900.607 5  24394309.049        3654.393
 -15404864.763 8 -11115287.081 9  21501324.771        -554.349
  -5900477.979 6  -4621381.604 5  24113553.047       -1155.510
  -5132029.253 6  -4013248.956 6  23610978.638       -1129.688
 -10322340.246 6  -6852174.773 7  22845441.392       -2359.821
 93  5 10  4 27 30.0020000  0  7 20 17 16  3 22 26 23                0.002319440
  -1679166.145 6  -1320555.304 5  24234659.006        3985.564
 -13382465.484 8 -11502352.323 9  21435562.758        -408.470
  -3424355.592 6  -2669403.314 5  24415188.926        3660.513
 -15421349.428 8 -11128132.261 9  21498187.727        -544.802
  -5934907.211 6  -4648209.572 6  24107001.090       -1139.670
  -5165705.491 6  -4039490.163 6  23604570.417       -1115.416
 -10392980.640 6  -6907219.199 7  22831998.766       -2349.362
 93  5 10  4 28  0.0020000  0  7 20 17 16  3 22 26 23                0.002327410
  -1559558.940 6  -1227354.907 5  24257419.398        3988.159
 -13394576.763 8 -11511789.666 9  21433258.154        -399.053
  -3314451.146 6  -2583763.513 5  24436102.730        3666.316
 -15437548.328 8 -11140754.771 9  21495105.000        -535.397
  -5968853.447 6  -4674661.175 6  24100541.133       -1123.329
  -5198957.060 6  -4065400.459 5  23598242.878       -1101.474
 -10463295.521 6  -6962009.978 7  22818618.590       -2338.301
 93  5 10  4 28 30.0020000  0  7 20 17 16  3 22 26 23                0.002335380
  -1439873.928 5  -1134093.887 5  24280194.723        3990.809
 -13406416.144 8 -11521015.145 9  21431005.273        -390.499
  -3204369.625 6  -2497985.708 5  24457050.412        3672.465
 -15453462.922 8 -11153155.735 9  21492076.525        -525.800
  -6002301.669 6  -4700724.717 6  24094176.300       -1106.530
  -5231797.327 6  -4090990.245 5  23591994.140       -1087.971
 -10533283.256 6  -7016545.831 7  22805300.839       -2327.639
 93  5 10  4 29  0.0020000  0  7 20 17 16  3 22 26 23                0.002343360
  -1320110.845 5  -1040772.023 5  24302984.176        3993.261
 -13418015.330 8 -11530053.437 9  21428797.911        -382.995
  -3094106.308 6  -2412066.262 5  24478032.429        3678.227
 -15469088.205 8 -11165331.258 9  21489103.135        -516.203
  -6035238.433 6  -4726389.718 6  24087908.710       -1089.224
  -5264235.506 6  -4116266.718 5  23585820.989       -1074.569
 -10602955.110 6  -7070835.567 7  22792042.247       -2317.162
 93  5 10  4 29 30.0020000  0  7 20 17 16  3 22 26 23                0.002351360
  -1200275.030 5   -947393.458 5  24325788.379        3995.678
 -13429397.845 8 -11538922.911 9  21426632.083        -375.976
  -2983677.085 6  -2326017.515 5  24499045.853        3683.598
 -15484424.341 8 -11177281.490 9  21486184.833        -506.546
  -6067648.921 6  -4751644.640 6  24081740.859       -1071.567
  -5296264.214 6  -4141224.137 5  23579726.507       -1060.860
 -10672306.146 6  -7124875.305 7  22778845.162       -2306.252
 93  5 10  4 30  0.0020000  0  7 20 17 16  3 22 26 23                0.002359380
  -1080369.795 5   -853960.850 5  24348605.633        3998.076
 -13440579.393 8 -11547635.793 9  21424504.133        -369.338
  -2873096.081 6  -2239850.524 5  24520088.580        3688.665
 -15499470.084 8 -11189005.427 9  21483321.896        -496.681
  -6099525.289 6  -4776483.372 6  24075674.948       -1053.506
  -5327887.059 6  -4165865.287 5  23573708.479       -1047.298
 -10741325.340 6  -7178656.463 7  22765711.378       -2295.071
 93  5 10  4 30 30.0020000  0  7 20 17 16  3 22 26 23                0.002367430
   -960397.776 5   -760476.227 5  24371436.289        4000.168
 -13451565.373 8 -11556196.271 9  21422413.832        -362.968
  -2762367.068 5  -2153568.205 5  24541159.698        3693.488
 -15514222.514 8 -11200500.805 9  21480514.626        -486.906
  -6130871.694 6  -4800909.135 6  24069709.864       -1036.129
  -5359106.634 6  -4190192.205 5  23567767.701       -1033.786
 -10810019.083 6  -7232184.033 7  22752639.494       -2284.139
 93  5 10  4 31  0.0020000  0  7 20 17 16  3 22 26 23                0.002375480
   -840360.612 5   -666940.769 5  24394278.651        4002.273
 -13462354.203 8 -11564603.132 9  21420360.733        -355.999
  -2651491.692 5  -2067171.838 5  24562258.367        3698.367
 -15528678.956 8 -11211765.548 9  21477763.773        -477.046
  -6161698.095 6  -4824929.698 6  24063844.171       -1018.879
  -5389908.151 6  -4214193.376 6  23561906.300       -1019.570
 -10878365.662 7  -7285441.069 7  22739633.598       -2272.132
 93  5 10  4 31 30.0020000  0  7 20 17 16  3 22 26 23                0.002383540
   -720262.576 5   -573357.915 5  24417132.649        4004.399
 -13472917.248 8 -11572834.055 9  21418350.474        -347.989
  -2540464.745 5  -1980657.340 5  24583385.990        3703.581
 -15542838.158 8 -11222798.680 9  21475069.180        -467.005
  -6192012.235 6  -4848551.095 6  24058075.781       -1001.900
  -5420276.086 6  -4237856.678 6  23556127.294       -1005.040
 -10946348.455 7  -7338414.629 7  22726696.525       -2259.983
 93  5 10  4 32  0.0020000  0  7 20 17 16  3 22 26 23                0.002391610
   -600103.757 5   -479727.691 5  24439998.880        4006.256
 -13483237.387 8 -11580875.705 9  21416386.806        -339.681
  -2429273.817 5  -1894015.108 5  24604545.141        3709.317
 -15556695.964 8 -11233596.944 9  21472432.015        -457.013
  -6221820.753 6  -4871778.511 6  24052402.929        -985.394
  -5450218.252 6  -4261188.173 6  23550429.717        -990.989
 -11013976.076 7  -7391111.459 7  22713827.584       -2248.547
 93  5 10  4 32 30.0020000  0  7 20 17 16  3 22 26 23                0.002399670
   -479889.102 5   -386053.999 5  24462875.167        4008.053
 -13493293.725 8 -11588711.786 9  21414473.096        -330.791
  -2317905.930 5  -1807234.974 5  24625737.721        3715.171
 -15570252.810 8 -11244160.697 9  21469852.202        -446.993
  -6251140.428 6  -4894624.986 6  24046823.413        -969.270
  -5479728.890 6  -4284183.461 6  23544813.845        -976.414
 -11081264.958 7  -7443544.329 7  22701023.259       -2237.283
 93  5 10  4 33  0.0020000  0  7 20 17 16  3 22 26 23                0.002407730
   -359619.913 5   -292337.741 5  24485761.052        4009.904
 -13503073.307 8 -11596332.233 9  21412612.215        -320.976
  -2206358.879 5  -1720315.277 5  24646964.215        3721.374
 -15583504.713 8 -11254486.853 9  21467330.348        -436.691
  -6279974.448 6  -4917093.063 6  24041336.840        -952.965
  -5508799.254 6  -4306835.677 6  23539281.951        -961.637
 -11148217.478 7  -7495715.082 7  22688282.629       -2226.332
 93  5 10  4 33 30.0020000  0  7 20 17 16  3 22 26 23                0.002415790
   -239298.528 5   -198580.880 5  24508657.367        4011.614
 -13512554.657 8 -11603720.271 9  21410808.036        -311.248
  -2094630.243 5  -1633254.016 5  24668225.251        3727.320
 -15596449.211 8 -11264573.458 9  21464866.951        -426.435
  -6308327.049 6  -4939185.965 6  24035941.148        -936.989
  -5537438.356 6  -4329151.833 6  23533832.261        -947.577
 -11214848.493 7  -7547635.320 7  22675603.135       -2215.600
 93  5 10  4 34  0.0020000  0  7 20 17 16  3 22 26 23                0.002423840
   -118926.896 5   -104784.860 5  24531563.221        4013.161
 -13521752.239 8 -11610887.206 9  21409057.768        -301.906
  -1982716.513 5  -1546048.560 5  24689521.880        3733.398
 -15609083.246 8 -11274418.146 9  21462462.795        -416.055
  -6336200.301 6  -4960905.380 6  24030636.806        -921.259
  -5565649.080 6  -4351134.168 6  23528464.128        -932.916
 -11281154.291 7  -7599302.160 7  22662985.353       -2204.756
 93  5 10  4 34 30.0020000  0  7 20 17 16  3 22 26 23                0.002431890
      1493.235 5    -10951.038 5  24554478.877        4014.817
 -13530671.931 8 -11617837.589 9  21407360.272        -292.919
  -1870631.909 5  -1458709.930 5  24710851.082        3738.898
 -15621403.803 8 -11284018.574 9  21460118.328        -405.591
  -6363597.812 6  -4982254.082 6  24025423.319        -905.174
  -5593409.641 6  -4372765.751 6  23523181.750        -917.932
 -11347126.932 7  -7650709.380 7  22650430.903       -2193.362
 93  5 10  4 35  0.0020000  0  7 20 17 16  3 22 26 23                0.002439930
    121958.611 5     82918.054 5  24577401.402        4016.196
 -13539327.500 8 -11624582.171 9  21405713.213        -284.087
  -1758385.675 5  -1371245.364 5  24732211.047        3744.204
 -15633409.398 8 -11293373.568 9  21457833.590        -394.965
  -6390509.490 6  -5003224.212 6  24020302.461        -888.831
  -5620718.435 6  -4394045.328 6  23517984.322        -902.763
 -11412748.822 7  -7701843.284 8  22637943.599       -2181.437
 93  5 10  4 35 30.0020000  0  7 20 17 16  3 22 26 23                0.002447970
    242465.259 5    176819.320 5  24600332.180        4017.491
 -13547729.109 8 -11631128.864 9  21404114.380        -276.144
  -1645989.977 5  -1283664.348 5  24753599.529        3748.810
 -15645098.917 8 -11302482.266 9  21455609.113        -384.488
  -6416931.037 6  -5023812.411 6  24015274.863        -872.393
  -5647573.180 6  -4414971.082 6  23512874.421        -887.449
 -11478010.655 7  -7752696.633 7  22625524.396       -2169.304
 93  5 10  4 36  0.0020000  0  7 20 17 16  3 22 26 23                0.002456010
    363011.840 5    270751.695 5  24623271.487        4018.811
 -13555894.527 8 -11637491.502 9  21402560.695        -268.188
  -1533462.631 5  -1195980.722 5  24775012.581        3752.713
 -15656468.836 8 -11311341.927 9  21453445.389        -373.815
  -6442851.613 6  -5044010.234 6  24010342.236        -855.692
  -5673957.084 6  -4435529.946 6  23507853.472        -871.580
 -11542912.295 7  -7803269.306 8  22613174.344       -2157.567
 93  5 10  4 36 30.0020000  0  7 20 17 16  3 22 26 23                0.002464040
    483594.343 5    364712.032 5  24646217.601        4020.115
 -13563817.914 8 -11643665.555 9  21401053.061        -259.975
  -1420828.542 5  -1108213.932 5  24796446.161        3756.504
 -15667518.489 8 -11319952.047 9  21451342.764        -362.963
  -6468261.569 6  -5063810.202 6  24005506.612        -838.138
  -5699869.329 6  -4455721.270 6  23502922.405        -855.979
 -11607458.757 7  -7853565.215 8  22600891.710       -2145.373
 93  5 10  4 37  0.0020000  0  7 20 17 16  3 22 26 23                0.002472070
    604210.318 5    458698.487 5  24669170.629        4021.063
 -13571502.006 8 -11649653.136 9  21399590.788        -252.198
  -1308076.374 5  -1020355.078 5  24817902.586        3760.322
 -15678245.325 8 -11328310.596 9  21449301.408        -352.320
  -6493148.378 6  -5083202.479 6  24000770.651        -820.882
  -5725323.834 6  -4475555.912 6  23498078.290        -840.845
 -11671650.350 7  -7903584.609 8  22588675.856       -2134.033
 93  5 10  4 37 30.0020000  0  7 20 17 16  3 22 26 23                0.002480110
    724855.985 5    552708.053 5  24692129.109        4021.990
 -13578953.292 8 -11655459.319 9  21398172.912        -244.385
  -1195209.306 5   -932406.762 5  24839380.488        3764.136
 -15688648.495 8 -11336416.958 9  21447321.840        -341.442
  -6517511.003 6  -5102186.321 6  23996134.613        -803.175
  -5750320.963 6  -4495034.179 6  23493321.859        -825.613
 -11735502.322 7  -7953339.366 8  22576525.176       -2122.645
 93  5 10  4 38  0.0020000  0  7 20 17 16  3 22 26 23                0.002488150
    845530.181 5    646739.846 5  24715092.567        4022.928
 -13586164.193 8 -11661078.181 9  21396800.765        -236.221
  -1082224.867 5   -844366.951 5  24860880.351        3768.297
 -15698724.076 8 -11344268.044 9  21445404.645        -330.427
  -6541338.310 6  -5120753.052 6  23991600.020        -785.276
  -5774864.439 6  -4514158.948 6  23488651.867        -810.563
 -11799010.626 7  -8002826.332 8  22564439.804       -2110.988
 93  5 10  4 38 30.0020000  0  7 20 17 16  3 22 26 23                0.002496190
    966231.431 5    740792.747 5  24738061.538        4023.778
 -13593129.701 8 -11666505.830 9  21395475.282        -228.149
   -969112.907 5   -756227.801 5  24882404.863        3772.694
 -15708469.415 8 -11351861.819 9  21443550.278        -319.423
  -6564630.240 6  -5138902.592 6  23987168.272        -767.474
  -5798961.025 6  -4532935.480 6  23484066.355        -795.775
 -11862160.316 7  -8052033.849 8  22552422.933       -2098.953
 93  5 10  4 39  0.0020000  0  7 20 17 16  3 22 26 23                0.002504250
   1086958.363 5    834865.630 5  24761035.086        4024.701
 -13599850.479 8 -11671742.786 9  21394196.459        -219.723
   -855865.351 5   -667982.973 5  24903955.391        3777.053
 -15717880.442 8 -11359195.074 9  21441759.459        -308.210
  -6587388.052 6  -5156635.917 6  23982837.458        -749.669
  -5822606.266 6  -4551360.329 6  23479565.936        -780.340
 -11924946.934 7  -8100958.450 8  22540475.103       -2086.795
 93  5 10  4 39 30.0020000  0  7 20 17 16  3 22 26 23                0.002512320
   1207710.430 5    928958.087 5  24784013.899        4025.441
 -13606305.670 8 -11676772.783 9  21392968.216        -210.655
   -742489.205 5   -579637.948 5  24925529.932        3781.248
 -15726953.099 8 -11366264.666 9  21440033.046        -296.856
  -6609610.383 6  -5173951.995 6  23978609.324        -731.676
  -5845780.825 6  -4569418.395 6  23475156.314        -764.674
 -11987362.449 7  -8149593.885 8  22528598.045       -2074.177
 93  5 10  4 40  0.0020000  0  7 20 17 16  3 22 26 23                0.002520390
   1328487.379 5   1023069.948 5  24806997.897        4026.259
 -13612489.356 8 -11681591.216 9  21391791.201        -201.730
   -628985.690 5   -491193.632 5  24947129.036        3785.632
 -15735682.910 8 -11373067.111 9  21438371.985        -285.397
  -6631294.716 6  -5190848.862 6  23974482.820        -713.943
  -5868482.350 6  -4587107.848 6  23470836.529        -748.731
 -12049393.573 7  -8197929.798 8  22516793.908       -2061.340
 93  5 10  4 40 30.0020000  0  7 20 17 16  3 22 26 23                0.002528470
   1449285.670 5   1117198.439 5  24829985.318        4026.902
 -13618407.582 8 -11686202.799 9  21390665.181        -192.882
   -515347.406 5   -402644.284 5  24968753.635        3790.253
 -15744068.736 8 -11379601.512 9  21436776.169        -273.945
  -6652441.723 6  -5207327.038 6  23970458.586        -695.917
  -5890701.384 6  -4604421.379 6  23466608.372        -732.682
 -12111041.510 7  -8245967.121 8  22505062.560       -2048.669
 93  5 10  4 41  0.0020000  0  7 20 17 16  3 22 26 23                0.002536570
   1570100.462 5   1211339.775 5  24852976.560        4027.439
 -13624059.095 8 -11690606.558 9  21389589.575        -183.886
   -401572.282 5   -313988.372 5  24990404.695        3794.722
 -15752110.425 8 -11385867.765 9  21435245.866        -262.413
  -6673047.349 6  -5223383.344 6  23966537.332        -677.819
  -5912437.245 6  -4621358.408 6  23462472.581        -716.480
 -12172309.453 7  -8293708.345 8  22493403.930       -2035.778
 93  5 10  4 41 30.0020000  0  7 20 17 16  3 22 26 23                0.002544670
   1690928.433 5   1305491.353 5  24875969.463        4027.769
 -13629444.816 8 -11694803.215 9  21388564.575        -175.403
   -287663.547 5   -225228.288 5  25012081.254        3798.936
 -15759806.610 8 -11391864.778 9  21433781.391        -250.943
  -6693108.045 6  -5239015.042 6  23962719.646        -659.635
  -5933696.418 6  -4637924.008 6  23458427.043        -700.815
 -12233183.682 7  -8341142.776 8  22481820.139       -2022.475
 93  5 10  4 42  0.0020000  0  7 20 17 16  3 22 26 23                0.002552790
   1811765.590 5   1399650.150 5  24898963.079        4028.261
 -13634584.577 8 -11698808.200 9  21387586.509        -166.946
   -173632.670 5   -136373.043 5  25033780.917        3803.283
 -15767156.310 8 -11397591.808 9  21432382.761        -239.065
  -6712626.599 6  -5254224.282 6  23959005.265        -641.319
  -5954481.544 6  -4654120.164 6  23454471.965        -684.706
 -12293656.351 7  -8388264.295 8  22470312.177       -2008.909
 93  5 10  4 42 30.0020000  0  7 20 17 16  3 22 26 23                0.002560920
   1932615.958 5   1493819.217 5  24921960.400        4028.492
 -13639468.882 8 -11702614.139 9  21386656.974        -158.468
    -59478.234 5    -47421.567 5  25055503.088        3806.940
 -15774151.194 8 -11403042.356 9  21431051.521        -227.343
  -6731594.643 6  -5269004.569 6  23955395.996        -623.298
  -5974788.135 6  -4669943.473 6  23450607.380        -669.002
 -12353732.634 7  -8435076.973 8  22458879.730       -1996.044
 93  5 10  4 43  0.0020000  0  7 20 17 16  3 22 26 23                0.002569040
   2053472.157 5   1587992.769 5  24944958.576        4028.477
 -13644097.089 8 -11706220.519 9  21385776.187        -150.163
     54771.060 5     41603.830 5  25077244.014        3809.552
 -15780793.543 8 -11408218.190 9  21429787.778        -215.796
  -6750037.283 6  -5283375.415 6  23951886.224        -606.363
  -5994622.587 6  -4685398.868 6  23446833.215        -653.310
 -12413419.692 7  -8481586.326 8  22447521.676       -1983.361
 93  5 10  4 43 30.0020000  0  7 20 17 16  3 22 26 23                0.002577150
   2174329.428 5   1682167.231 5  24967956.401        4028.731
 -13648472.480 8 -11709629.898 9  21384943.470        -141.672
    169106.557 5    130696.447 5  25099001.409        3812.776
 -15787083.520 8 -11413119.469 9  21428590.916        -203.779
  -6767972.834 6  -5297351.169 6  23948472.752        -589.356
  -6013978.255 6  -4700481.185 6  23443149.702        -636.956
 -12472737.496 7  -8527807.963 8  22436233.889       -1971.286
 93  5 10  4 44  0.0020000  0  7 20 17 16  3 22 26 23                0.002585260
   2295186.935 5   1776341.833 5  24990955.606        4028.430
 -13652600.851 8 -11712846.793 9  21384157.685        -133.533
    283533.934 5    219860.657 5  25120775.844        3815.852
 -15793017.090 8 -11417743.020 9  21427461.717        -192.096
  -6785409.985 6  -5310938.556 6  23945154.492        -573.046
  -6032845.691 6  -4715183.066 6  23439559.273        -621.083
 -12531705.556 7  -8573757.070 8  22425012.259       -1960.103
 93  5 10  4 44 30.0020000  0  7 20 17 16  3 22 26 23                0.002593350
   2416037.998 5   1870511.391 5  25013952.660        4028.154
 -13656478.147 8 -11715868.049 9  21383420.067        -125.086
    398063.487 5    309104.476 5  25142570.437        3819.433
 -15798596.182 8 -11422090.364 9  21426399.891        -180.256
  -6802352.165 6  -5324140.217 6  23941930.666        -556.732
  -6051238.600 6  -4729515.195 6  23436059.363        -605.191
 -12590331.761 7  -8619439.799 8  22413856.439       -1948.381
 93  5 10  4 45  0.0020000  0  7 20 17 16  3 22 26 23                0.002601450
   2536879.413 5   1964673.488 5  25036947.912        4027.982
 -13660097.828 8 -11718688.557 9  21382731.365        -116.306
    512708.190 5    398438.022 5  25164386.320        3823.705
 -15803819.100 8 -11426160.158 9  21425405.759        -168.202
  -6818801.631 6  -5336957.956 6  23938800.830        -539.566
  -6069149.951 6  -4743472.078 6  23432650.674        -588.861
 -12648596.958 7  -8664841.213 8  22402769.196       -1936.008
 93  5 10  4 45 30.0020000  0  7 20 17 16  3 22 26 23                0.002609560
   2657710.583 5   2058827.538 5  25059941.362        4027.402
 -13663460.400 8 -11721308.742 9  21382091.397        -108.082
    627493.260 5    487880.972 5  25186228.639        3828.355
 -15808681.902 8 -11429949.351 9  21424480.183        -156.265
  -6834718.353 6  -5349360.609 6  23935772.068        -521.443
  -6086571.230 6  -4757047.092 6  23429335.631        -572.676
 -12706494.836 7  -8709956.415 8  22391751.632       -1923.700
 93  5 10  4 46  0.0020000  0  7 20 17 16  3 22 26 23                0.002617690
   2778524.316 5   2152968.036 5  25082931.169        4026.885
 -13666577.277 8 -11723737.458 9  21381498.386         -99.638
    742406.357 5    577423.680 5  25208095.453        3832.599
 -15813187.044 8 -11433459.831 9  21423622.847        -144.326
  -6850085.171 6  -5361334.732 6  23932847.761        -502.926
  -6103512.526 6  -4770248.086 6  23426111.480        -556.745
 -12764007.401 7  -8754771.383 8  22380807.349       -1910.575
 93  5 10  4 46 30.0020000  0  7 20 17 16  3 22 26 23                0.002625850
   2899318.189 5   2247093.027 5  25105917.980        4026.081
 -13669436.177 8 -11725965.147 9  21380954.255         -91.104
    857445.435 5    667064.518 5  25229987.000        3836.577
 -15817332.647 8 -11436690.168 9  21422834.023        -132.357
  -6864890.050 6  -5372870.988 6  23930030.342        -484.213
  -6119965.099 6  -4783068.258 6  23422980.940        -540.030
 -12821122.484 7  -8799276.607 8  22369938.674       -1897.290
 93  5 10  4 47  0.0020000  0  7 20 17 16  3 22 26 23                0.002634020
   3020087.266 5   2341198.713 5  25128899.198        4025.138
 -13672048.951 8 -11728001.071 9  21380457.108         -83.313
    972592.446 5    756789.522 5  25251898.593        3839.768
 -15821118.632 8 -11439640.282 9  21422113.589        -120.315
  -6879132.919 6  -5383969.310 6  23927320.243        -465.233
  -6135908.531 6  -4795491.688 6  23419947.029        -522.830
 -12877849.645 7  -8843479.559 8  22359143.827       -1884.597
 93  5 10  4 47 30.0020000  0  7 20 17 16  3 22 26 23                0.002642200
   3140830.413 5   2435284.195 5  25151876.106        4024.221
 -13674438.273 8 -11729862.846 9  21380002.762         -76.154
   1087824.394 5    846580.759 5  25273827.165        3841.986
 -15824541.412 8 -11442307.372 9  21421462.021        -108.255
  -6892817.677 6  -5394632.749 6  23924716.054        -447.464
  -6151333.643 6  -4807511.232 6  23417012.032        -505.747
 -12934196.808 7  -8887386.401 8  22348421.361       -1872.003
 93  5 10  4 48  0.0020000  0  7 20 17 16  3 22 26 23                0.002650370
   3261542.425 5   2529345.408 5  25174847.525        4023.059
 -13676612.283 8 -11731556.878 9  21379588.646         -68.831
   1203113.380 5    936416.414 5  25295766.125        3843.891
 -15827601.602 8 -11444691.930 9  21420879.843         -96.160
  -6905981.843 6  -5404890.509 6  23922210.887        -430.457
  -6166245.406 6  -4819130.788 6  23414174.208        -488.518
 -12990161.224 7  -8930995.017 8  22337771.525       -1859.362
 93  5 10  4 48 30.0020000  0  7 20 17 16  3 22 26 23                0.002658530
   3382222.308 5   2623381.547 5  25197811.121        4022.148
 -13678565.597 8 -11733078.916 9  21379217.406         -61.621
   1318457.513 5   1026295.055 5  25317715.118        3845.574
 -15830295.773 8 -11446791.285 9  21420366.908         -83.800
  -6918636.630 6  -5414751.370 6  23919802.705        -413.430
  -6180632.440 6  -4830341.454 6  23411436.387        -470.898
 -13045760.895 7  -8974319.406 9  22327191.186       -1847.314
 93  5 10  4 49  0.0020000  0  7 20 17 16  3 22 26 23                0.002666680
   3502867.957 5   2717391.065 5  25220768.844        4020.959
 -13680306.417 8 -11734435.388 9  21378885.546         -54.397
   1433845.664 5   1116207.934 5  25339672.961        3847.017
 -15832621.517 8 -11448603.529 9  21419924.635         -71.495
  -6930786.327 6  -5424218.658 6  23917490.238        -396.617
  -6194503.590 6  -4841150.123 6  23408796.769        -454.086
 -13100997.317 7  -9017360.754 9  22316680.174       -1835.080
 93  5 10  4 49 30.0020000  0  7 20 17 16  3 22 26 23                0.002674810
   3623473.755 5   2811369.479 5  25243720.091        4019.571
 -13681819.024 8 -11735614.019 9  21378598.305         -46.175
   1549285.048 5   1206160.755 5  25361640.168        3849.109
 -15834579.330 8 -11450129.083 9  21419551.862         -59.118
  -6942435.749 6  -5433296.097 6  23915273.401        -379.776
  -6207886.430 6  -4851578.294 6  23406250.121        -438.078
 -13155862.682 7  -9060112.951 9  22306239.292       -1822.549
 93  5 10  4 50  0.0020000  0  7 20 17 16  3 22 26 23                0.002682930
   3744038.263 5   2905315.731 5  25266662.672        4018.158
 -13683075.559 8 -11736593.130 9  21378359.790         -37.385
   1664791.478 5   1296165.876 5  25383620.349        3851.575
 -15836166.166 8 -11451365.582 9  21419249.622         -46.820
  -6953566.941 6  -5441969.749 6  23913155.507        -362.067
  -6220791.200 6  -4861633.941 6  23403794.339        -422.261
 -13210354.714 7  -9102574.247 9  22295869.620       -1810.223
 93  5 10  4 50 30.0020000  0  7 20 17 16  3 22 26 23                0.002691060
   3864557.161 5   2999226.484 5  25289596.708        4016.523
 -13684064.893 8 -11737364.027 9  21378171.061         -28.624
   1780381.019 5   1386235.691 5  25405616.293        3854.488
 -15837381.814 8 -11452312.845 9  21419018.561         -34.421
  -6964159.926 6  -5450223.995 6  23911140.241        -344.055
  -6233229.688 6  -4871326.263 6  23401427.632        -407.005
 -13264475.529 7  -9144746.272 9  22285570.919       -1797.443
 93  5 10  4 51  0.0020000  0  7 20 17 16  3 22 26 23                0.002699190
   3985028.122 5   3093099.828 5  25312520.446        4014.896
 -13684786.662 8 -11737926.438 9  21378033.197         -19.532
   1896064.316 5   1476378.611 5  25427630.338        3857.846
 -15838223.906 8 -11452969.008 9  21418858.971         -21.929
  -6974206.906 6  -5458052.811 6  23909228.094        -325.715
  -6245209.217 6  -4880660.940 6  23399147.978        -391.585
 -13318193.144 7  -9186604.136 9  22275348.856       -1783.796
 93  5 10  4 51 30.0020000  0  7 20 17 16  3 22 26 23                0.002707340
   4105446.320 5   3186932.091 5  25335435.247        4013.149
 -13685242.848 8 -11738281.888 9  21377946.285         -10.960
   2011852.508 5   1566603.222 5  25449664.284        3861.283
 -15838692.856 8 -11453334.416 9  21418769.667          -9.418
  -6983706.343 6  -5465454.939 6  23907420.593        -307.290
  -6256719.933 6  -4889630.318 6  23396957.475        -375.619
 -13371508.695 7  -9228148.679 9  22265202.949       -1770.515
 93  5 10  4 52  0.0020000  0  7 20 17 16  3 22 26 23                0.002715500
   4225809.928 5   3280721.752 5  25358340.397        4011.298
 -13685449.847 8 -11738443.178 9  21377906.572          -2.864
   2127732.382 5   1656899.334 5  25471715.255        3864.084
 -15838785.942 8 -11453406.931 9  21418751.848           3.108
  -6992650.012 6  -5472424.015 6  23905718.637        -288.808
  -6267743.072 6  -4898219.754 6  23394859.887        -359.176
 -13424421.758 7  -9269379.620 9  22255133.891       -1756.945
 93  5 10  4 52 30.0020000  0  7 20 17 16  3 22 26 23                0.002723670
   4346119.280 5   3374469.209 5  25381234.104        4009.286
 -13685419.034 8 -11738419.155 9  21377912.558           4.701
   2243693.450 5   1747258.707 5  25493781.472        3866.438
 -15838498.204 8 -11453182.719 9  21418806.249          15.806
  -7001039.415 6  -5478961.204 6  23904122.250        -270.582
  -6278260.041 6  -4906414.786 6  23392858.268        -341.825
 -13476924.439 7  -9310290.767 9  22245143.089       -1743.244
 93  5 10  4 53  0.0020000  0  7 20 17 16  3 22 26 23                0.002731840
   4466369.624 5   3468170.613 5  25404116.502        4007.299
 -13685165.726 8 -11738221.745 9  21377961.604          12.114
   2359718.749 5   1837668.094 5  25515859.793        3868.384
 -15837829.589 8 -11452661.729 9  21418932.993          28.486
  -7008882.472 6  -5485072.656 6  23902629.954        -252.362
  -6288242.657 6  -4914193.451 6  23390958.913        -323.659
 -13529023.459 7  -9350887.385 9  22235228.840       -1730.238
 93  5 10  4 53 30.0020000  0  7 20 17 16  3 22 26 23                0.002740020
   4586555.923 5   3561822.166 5  25426988.273        4005.151
 -13684692.027 8 -11737852.623 9  21378051.554          19.468
   2475794.376 5   1928116.684 5  25537948.237        3869.767
 -15836780.889 8 -11451844.538 9  21419132.671          41.233
  -7016181.485 6  -5490760.180 6  23901240.957        -234.253
  -6297682.286 6  -4921548.986 6  23389162.480        -305.726
 -13580737.741 7  -9391184.190 9  22225388.053       -1717.329
 93  5 10  4 54  0.0020000  0  6 20 17  3 22 26 23                   0.002748140
   4706675.253 5   3655421.482 5  25449847.519        4002.951
 -13683995.583 8 -11737309.909 9  21378183.949          27.126
 -15835350.466 8 -11450729.919 9  21419405.155          54.067
  -7022941.594 6  -5496027.763 6  23899954.805        -216.396
  -6306587.304 6  -4928487.947 6  23387467.820        -287.700
 -13632066.668 7  -9431180.717 9  22215620.537       -1704.405
 93  5 10  4 54 30.0020000  0  6 20 17  3 22 26 23                   0.002756330
   4826729.751 5   3748970.272 5  25472692.679        4000.679
 -13683067.183 8 -11736586.479 9  21378360.680          34.792
 -15833531.377 8 -11449312.442 9  21419751.303          66.975
  -7029170.942 6  -5500881.798 6  23898768.855        -199.020
  -6314943.014 6  -4934998.882 6  23385878.070        -269.481
 -13683006.011 7  -9470873.691 9  22205927.157       -1691.459
 93  5 10  4 55  0.0020000  0  6 20 17  3 22 26 23                   0.002764520
   4946712.135 5   3842462.911 5  25495524.108        3998.381
 -13681900.810 8 -11735677.597 9  21378582.745          43.172
 -15831326.579 8 -11447594.414 9  21420170.734          79.942
  -7034884.841 6  -5505334.163 6  23897681.990        -181.639
  -6322765.026 6  -4941093.943 6  23384389.642        -252.009
 -13733557.245 7  -9510264.236 9  22196307.516       -1678.341
 93  5 10  4 55 30.0020000  0  6 20 17  3 22 26 23                   0.002772700
   5066622.140 5   3935899.119 5  25518342.451        3995.722
 -13680480.294 8 -11734570.691 9  21378852.925          51.529
 -15828731.905 8 -11445572.582 9  21420664.664          92.803
  -7040080.810 6  -5509382.959 6  23896693.519        -164.690
  -6330075.809 6  -4946790.646 6  23382997.975        -235.383
 -13783710.388 7  -9549344.573 9  22186763.672       -1665.210
 93  5 10  4 56  0.0020000  0  6 20 17  3 22 26 23                   0.002780860
   5186454.928 5   4029275.129 5  25541146.470        3993.181
 -13678806.658 8 -11733266.538 9  21379171.397          60.000
 -15825747.569 8 -11443247.121 9  21421232.690         105.869
  -7044762.830 6  -5513031.253 6  23895802.063        -147.401
  -6336879.988 6  -4952092.601 6  23381703.204        -218.271
 -13833469.658 7  -9588117.997 9  22177294.938       -1651.964
 93  5 10  4 56 30.0020000  0  7 20 17  3 22 26 23 21                0.002789000
   5306211.558 5   4122591.869 5  25563935.909        3990.574
 -13676873.956 8 -11731760.530 9  21379538.934          68.799
 -15822368.436 8 -11440614.020 9  21421875.525         119.137
  -7048916.237 6  -5516267.663 6  23895011.748        -129.422
  -6343169.776 6  -4956993.725 6  23380506.331        -201.169
 -13882820.265 7  -9626572.990 9  22167903.490       -1638.219
   -222284.63915   -169055.74211  25049274.998       -2906.436
 93  5 10  4 57  0.0020000  0  7 20 17  3 22 26 23 21                0.002797130
   5425891.054 5   4215848.404 5  25586710.418        3987.940
 -13674678.718 8 -11730049.941 9  21379956.733          77.316
 -15818590.680 8 -11437670.293 9  21422594.398         132.395
  -7052521.454 6  -5519076.903 6  23894325.352        -110.941
  -6348956.261 6  -4961502.662 6  23379404.951        -184.586
 -13931767.455 7  -9664713.619 9  22158589.026       -1625.039
   -309396.091 5   -236934.769 3  25032697.985       -2900.798
 93  5 10  4 57 30.0020000  0  7 20 17  3 22 26 23 21                0.002805270
   5545487.321 5   4309040.132 5  25609468.518        3985.127
 -13672239.091 8 -11728148.920 9  21380420.972          85.245
 -15814416.266 8 -11434417.502 9  21423388.646         145.654
  -7055575.889 6  -5521456.967 6  23893744.225         -92.664
  -6354247.404 6  -4965625.617 6  23378397.819        -168.022
 -13980329.786 7  -9702554.366 9  22149348.205       -1612.442
   -396330.329 5   -304675.709 4  25016153.698       -2894.684
 93  5 10  4 58  0.0020000  0  6 17  3 22 26 23 21                   0.002813360
 -13669566.512 8 -11726066.379 9  21380929.459          93.142
 -15809843.571 8 -11430854.346 9  21424258.776         159.142
  -7058082.991 6  -5523410.510 6  23893267.308         -74.328
  -6359038.317 6  -4969358.776 6  23377486.681        -151.229
 -14028511.396 7  -9740098.447 9  22140179.633       -1599.483
   -483075.154 5   -372269.057 5  24999647.342       -2888.210
 93  5 10  4 58 30.0020000  0  6 17  3 22 26 23 21                   0.002821520
 -13666655.351 8 -11723797.924 9  21381483.318         100.852
 -15804867.033 8 -11426976.523 9  21425205.788         172.403
  -7060044.147 6  -5524938.680 6  23892894.393         -56.563
  -6363326.683 6  -4972700.377 6  23376670.493        -134.749
 -14076306.442 7  -9777341.314 9  22131084.641       -1587.012
   -569631.666 5   -439715.607 5  24983176.836       -2882.491
 93  5 10  4 59  0.0020000  0  6 17  3 22 26 23 21                   0.002829670
 -13663517.694 8 -11721352.981 9  21382080.463         108.214
 -15799488.958 8 -11422785.807 9  21426229.271         185.771
  -7061477.357 6  -5526055.453 6  23892621.412         -39.272
  -6367123.327 6  -4975658.789 6  23375947.788        -118.445
 -14123728.784 7  -9814293.759 9  22122060.276       -1574.461
   -656015.287 5   -507027.497 5  24966738.672       -2876.700
 93  5 10  4 59 30.0020000  0  6 17  3 22 26 23 21                   0.002837810
 -13660150.521 8 -11718729.193 9  21382720.951         116.059
 -15793704.750 8 -11418278.627 9  21427330.047         199.348
  -7062392.543 6  -5526768.559 6  23892447.555         -22.016
  -6370411.586 6  -4978221.075 6  23375322.239        -100.918
 -14170760.010 7  -9850941.436 9  22113110.592       -1561.054
   -742238.297 5   -574214.229 5  24950330.824       -2871.965
 93  5 10  5  0  0.0020000  0  6 17  3 22 26 23 21                   0.002845940
 -13656550.857 8 -11715924.240 9  21383405.954         123.867
 -15787517.288 8 -11413457.213 9  21428507.552         212.948
  -7062795.370 6  -5527082.435 6  23892370.744          -4.733
  -6373167.277 6  -4980368.338 6  23374798.244         -82.777
 -14217380.327 7  -9887268.936 9  22104238.786       -1547.001
   -828329.701 5   -641298.354 5  24933948.181       -2867.558
 93  5 10  5  0 30.0020000  0  6 17  3 22 26 23 21                   0.002854050
 -13652720.721 8 -11712939.709 9  21384134.792         131.288
 -15780919.266 8 -11408315.893 9  21429763.373         226.529
  -7062674.974 6  -5526988.609 6  23892393.831          12.592
  -6375378.116 6  -4982091.066 6  23374377.035         -64.767
 -14263579.897 7  -9923268.577 9  22095447.369       -1533.132
   -914286.934 5   -708278.007 5  24917591.107       -2863.088
 93  5 10  5  1  0.0020000  0  6 17  3 22 26 23 21                   0.002862160
 -13648667.355 8 -11709781.230 9  21384905.926         138.830
 -15773910.907 8 -11402854.825 9  21431097.260         240.342
  -7062030.529 6  -5526486.411 6  23892516.404          30.376
  -6377039.571 6  -4983385.707 6  23374061.233         -45.969
 -14309358.151 7  -9958939.915 9  22086736.430       -1518.905
  -1000100.382 5   -775145.572 5  24901261.191       -2857.971
 93  5 10  5  1 30.0020000  0  6 17  3 22 26 23 21                   0.002870280
 -13644392.685 8 -11706450.292 9  21385719.353         146.093
 -15766492.887 8 -11397074.548 9  21432508.847         253.879
  -7060851.780 6  -5525567.875 6  23892740.440          48.333
  -6378138.372 6  -4984241.881 6  23373852.160         -27.413
 -14354719.023 7  -9994286.023 9  22078104.446       -1505.221
  -1085769.709 5   -841900.834 5  24884958.935       -2853.281
 93  5 10  5  2  0.0020000  0  6 17  3 22 26 23 21                   0.002878420
 -13639900.062 8 -11702949.542 9  21386574.442         153.444
 -15758663.665 8 -11390973.860 9  21433998.603         267.890
  -7059122.274 6  -5524220.211 6  23893069.672          67.050
  -6378688.948 6  -4984670.916 6  23373747.483          -9.341
 -14399669.286 7 -10029312.179 9  22069550.528       -1491.560
  -1171279.346 5   -908531.687 5  24868687.627       -2847.356
 93  5 10  5  2 30.0020000  0  6 17  3 22 26 23 21                   0.002886590
 -13635185.241 8 -11699275.644 9  21387471.681         161.089
 -15750417.481 8 -11384548.246 9  21435567.753         281.686
  -7056829.236 6  -5522433.404 6  23893505.657          85.708
  -6378705.765 6  -4984684.025 6  23373743.698           8.302
 -14444222.891 7 -10064029.251 9  22061071.788       -1478.541
  -1256612.737 5   -975025.150 5  24852449.758       -2841.526
 93  5 10  5  3  0.0020000  0  6 17  3 22 26 23 21                   0.002894770
 -13630237.097 8 -11695419.941 9  21388413.329         168.723
 -15741755.216 8 -11377798.430 9  21437216.215         295.499
  -7053978.366 6  -5520211.935 6  23894048.415         104.431
  -6378187.750 6  -4984280.364 6  23373842.706          26.162
 -14488376.766 7 -10098434.847 9  22052669.605       -1465.021
  -1341761.769 5  -1041374.986 5  24836244.667       -2835.336
 93  5 10  5  3 30.0020000  0  6 17  3 22 26 23 21                   0.002902980
 -13625058.661 8 -11691384.776 9  21389398.818         176.396
 -15732676.335 8 -11370723.968 9  21438943.819         309.440
  -7050560.357 6  -5517548.530 6  23894698.876         123.218
  -6377135.575 6  -4983460.477 6  23374042.704          43.915
 -14532118.340 7 -10132519.165 9  22044345.968       -1451.057
  -1426728.255 5  -1107582.601 5  24820076.218       -2829.130
 93  5 10  5  4  0.0020000  0  6 17  3 22 26 23 21                   0.002911200
 -13619645.147 8 -11687166.444 9  21390429.133         184.291
 -15723177.771 8 -11363322.487 9  21440751.527         323.510
  -7046590.002 6  -5514454.719 6  23895454.082         141.159
  -6375547.440 6  -4982222.980 6  23374345.097          61.857
 -14575432.257 7 -10166270.252 9  22036103.194       -1436.641
  -1511505.323 5  -1173642.568 5  24803943.837       -2822.798
 93  5 10  5  4 30.0020000  0  6 17  3 22 26 23 21                   0.002919410
 -13613998.209 8 -11682766.223 9  21391503.639         192.242
 -15713259.415 8 -11355593.906 9  21442638.980         337.476
  -7042101.139 6  -5510956.911 6  23896308.680         158.038
  -6373422.898 6  -4980567.485 6  23374749.380          79.809
 -14618313.591 7 -10199684.256 9  22027943.381       -1422.055
  -1596096.472 5  -1239557.713 5  24787847.222       -2816.634
 93  5 10  5  5  0.0020000  0  6 17  3 22 26 23 21                   0.002927600
 -13608112.392 8 -11678179.865 9  21392623.635         200.181
 -15702918.908 8 -11347536.354 9  21444606.697         351.682
  -7037103.959 6  -5507062.972 6  23897259.352         175.204
  -6370758.236 6  -4978491.112 6  23375256.424          97.771
 -14660757.405 7 -10232757.325 9  22019866.753       -1407.680
  -1680504.140 5  -1305329.884 5  24771784.503       -2810.666
 93  5 10  5  5 30.0020000  0  6 17  3 22 26 23 21                   0.002935770
 -13601988.105 8 -11673407.689 9  21393789.268         208.476
 -15692154.663 8 -11339148.630 9  21446654.820         365.849
  -7031598.259 6  -5502772.802 6  23898307.457         191.843
  -6367562.128 6  -4976000.638 6  23375865.005         115.404
 -14702787.159 7 -10265507.765 9  22011869.061       -1394.247
  -1764747.211 5  -1370973.742 5  24755753.186       -2805.275
 93  5 10  5  6  0.0020000  0  6 17  3 22 26 23 21                   0.002943920
 -13595604.971 8 -11668433.794 9  21395003.937         217.066
 -15680962.830 8 -11330427.712 9  21448784.337         380.022
  -7025596.852 6  -5498096.357 6  23899449.734         208.336
  -6363843.583 6  -4973103.069 6  23376572.155         132.476
 -14744421.581 7 -10297950.136 9  22003946.255       -1381.545
  -1848823.336 5  -1436487.534 5  24739754.335       -2799.889
 93  5 10  5  6 30.0020000  0  6 17  3 22 26 23 21                   0.002952050
 -13588957.876 8 -11663254.251 9  21396268.759         226.038
 -15669343.678 8 -11321373.838 9  21450995.266         394.226
  -7019082.836 6  -5493020.455 6  23900689.058         225.995
  -6359608.628 6  -4969803.117 6  23377377.808         149.824
 -14785681.997 7 -10330101.118 9  21996094.480       -1369.307
  -1932735.416 5  -1501873.549 5  24723785.959       -2794.547
 93  5 10  5  7  0.0020000  0  6 17  3 22 26 23 21                   0.002960180
 -13582048.273 8 -11657870.139 9  21397583.611         234.402
 -15657296.996 8 -11311986.803 9  21453287.667         408.548
  -7012032.310 6  -5487526.599 6  23902030.138         243.977
  -6354846.706 6  -4966092.526 6  23378284.262         167.536
 -14826578.772 7 -10361968.717 9  21988312.190       -1357.192
  -2016495.977 5  -1567141.452 5  24707846.592       -2789.439
 93  5 10  5  7 30.0020000  0  6 17  3 22 26 23 21                   0.002968320
 -13574891.185 8 -11652293.188 9  21398945.310         242.616
 -15644820.885 8 -11302265.167 9  21455661.966         422.986
  -7004443.599 6  -5481613.293 6  23903474.638         261.968
  -6349549.232 6  -4961964.643 6  23379292.034         185.749
 -14867103.668 7 -10393546.535 9  21980600.497       -1344.263
  -2100095.394 5  -1632283.805 5  24691938.394       -2783.794
 93  5 10  5  8  0.0020000  0  6 17  3 22 26 23 21                   0.002976480
 -13567506.448 8 -11646538.823 9  21400350.735         249.452
 -15631914.691 8 -11292208.392 9  21458117.893         437.143
  -6996316.221 6  -5475280.271 6  23905020.910         279.979
  -6343702.083 6  -4957408.433 6  23380404.455         204.095
 -14907232.255 7 -10424815.539 9  21972964.234       -1330.847
  -2183529.072 5  -1697296.981 5  24676061.955       -2778.549
 93  5 10  5  8 30.0020000  0  6 17  3 22 26 23 21                   0.002984650
 -13559924.730 8 -11640630.995 9  21401793.365         255.959
 -15618580.630 8 -11281818.212 9  21460655.188         451.551
  -6987641.791 6  -5468520.970 6  23906671.684         298.272
  -6337298.186 6  -4952418.374 6  23381623.599         222.717
 -14946940.752 7 -10455757.209 9  21965407.943       -1316.308
  -2266808.868 5  -1762190.309 5  24660213.850       -2773.428
 93  5 10  5  9  0.0020000  0  6 17  3 22 26 23 21                   0.002992820
 -13552149.819 8 -11634572.621 9  21403272.941         262.462
 -15604812.773 8 -11271090.015 9  21463275.073         466.146
  -6978422.788 6  -5461337.327 6  23908426.222         316.440
  -6330341.361 6  -4946997.476 6  23382947.341         240.919
 -14986202.728 7 -10486350.938 9  21957936.337       -1301.149
  -2349920.959 5  -1826952.935 5  24644398.628       -2767.228
 93  5 10  5  9 30.0030000  0  6 17  3 22 26 23 21                   0.003000980
 -13544170.927 8 -11628355.283 9  21404791.261         269.537
 -15590606.868 8 -11260020.473 9  21465978.424         480.680
  -6968654.998 6  -5453726.050 6  23910284.625         334.650
  -6322845.413 6  -4941156.482 6  23384374.245         258.547
 -15025010.368 7 -10516590.637 9  21950551.868       -1285.989
  -2432846.103 5  -1891569.889 5  24628618.763       -2761.094
 93  5 10  5 10  0.0030000  0  6 17  3 22 26 23 21                   0.003009120
 -13535972.232 8 -11621966.688 9  21406351.411         277.381
 -15575964.805 8 -11248611.076 9  21468764.864         495.378
  -6958341.004 6  -5445689.153 6  23912247.304         353.095
  -6314830.180 6  -4934910.862 6  23385899.228         275.899
 -15063364.213 7 -10546476.725 9  21943253.271       -1270.934
  -2515586.251 5  -1956042.670 5  24612873.703       -2754.581
 93  5 10  5 10 30.0030000  0  6 17  3 22 26 23 21                   0.003017240
 -13527529.356 8 -11615387.810 9  21407958.052         285.762
 -15560884.580 8 -11236860.245 9  21471634.585         509.886
  -6947484.879 6  -5437229.846 6  23914313.335         370.732
  -6306307.140 6  -4928269.521 6  23387521.257         292.580
 -15101283.988 7 -10576024.579 9  21936037.286       -1257.120
  -2598127.450 5  -2020360.454 5  24597166.308       -2747.959
 93  5 10  5 11  0.0030000  0  6 17  3 22 26 23 21                   0.003025340
 -13518829.473 8 -11608608.664 9  21409613.504         294.296
 -15545365.620 8 -11224767.545 9  21474587.783         524.605
  -6936099.723 6  -5428358.286 6  23916479.375         388.238
  -6297273.044 6  -4921229.985 6  23389240.964         309.873
 -15138794.634 7 -10605253.628 9  21928899.318       -1243.732
  -2680463.039 5  -2084518.013 5  24581498.402       -2741.162
 93  5 10  5 11 30.0030000  0  6 17  3 22 26 23 21                   0.003033440
 -13509867.761 8 -11601625.495 9  21411318.924         302.992
 -15529400.906 8 -11212327.504 9  21477625.938         539.500
  -6924195.038 6  -5419081.904 6  23918744.716         405.294
  -6287702.494 6  -4913772.388 6  23391062.293         328.167
 -15175905.102 7 -10634170.835 9  21921837.178       -1230.317
  -2762607.967 5  -2148526.970 5  24565866.591       -2735.317
 93  5 10  5 12  0.0030000  0  6 17  3 22 26 23 21                   0.003041520
 -13500658.920 8 -11594449.759 9  21413071.560         310.871
 -15512993.576 8 -11199542.564 9  21480748.349         554.177
  -6911788.342 6  -5409414.332 6  23921105.325         421.925
  -6277578.209 6  -4905883.355 6  23392988.519         346.992
 -15212622.412 7 -10662781.715 9  21914850.204       -1217.421
  -2844583.857 5  -2212404.261 5  24550267.159       -2729.568
 93  5 10  5 12 30.0030000  0  6 17  3 22 26 23 21                   0.003049620
 -13491219.642 8 -11587094.462 9  21414867.665         318.182
 -15496140.878 8 -11186410.592 9  21483955.197         568.953
  -6898883.959 6  -5399358.967 6  23923561.375         438.229
  -6266880.502 6  -4897547.470 6  23395024.010         366.152
 -15248946.283 7 -10691086.007 9  21907937.941       -1204.127
  -2926387.547 5  -2276147.358 5  24534700.348       -2724.256
 93  5 10  5 13  0.0030000  0  6 17  3 22 26 23 21                   0.003057710
 -13481568.668 8 -11579574.212 9  21416704.023         325.204
 -15478844.996 8 -11172933.279 9  21487246.361         583.803
  -6885484.246 6  -5388917.621 6  23926110.688         455.076
  -6255611.064 6  -4888766.114 6  23397168.005         385.067
 -15284861.821 7 -10719072.122 9  21901103.650       -1190.328
  -3008031.584 5  -2339766.036 5  24519164.146       -2718.810
 93  5 10  5 13 30.0030000  0  6 17  3 22 26 23 21                   0.003065800
 -13471698.011 8 -11571882.790 9  21418582.212         332.833
 -15461102.359 8 -11159107.850 9  21490622.591         598.851
  -6871576.419 6  -5378080.351 6  23928757.984         472.361
  -6243775.216 6  -4879543.385 6  23399420.800         404.010
 -15320361.195 7 -10746733.946 9  21894348.539       -1176.155
  -3089511.246 5  -2403256.662 5  24503658.758       -2712.945
 93  5 10  5 14  0.0030000  0  6 17  3 22 26 23 21                   0.003073900
 -13461607.419 8 -11564019.964 9  21420502.466         339.932
 -15442911.753 8 -11144933.345 9  21494084.056         613.654
  -6857143.591 6  -5366833.995 6  23931504.084         489.944
  -6231377.844 6  -4869883.113 6  23401780.524         422.530
 -15355439.060 7 -10774067.339 9  21887673.040       -1162.248
  -3170801.158 5  -2466599.381 5  24488189.720       -2706.438
 93  5 10  5 14 30.0030000  0  6 17  3 22 26 23 21                   0.003082010
 -13451288.734 8 -11555979.434 9  21422465.935         347.797
 -15424269.501 8 -11130406.912 9  21497631.428         628.694
  -6842172.429 6  -5355168.151 6  23934353.183         507.915
  -6218420.931 6  -4859786.808 6  23404246.127         440.938
 -15390084.919 7 -10801064.071 9  21881080.403       -1147.753
  -3251892.766 5  -2529787.628 5  24472758.853       -2699.903
 93  5 10  5 15  0.0030000  0  6 17  3 22 26 23 21                   0.003090130
 -13440727.602 8 -11547749.988 9  21424475.596         356.043
 -15405174.304 8 -11115527.543 9  21501265.314         643.847
  -6826652.814 6  -5343074.917 6  23937306.430         526.413
  -6204912.113 6  -4849260.476 6  23406816.780         459.378
 -15424300.340 7 -10827725.422 9  21874569.352       -1133.602
  -3332780.519 5  -2592816.993 5  24457366.020       -2692.980
 93  5 10  5 15 30.0030000  0  6 17  3 22 26 23 21                   0.003098260
 -13429922.234 8 -11539330.207 9  21426531.780         364.084
 -15385626.270 8 -11100295.315 9  21504985.279         659.001
  -6810584.857 6  -5330554.444 6  23940364.622         544.735
  -6190843.615 6  -4838298.022 6  23409494.024         478.388
 -15458093.220 7 -10854057.516 9  21868138.713       -1119.400
  -3413467.663 5  -2655690.007 5  24442011.517       -2686.138
 93  5 10  5 16  0.0030000  0  6 17  3 22 26 23 21                   0.003106400
 -13418892.433 8 -11530735.562 9  21428630.617         371.347
 -15365628.669 8 -11084712.761 9  21508790.744         674.036
  -6793974.054 6  -5317610.958 6  23943525.365         562.645
  -6176215.879 6  -4826899.787 6  23412276.600         496.710
 -15491462.027 7 -10880059.155 9  21861788.838       -1105.211
  -3493954.359 5  -2718406.897 5  24426694.697       -2679.754
 93  5 10  5 16 30.0030000  0  6 17  3 22 26 23 21                   0.003114550
 -13407636.639 8 -11521964.812 9  21430772.354         379.113
 -15345175.715 8 -11068775.394 9  21512682.708         689.278
  -6776826.025 6  -5304248.834 6  23946788.255         580.498
  -6161049.550 6  -4815081.879 6  23415162.998         514.314
 -15524402.989 7 -10905727.412 9  21855520.338       -1091.048
  -3574246.595 6  -2780972.209 5  24411416.158       -2672.933
 93  5 10  5 17  0.0030000  0  6 17  3 22 26 23 21                   0.003122680
 -13396153.137 8 -11513016.628 9  21432957.682         386.289
 -15324263.886 8 -11052480.456 9  21516662.055         704.443
  -6759148.212 6  -5290473.937 6  23950152.174         597.892
  -6145359.413 6  -4802855.820 6  23418149.101         531.553
 -15556930.861 7 -10931073.780 9  21849330.874       -1077.600
  -3654333.511 5  -2843377.545 5  24396176.580       -2666.580
 93  5 10  5 17 30.0030000  0  6 17  3 22 26 23 21                   0.003130790
 -13384455.272 8 -11503901.423 9  21435183.751         393.734
 -15302899.936 8 -11035833.242 9  21520727.370         719.744
  -6740957.280 6  -5276299.179 6  23953613.667         615.022
  -6129159.056 6  -4790232.172 6  23421231.629         548.511
 -15589056.081 7 -10956106.408 9  21843217.623       -1064.001
  -3734233.510 5  -2905637.267 5  24380972.074       -2659.818
 93  5 10  5 18  0.0030000  0  6 17  3 22 26 23 21                   0.003138870
 -13372531.741 8 -11494610.346 9  21437452.533         401.096
 -15281076.222 8 -11018827.748 9  21524880.583         734.795
  -6722260.293 6  -5261730.100 6  23957171.373         631.179
  -6112455.334 6  -4777216.300 6  23424410.646         564.869
 -15620774.729 7 -10980822.221 9  21837181.814       -1050.675
  -3813927.283 6  -2967736.262 5  24365806.891       -2653.214
 93  5 10  5 18 30.0030000  0  6 17  3 22 26 23 21                   0.003146910
 -13360369.564 8 -11485133.334 9  21439766.797         409.468
 -15258793.119 8 -11001464.290 9  21529120.981         750.332
  -6703076.688 6  -5246781.833 6  23960821.797         647.558
  -6095252.394 6  -4763811.399 6  23427683.835         581.947
 -15652079.770 7 -11005215.734 9  21831224.540       -1036.555
  -3893413.199 5  -3029673.260 5  24350680.626       -2645.980
 93  5 10  5 19  0.0030000  0  6 17  3 22 26 23 21                   0.003154920
 -13347969.480 8 -11475470.931 9  21442126.464         417.155
 -15236049.746 8 -10983742.183 9  21533448.903         765.691
  -6683406.795 6  -5231454.648 6  23964565.216         663.877
  -6077520.990 6  -4749994.746 6  23431057.804         600.133
 -15682966.352 7 -11029283.193 9  21825346.858       -1022.359
  -3972685.178 6  -3091443.614 5  24335595.420       -2638.939
 93  5 10  5 19 30.0030000  0  6 17  3 22 26 23 21                   0.003162920
 -13335339.102 8 -11465629.080 9  21444529.810         424.817
 -15212845.207 8 -10965660.736 9  21537864.417         780.912
  -6663243.512 6  -5215743.020 6  23968402.340         680.312
  -6059241.092 6  -4735750.684 6  23434536.949         618.572
 -15713425.017 7 -11053017.184 9  21819550.829       -1008.223
  -4051739.979 6  -3153044.711 5  24320551.782       -2631.281
 93  5 10  5 20  0.0030000  0  6 17  3 22 26 23 21                   0.003170920
 -13322478.049 8 -11455607.478 9  21446977.297         432.390
 -15189176.442 7 -10947217.537 9  21542368.309         796.637
  -6642577.042 6  -5199639.280 6  23972334.849         697.393
  -6040392.616 6  -4721063.587 6  23438123.296         637.858
 -15743450.912 7 -11076413.958 9  21813837.235        -993.677
  -4130561.459 6  -3214463.999 5  24305552.755       -2623.712
 93  5 10  5 20 30.0030000  0  6 17  3 22 26 23 21                   0.003178950
 -13309396.022 8 -11445413.685 1  21449466.871         439.711
 -15165042.064 8 -10928411.533 9  21546961.079         812.148
  -6621390.561 6  -5183130.317 6  23976366.429         715.227
  -6020971.290 6  -4705930.087 6  23441819.236         657.018
 -15773054.411 7 -11099481.614 9  21808203.804        -980.109
  -4209166.683 6  -3275714.765 5  24290594.720       -2616.691
 93  5 10  5 21  0.0030000  0  6 17  3 22 26 23 21                   0.003187030
 -13296096.399 8 -11435050.349 9  21451997.771         447.051
 -15140441.236 8 -10909242.061 9  21551642.498         827.805
  -6599660.309 6  -5166197.672 6  23980501.822         733.499
  -6000968.993 6  -4690343.887 6  23445625.680         676.439
 -15802260.384 8 -11122239.496 9  21802645.663        -966.825
  -4287565.575 6  -3336804.755 5  24275676.469       -2609.804
 93  5 10  5 21 30.0030000  0  6 17  3 22 26 23 21                   0.003195130
 -13282569.499 8 -11424509.897 9  21454571.998         454.854
 -15115371.600 7 -10889707.281 9  21556413.036         843.376
  -6577385.803 6  -5148840.908 6  23984740.451         751.449
  -5980398.510 6  -4674314.946 6  23449540.395         694.975
 -15831067.641 7 -11144686.685 9  21797164.026        -953.510
  -4365760.791 6  -3397736.042 5  24260796.379       -2603.094
 93  5 10  5 22  0.0030000  0  6 17  3 22 26 23 21                   0.003203250
 -13268815.225 8 -11413792.286 9  21457189.515         462.078
 -15089835.445 8 -10869808.993 9  21561272.490         858.891
  -6554580.344 6  -5131070.418 6  23989080.418         768.944
  -5959274.573 6  -4657854.753 6  23453559.939         713.197
 -15859473.322 7 -11166820.966 9  21791758.799        -940.258
  -4443761.923 6  -3458516.115 5  24245953.096       -2596.907
 93  5 10  5 22 30.0030000  0  6 17  3 22 26 23 21                   0.003211370
 -13254832.255 8 -11402896.461 9  21459850.625         470.130
 -15063828.719 7 -10849544.010 9  21566221.386         874.633
  -6531246.176 6  -5112887.956 6  23993520.812         786.586
  -5937605.599 6  -4640969.845 6  23457683.463         731.496
 -15887482.137 7 -11188645.998 9  21786428.978        -926.826
  -4521564.952 6  -3519141.799 5  24231147.106       -2589.989
 93  5 10  5 23  0.0030000  0  6 17  3 22 26 23 21                   0.003219500
 -13240613.205 8 -11391816.693 9  21462556.601         477.926
 -15037350.198 7 -10828911.395 9  21571259.988         890.476
  -6507396.687 6  -5094303.940 6  23998059.449         803.376
  -5915385.757 6  -4623655.711 6  23461911.727         749.772
 -15915074.229 7 -11210146.314 9  21781178.214        -912.384
  -4599156.107 6  -3579602.383 5  24216382.585       -2582.674
 93  5 10  5 23 30.0030000  0  6 17  3 22 26 23 21                   0.003227610
 -13226162.305 8 -11380556.250 9  21465306.588         485.524
 -15010394.957 8 -10807907.318 9  21576389.527         906.394
  -6483053.072 6  -5075334.892 6  24002691.272         819.643
  -5892621.506 6  -4605917.354 6  23466243.459         768.007
 -15942227.632 7 -11231304.798 9  21776010.981        -897.851
  -4676527.334 6  -3639891.599 5  24201659.532       -2575.434
 93  5 10  5 24  0.0030000  0  6 17  3 22 26 23 21                   0.003235710
 -13211494.887 8 -11369127.079 9  21468097.716         492.491
 -14982965.401 7 -10786533.655 9  21581609.121         922.149
  -6458226.487 6  -5055989.518 6  24007415.734         835.573
  -5869306.504 6  -4587749.830 6  23470680.376         786.415
 -15968958.708 7 -11252134.186 9  21770924.144        -884.144
  -4753689.253 6  -3700017.728 5  24186975.939       -2568.604
 93  5 10  5 24 30.0030000  0  7 17 28  3 22 26 23 21                0.003243710
 -13196609.606 8 -11357528.159 9  21470930.344         499.894
   -300432.71115   -247278.11415  25653095.030       -3176.372
 -14955060.564 7 -10764789.620 9  21586919.098         937.982
  -6432927.992 6  -5036276.411 6  24012230.059         851.013
  -5845440.104 6  -4569152.638 6  23475221.682         804.807
 -15995271.879 7 -11272637.931 9  21765916.880        -869.926
  -4830645.738 6  -3759983.787 5  24172331.386       -2561.872
 93  5 10  5 25  0.0030000  0  7 17 28  3 22 26 23 21                0.003251790
 -13181506.579 8 -11345759.563 9  21473804.403         506.935
   -395691.488 5   -321505.664 5  25634968.011       -3174.316
 -14926677.075 7 -10742672.614 9  21592320.306         953.959
  -6407161.032 6  -5016198.262 6  24017132.932         866.820
  -5821012.501 6  -4550118.168 6  23479870.124         823.486
 -16021150.349 7 -11292802.962 9  21760992.130        -855.496
  -4907402.311 6  -3819794.031 5  24157725.037       -2555.274
 93  5 10  5 25 30.0030000  0  7 17 28  3 22 26 23 21                0.003259870
 -13166189.721 8 -11333824.346 9  21476719.067         514.086
   -490891.251 5   -395687.205 5  25616852.271       -3172.494
 -14897816.017 7 -10720183.491 9  21597812.485         969.801
  -6380917.767 6  -4995748.979 6  24022126.849         882.869
  -5796024.976 6  -4530647.395 6  23484624.932         842.174
 -16046607.900 7 -11312640.003 9  21756147.641        -841.899
  -4983963.257 6  -3879451.863 5  24143155.770       -2548.816
 93  5 10  5 26  0.0030000  0  7 17 28  3 22 26 23 21                0.003267950
 -13150647.610 8 -11321713.618 9  21479676.571         522.010
   -586032.988 5   -469823.575 5  25598747.389       -3170.539
 -14868474.093 7 -10697319.670 9  21603395.908         985.983
  -6354176.561 6  -4974911.684 6  24027215.834         899.790
  -5770476.248 6  -4510739.302 6  23489487.125         860.916
 -16071656.442 7 -11332158.329 9  21751381.042        -827.892
  -5060315.503 6  -3938947.064 5  24128626.157       -2541.463
 93  5 10  5 26 30.0030000  0  7 17 28  3 22 26 23 21                0.003276030
 -13134868.179 8 -11309417.947 9  21482679.363         530.189
   -681127.235 5   -543922.908 5  25580651.192       -3168.926
 -14838654.738 7 -10674083.810 9  21609070.560        1001.984
  -6326930.672 6  -4953681.127 6  24032400.465         917.100
  -5744376.695 6  -4490402.015 6  23494453.370         879.314
 -16096279.931 7 -11351345.445 9  21746695.435        -813.566
  -5136447.633 6  -3998270.772 5  24114139.037       -2533.823
 93  5 10  5 27  0.0030000  0  7 17 28  3 22 26 23 21                0.003284110
 -13118843.110 8 -11296930.875 9  21485728.880         538.376
   -776176.131 5   -617986.920 5  25562563.868       -3167.589
 -14808353.399 7 -10650472.380 9  21614836.720        1018.022
  -6299154.652 6  -4932037.495 6  24037685.525         934.779
  -5717726.277 6  -4469635.478 6  23499525.136         897.235
 -16120476.214 7 -11370199.678 9  21742090.983        -799.472
  -5212343.889 6  -4057410.657 5  24099696.679       -2525.842
 93  5 10  5 27 30.0030000  0  7 17 28  3 22 26 23 21                0.003292160
 -13102563.250 8 -11284245.280 9  21488826.784         546.989
   -871186.872 5   -692021.182 5  25544483.955       -3166.330
 -14777569.330 7 -10626484.794 9  21620694.555        1034.049
  -6270852.488 6  -4909983.861 6  24043071.269         952.175
  -5690548.715 6  -4448458.177 6  23504696.888         914.620
 -16144250.386 7 -11388724.990 9  21737566.798        -785.373
  -5288000.674 6  -4116363.953 5  24085299.404       -2517.785
 93  5 10  5 28  0.0030000  0  7 17 28  3 22 26 23 21                0.003300180
 -13086028.230 8 -11271360.845 9  21491972.967         555.382
   -966164.481 5   -766029.667 5  25526410.212       -3165.377
 -14746304.898 7 -10602122.906 9  21626643.984        1050.033
  -6242032.873 6  -4887527.043 6  24048555.782         969.042
  -5662852.327 6  -4426876.595 6  23509966.987         931.994
 -16167597.659 7 -11406917.663 9  21733123.901        -770.863
  -5363416.522 6  -4175129.542 5  24070947.780       -2510.052
 93  5 10  5 28 30.0030000  0  7 17 28  3 22 26 23 21                0.003308180
 -13069245.298 8 -11258283.229 9  21495166.577         563.486
  -1061106.451 5   -840010.374 5  25508343.832       -3163.881
 -14714556.682 7 -10577384.043 9  21632685.302        1066.361
  -6212705.124 6  -4864674.256 6  24054136.717         986.248
  -5634626.021 6  -4404882.079 6  23515338.499         949.845
 -16190501.799 7 -11424765.021 9  21728765.469        -756.153
  -5438601.643 6  -4233715.269 5  24056640.793       -2502.269
 93  5 10  5 29  0.0030000  0  7 17 28  3 22 26 23 21                0.003316160
 -13052230.958 8 -11245025.309 9  21498404.435         570.931
  -1156002.741 5   -913955.459 5  25490285.442       -3162.321
 -14682318.920 7 -10552263.719 9  21638819.786        1082.679
  -6182868.870 6  -4841425.238 6  24059814.467        1002.846
  -5605863.895 6  -4382470.063 6  23520811.731         967.662
 -16212966.322 7 -11442269.842 9  21724490.637        -741.324
  -5513556.104 6  -4292121.328 5  24042377.388       -2494.748
 93  5 10  5 29 30.0030000  0  7 17 28  3 22 26 23 21                0.003324120
 -13034993.789 8 -11231593.750 9  21501684.824         578.064
  -1250839.880 5   -987854.467 5  25472238.122       -3160.145
 -14649589.787 7 -10526760.505 9  21645047.972        1099.032
  -6152535.163 6  -4817788.589 6  24065586.992        1019.298
  -5576558.692 6  -4359634.854 6  23526388.511         986.173
 -16234983.968 7 -11459426.436 9  21720300.899        -726.612
  -5588285.276 6  -4350351.793 5  24028156.811       -2487.292
 93  5 10  5 30  0.0030000  0  7 17 28  3 22 26 23 21                0.003332090
 -13017552.033 8 -11218002.758 9  21505003.906         584.842
  -1345609.677 5  -1061701.022 5  25454203.737       -3157.673
 -14616372.125 7 -10500876.602 9  21651369.200        1115.324
  -6121715.162 6  -4793773.002 6  24071452.570        1035.521
  -5546691.350 6  -4336361.610 6  23532072.434        1004.991
 -16256562.662 7 -11476240.965 9  21716194.921        -711.846
  -5662800.306 6  -4408415.427 5  24013976.847       -2480.340
 93  5 10  5 30 30.0030000  0  7 17 28  3 22 26 23 21                0.003340060
 -12999903.052 8 -11204250.312 9  21508362.479         591.698
  -1440297.170 5  -1135483.400 5  25436185.313       -3154.905
 -14582660.921 7 -10474608.134 9  21657784.129        1131.709
  -6090408.014 6  -4769377.840 6  24077410.198        1051.504
  -5516263.412 6  -4312651.550 6  23537862.577        1023.428
 -16277701.598 7 -11492712.858 9  21712172.346        -697.568
  -5737099.916 6  -4466311.143 6  23999837.730       -2472.898
 93  5 10  5 31  0.0030000  0  7 17 28  3 22 26 23 21                0.003348040
 -12982039.077 8 -11190330.336 9  21511761.767         599.260
  -1534892.697 5  -1209194.154 5  25418184.186       -3151.562
 -14548455.548 7 -10447954.597 9  21664293.374        1148.325
  -6058620.031 6  -4744608.021 6  24083459.356        1067.536
  -5485279.721 6  -4288508.440 6  23543758.268        1041.997
 -16298407.777 7 -11508847.526 9  21708231.894        -682.978
  -5811169.630 6  -4524027.777 6  23985742.465       -2465.264
 93  5 10  5 31 30.0030000  0  7 17 28  3 22 26 23 21                0.003356030
 -12963952.845 8 -11176237.165 9  21515203.475         606.355
  -1629392.144 5  -1282830.013 5  25400201.770       -3148.643
 -14513758.169 7 -10420917.692 9  21670895.861        1164.492
  -6026353.844 6  -4719465.533 6  24089598.645        1083.354
  -5453747.041 6  -4263937.520 6  23549758.991        1060.028
 -16318693.658 7 -11524654.688 9  21704371.856        -669.565
  -5885018.226 6  -4581572.101 6  23971689.813       -2457.936
 93  5 10  5 32  0.0030000  0  7 17 28  3 22 26 23 21                0.003364020
 -12945644.856 8 -11161971.198 9  21518687.553         614.122
  -1723809.580 5  -1356402.012 5  25382234.840       -3146.047
 -14478568.573 7 -10393497.232 9  21677592.126        1181.131
  -5993612.179 6  -4693952.561 6  24095829.546        1099.454
  -5421670.518 6  -4238942.843 6  23555862.438        1078.273
 -16338571.441 7 -11540143.853 9  21700589.005        -655.766
  -5958639.635 6  -4638939.396 6  23957680.582       -2450.103
 93  5 10  5 32 30.0030000  0  7 17 28  3 22 26 23 21                0.003372000
 -12927108.136 8 -11147527.002 9  21522214.651         621.649
  -1818158.749 5  -1429920.779 5  25364280.986       -3143.895
 -14442885.310 7 -10365692.104 9  21684382.524        1197.607
  -5960386.429 6  -4668062.374 6  24102152.098        1115.653
  -5389051.111 6  -4213525.157 6  23562069.600        1096.527
 -16358045.250 7 -11555318.240 9  21696883.090        -642.408
  -6032022.810 6  -4696121.044 6  23943716.342       -2442.071
 93  5 10  5 33  0.0030000  0  7 17 28  3 22 26 23 21                0.003380000
 -12908344.719 8 -11132906.146 9  21525784.829         629.115
  -1912445.210 5  -1503390.723 5  25346338.474       -3141.991
 -14406703.773 7 -10337498.709 9  21691267.918        1214.153
  -5926668.311 6  -4641788.537 6  24108568.505        1132.080
  -5355878.561 6  -4187676.414 6  23568382.295        1114.895
 -16377114.193 7 -11570177.146 9  21693254.272        -629.027
  -6105164.149 6  -4753114.243 6  23929797.415       -2434.208
 93  5 10  5 33 30.0030000  0  7 17 28  3 22 26 23 21                0.003388000
 -12889356.297 8 -11118109.978 9  21529397.970         636.849
  -2006673.870 5  -1576815.593 5  25328407.330       -3139.938
 -14370023.754 7 -10308916.871 9  21698247.575        1230.994
  -5892461.200 6  -4615133.666 6  24115077.800        1148.323
  -5322154.472 6  -4161397.930 6  23574799.743        1133.555
 -16395783.859 7 -11584724.909 9  21689701.451        -615.449
  -6178064.251 6  -4809919.497 6  23915924.719       -2425.554
 93  5 10  5 34  0.0030000  0  7 17 28  3 22 26 23 21                0.003396020
 -12870130.795 8 -11103129.067 9  21533056.654         644.939
  -2100847.808 5  -1650197.823 5  25310487.026       -3138.159
 -14332840.054 7 -10279942.580 9  21705323.708        1247.750
  -5857776.576 6  -4588106.680 6  24121678.108        1164.107
  -5287863.106 6  -4134677.390 6  23581325.487        1152.697
 -16414045.264 7 -11598954.555 9  21686226.279        -601.926
  -6250703.014 6  -4866521.072 6  23902102.448       -2416.910
 93  5 10  5 34 30.0030000  0  7 17 28  3 22 26 23 21                0.003404050
 -12850667.878 8 -11087963.169 9  21536760.540         652.541
  -2194962.309 5  -1723533.758 5  25292577.592       -3136.025
 -14295158.692 7 -10250580.474 9  21712494.101        1264.125
  -5822619.163 6  -4560711.342 6  24128368.268        1179.594
  -5253006.322 6  -4107516.277 6  23587958.583        1170.991
 -16431902.924 7 -11612869.598 9  21682828.300        -588.574
  -6323081.291 6  -4922919.690 6  23888329.503       -2408.229
 93  5 10  5 35  0.0030000  0  7 17 28  3 22 26 23 21                0.003412090
 -12830971.340 8 -11072615.206 9  21540508.696         660.577
  -2289005.786 5  -1796814.344 5  25274682.040       -3133.265
 -14256980.727 7 -10220831.417 8  21719759.025        1280.932
  -5786999.050 6  -4532955.432 6  24135146.765        1195.078
  -5217601.908 6  -4079928.432 6  23594696.142        1189.430
 -16449353.251 7 -11626467.244 9  21679507.780        -574.657
  -6395191.873 6  -4979109.727 6  23874607.224       -2399.105
 93  5 10  5 35 30.0030000  0  7 17 28  3 22 26 23 21                0.003420140
 -12811043.418 8 -11057086.950 9  21544300.592         668.261
  -2382964.485 5  -1870028.875 5  25256802.352       -3130.238
 -14218304.802 7 -10190694.330 8  21727118.728        1297.540
  -5750921.601 6  -4504843.112 6  24142011.720        1210.529
  -5181650.624 6  -4051914.456 6  23601536.858        1207.523
 -16466388.602 7 -11639741.523 9  21676265.922        -560.630
  -6467035.427 6  -5035091.667 6  23860936.128       -2390.309
 93  5 10  5 36  0.0030000  0  7 17 28  3 22 26 23 21                0.003428200
 -12790877.459 8 -11041373.226 9  21548137.955         676.124
  -2476820.419 5  -1943163.296 5  25238941.894       -3126.604
 -14179125.698 7 -10160165.167 8  21734574.617        1314.314
  -5714368.268 6  -4476360.031 6  24148967.530        1226.687
  -5145151.526 6  -4023473.618 6  23608482.460        1225.628
 -16482993.093 7 -11652680.062 9  21673106.253        -546.235
  -6538614.911 6  -5090867.849 6  23847315.125       -2381.732
 93  5 10  5 36 30.0030000  0  7 17 28  3 22 26 23 21                0.003436260
 -12770481.436 8 -11025480.205 9  21552019.165         683.596
  -2570560.690 5  -2016207.649 5  25221103.743       -3122.667
 -14139440.991 7 -10129242.030 8  21742126.270        1331.145
  -5677317.904 6  -4447489.626 6  24156018.416        1243.309
  -5108122.221 6  -3994619.653 6  23615528.941        1242.863
 -16499159.031 7 -11665276.890 9  21670029.741        -531.518
  -6609945.720 6  -5146450.266 6  23833741.047       -2373.797
 93  5 10  5 37  0.0030000  0  7 17 28  3 22 26 23 21                0.003444290
 -12749861.137 8 -11009412.462 9  21555943.202         691.047
  -2664182.279 6  -2089159.478 5  25203288.078       -3118.852
 -14099257.316 7 -10097930.089 8  21749772.945        1347.518
  -5639778.004 6  -4418237.782 6  24163162.278        1259.410
  -5070576.477 6  -3965363.248 6  23622673.575        1260.114
 -16514888.293 7 -11677533.429 9  21667036.592        -517.102
  -6681052.891 6  -5201858.409 6  23820209.641       -2366.881
 93  5 10  5 37 30.0030000  0  7 17 28  3 22 26 23 21                0.003452290
 -12729001.205 8 -10993157.953 9  21559912.713         699.696
  -2757680.630 6  -2162015.298 5  25185495.711       -3114.508
 -14058572.262 7 -10066227.441 8  21757514.905        1364.469
  -5601740.121 6  -4388597.866 6  24170401.110        1276.392
  -5032502.726 6  -3935695.392 6  23629918.648        1277.971
 -16530180.881 7 -11689449.715 9  21664126.308        -502.584
  -6751949.598 6  -5257102.557 6  23806718.548       -2359.598
 93  5 10  5 38  0.0030000  0  7 17 28  3 22 26 23 21                0.003460260
 -12707884.177 8 -10976703.134 9  21563931.202         708.020
  -2851062.811 6  -2234780.560 5  25167724.935       -3110.986
 -14017384.799 7 -10034133.320 8  21765352.758        1381.126
  -5563196.618 6  -4358564.013 6  24177735.533        1293.052
  -4993898.781 6  -3905614.403 6  23637264.694        1295.641
 -16545047.698 7 -11701034.237 9  21661297.415        -488.534
  -6822634.582 6  -5312181.736 6  23793267.695       -2352.748
 93  5 10  5 38 30.0030000  0  7 17 28  3 22 26 23 21                0.003468200
 -12686520.177 8 -10960055.861 9  21567996.776         716.266
  -2944337.417 6  -2307462.013 5  25149975.013       -3107.293
 -13975694.326 7 -10001647.249 8  21773286.129        1397.917
  -5524159.986 6  -4328145.875 6  24185164.158        1309.159
  -4954760.901 6  -3875117.399 6  23644712.384        1313.550
 -16559496.130 7 -11712292.741 9  21658547.869        -474.746
  -6893112.826 6  -5367099.832 6  23779856.436       -2345.606
 93  5 10  5 39  0.0030000  0  7 17 28  3 22 26 23 21                0.003476130
 -12664903.651 8 -10943211.818 9  21572110.269         724.678
  -3037501.566 6  -2380057.382 5  25132246.857       -3103.828
 -13933499.715 7  -9968768.330 8  21781315.809        1414.779
  -5484653.991 6  -4297362.000 6  24192681.703        1324.569
  -4915079.576 6  -3844196.883 6  23652263.778        1331.850
 -16573530.951 7 -11723228.946 9  21655877.108        -460.906
  -6963365.097 6  -5421841.822 6  23766487.513       -2337.800
 93  5 10  5 39 30.0030000  0  7 17 28  3 22 26 23 21                0.003484060
 -12643050.842 8 -10926183.658 9  21576268.761         732.278
  -3130569.833 6  -2452578.050 5  25114536.640       -3100.669
 -13890802.033 7  -9935497.422 8  21789440.923        1431.580
  -5444689.269 6  -4266220.671 6  24200286.403        1339.712
  -4874851.307 6  -3812850.190 6  23659919.171        1350.056
 -16587154.652 7 -11733844.797 9  21653285.043        -447.183
  -7033378.235 6  -5476397.484 6  23753164.137       -2329.503
 93  5 10  5 40  0.0030000  0  7 17 28  3 22 26 23 21                0.003491990
 -12620976.313 8 -10908982.716 9  21580469.482         739.396
  -3223544.789 6  -2525026.034 5  25096844.176       -3097.433
 -13847599.925 7  -9901833.448 8  21797661.673        1448.482
  -5404279.968 6  -4234732.935 6  24207975.705        1354.116
  -4834079.013 6  -3781079.579 6  23667678.316        1368.266
 -16600359.585 7 -11744134.350 9  21650771.973        -432.919
  -7103133.577 6  -5530752.274 6  23739890.375       -2320.612
 93  5 10  5 40 30.0030000  0  7 17 28  3 22 26 23 21                0.003499930
 -12598686.703 8 -10891614.197 9  21584711.026         746.547
  -3316410.250 6  -2597388.688 5  25079172.983       -3093.734
 -13803889.307 7  -9867773.236 8  21805979.684        1465.244
  -5363449.874 6  -4202917.265 6  24215745.339        1367.906
  -4792760.265 6  -3748883.179 6  23675540.775        1386.243
 -16613137.466 7 -11754091.115 9  21648340.535        -418.946
  -7172609.488 6  -5584889.310 6  23726669.579       -2310.991
 93  5 10  5 41  0.0030000  0  7 17 28  3 22 26 23 21                0.003507880
 -12576184.773 8 -10874080.224 9  21588993.251         753.660
  -3409170.990 6  -2669669.726 5  25061521.271       -3090.266
 -13759676.145 7  -9833321.430 8  21814393.009        1482.161
  -5322202.520 6  -4170776.497 6  24223594.108        1382.252
  -4750900.331 6  -3716265.077 6  23683506.489        1404.578
 -16625494.592 8 -11763720.041 9  21645988.834        -404.703
  -7241794.136 6  -5638799.390 6  23713503.584       -2301.311
 93  5 10  5 41 30.0030000  0  7 17 28  3 22 26 23 21                0.003515860
 -12553471.113 8 -10856381.285 9  21593315.700         760.890
  -3501825.503 6  -2741867.956 5  25043889.164       -3086.495
 -13714957.339 7  -9798475.609 8  21822902.718        1498.993
  -5280509.798 6  -4138288.691 6  24231528.061        1397.417
  -4708492.757 6  -3683220.218 6  23691576.215        1422.697
 -16637430.945 7 -11773021.061 9  21643717.267        -391.028
  -7310693.266 6  -5692487.003 6  23700392.208       -2291.712
 93  5 10  5 42  0.0030000  0  7 17 28  3 22 26 23 21                0.003523860
 -12530532.727 8 -10838507.223 9  21597680.596         768.340
  -3594366.630 6  -2813977.898 5  25026278.945       -3082.733
 -13669734.862 7  -9763237.328 8  21831508.211        1515.720
  -5238367.465 6  -4105450.518 6  24239548.079        1412.423
  -4665541.689 6  -3649751.865 6  23699749.874        1440.879
 -16648966.154 7 -11782009.535 9  21641522.147        -377.927
  -7379305.844 6  -5745951.329 6  23687335.609       -2282.464
 93  5 10  5 42 30.0030000  0  7 17 28  3 22 26 23 21                0.003531890
 -12507368.242 8 -10820456.963 9  21602088.427         775.868
  -3686788.103 6  -2885994.567 5  25008692.241       -3078.914
 -13624006.975 7  -9727605.222 8  21840210.057        1532.499
  -5195753.217 6  -4072244.626 6  24247656.728        1428.684
  -4622041.260 6  -3615855.448 6  23708027.513        1459.063
 -16660109.714 7 -11790692.808 9  21639401.504        -364.991
  -7447649.071 6  -5799205.742 6  23674330.901       -2273.896
 93  5 10  5 43  0.0030000  0  7 17 28  3 22 26 23 21                0.003539940
 -12483980.005 8 -10802232.371 9  21606538.895         783.131
  -3779099.814 5  -2957925.692 5  24991125.488       -3075.314
 -13577776.380 7  -9691581.388 8  21849007.476        1549.115
  -5152644.887 6  -4038653.744 6  24255859.796        1444.888
  -4578000.984 6  -3581538.365 6  23716408.492        1476.682
 -16670860.891 7 -11799070.339 9  21637355.411        -352.077
  -7515743.837 6  -5852266.577 6  23661373.174       -2266.085
 93  5 10  5 43 30.0030000  0  7 17 28  3 22 26 23 21                0.003547990
 -12460363.147 8 -10783829.627 9  21611032.965         791.049
  -3871287.846 5  -3029760.478 5  24973582.810       -3070.783
 -13531039.216 7  -9655162.826 8  21857901.199        1566.086
  -5109054.501 6  -4004687.243 6  24264155.332        1460.683
  -4533429.946 6  -3546807.706 6  23724889.869        1494.319
 -16681220.711 7 -11807142.916 9  21635384.116        -338.835
  -7583600.878 6  -5905142.160 6  23648460.244       -2258.010
 93  5 10  5 44  0.0030000  0  7 17 28  3 22 26 23 21                0.003556030
 -12436516.534 8 -10765247.858 9  21615570.664         798.656
  -3963344.214 5  -3101492.618 5  24956064.627       -3066.255
 -13483798.601 7  -9618351.973 8  21866890.867        1582.989
  -5065014.724 6  -3970370.521 6  24272535.845        1475.435
  -4488337.056 6  -3511670.410 6  23733470.879        1511.916
 -16691178.774 7 -11814902.432 9  21633489.256        -324.829
  -7651227.426 6  -5957838.136 6  23635590.913       -2250.616
 93  5 10  5 44 30.0030000  0  7 17 28  3 22 26 23 21                0.003564040
 -12412448.259 8 -10746493.344 9  21620150.641         805.954
  -4055262.564 5  -3173117.249 5  24938572.597       -3061.540
 -13436053.272 7  -9581147.822 8  21875976.688        1599.784
  -5020535.696 6  -3935711.581 6  24280999.966        1489.570
  -4442725.148 6  -3476128.677 6  23742150.531        1528.851
 -16700707.439 8 -11822327.358 9  21631676.021        -310.431
  -7718634.844 6  -6010363.365 6  23622763.739       -2243.168
 93  5 10  5 45  0.0030000  0  7 17 28  3 22 26 23 21                0.003572020
 -12388149.099 8 -10727558.954 9  21624774.591         813.848
  -4147027.601 6  -3244622.478 5  24921110.443       -3056.114
 -13387798.630 7  -9543546.824 8  21885159.170        1616.869
  -4975638.154 6  -3900726.444 6  24289543.437        1503.397
  -4396601.731 6  -3440188.368 6  23750927.863        1545.959
 -16709795.149 8 -11829408.672 9  21629946.790        -295.771
  -7785803.751 6  -6062702.736 6  23609981.782       -2234.896
 93  5 10  5 45 30.0030000  0  7 17 28  3 22 26 23 21                0.003579970
 -12363614.828 8 -10708441.341 9  21629443.389         821.874
  -4238631.408 5  -3316002.019 5  24903678.923       -3050.763
 -13339035.966 7  -9505549.932 8  21894438.295        1633.834
  -4930336.032 6  -3865426.163 6  24298164.311        1516.961
  -4349964.269 6  -3403847.501 6  23759802.622        1563.227
 -16718450.571 7 -11836153.152 9  21628299.769        -281.083
  -7852722.438 6  -6114847.137 6  23597247.654       -2226.180
 93  5 10  5 46  0.0030000  0  7 17 28  3 22 26 23 21                0.003587880
 -12338849.007 8 -10689143.310 9  21634156.306         829.364
  -4330084.322 5  -3387263.959 5  24886276.143       -3046.053
 -13289766.510 7  -9467158.182 8  21903814.013        1650.702
  -4884622.283 6  -3829805.076 6  24306862.989        1530.931
  -4302813.041 6  -3367106.313 6  23768775.328        1580.292
 -16726667.623 7 -11842556.051 9  21626735.884        -266.679
  -7919380.625 6  -6166788.554 6  23584563.199       -2217.538
 93  5 10  5 46 30.0030000  0  7 17 28  3 22 26 23 21                0.003595780
 -12313847.856 8 -10669661.893 9  21638913.662         837.433
  -4421386.343 5  -3458408.335 5  24868902.001       -3040.734
 -13239984.792 7  -9428367.218 8  21913287.057        1667.854
  -4838478.220 6  -3793848.675 6  24315643.931        1545.237
  -4255154.004 6  -3329969.427 6  23777844.252        1597.048
 -16734456.732 8 -11848625.457 9  21625253.667        -252.769
  -7985767.866 6  -6218518.829 6  23571930.053       -2208.297
 93  5 10  5 47  0.0030000  0  7 17 28  3 22 26 23 21                0.003603650
 -12288597.600 8 -10649986.380 9  21643718.595         845.749
  -4512537.622 6  -3529435.280 5  24851556.003       -3036.055
 -13189691.290 7  -9389177.506 8  21922857.891        1684.693
  -4791912.564 6  -3757563.764 6  24324505.655        1559.104
  -4206999.655 6  -3292446.576 6  23787008.179        1613.237
 -16741840.607 7 -11854379.116 9  21623848.490        -239.698
  -8051883.455 6  -6270037.439 6  23559348.575       -2199.600
 93  5 10  5 47 30.0030000  0  7 17 28  3 22 26 23 21                0.003611490
 -12263095.769 8 -10630114.822 9  21648571.415         854.297
  -4603550.939 6  -3600354.711 5  24834236.567       -3031.494
 -13138887.700 7  -9349590.296 8  21932525.249        1701.884
  -4744925.741 6  -3720950.676 6  24333447.020        1573.308
  -4158350.229 6  -3254537.928 6  23796265.552        1629.936
 -16748829.570 8 -11859825.047 9  21622518.661        -226.169
  -8117742.388 6  -6321356.049 6  23546815.888       -2191.186
 93  5 10  5 48  0.0030000  0  7 17 28  3 22 26 23 21                0.003619300
 -12237349.791 8 -10610053.019 9  21653470.704         862.246
  -4694427.772 6  -3671167.872 5  24816943.598       -3026.799
 -13087575.581 7  -9309606.830 8  21942289.549        1718.740
  -4697520.119 6  -3684011.269 6  24342468.152        1587.221
  -4109202.621 6  -3216241.117 6  23805617.955        1646.750
 -16755420.821 8 -11864961.071 9  21621264.621        -213.341
  -8183363.552 6  -6372489.384 6  23534329.021       -2183.553
 93  5 10  5 48 30.0030000  0  7 17 28  3 22 26 23 21                0.003627080
 -12211359.409 8 -10589800.793 9  21658416.670         870.367
  -4785162.760 6  -3741870.416 5  24799677.809       -3022.120
 -13035758.693 7  -9269230.048 8  21952150.122        1735.567
  -4649703.400 6  -3646751.485 6  24351567.491        1600.623
  -4059550.135 6  -3177550.905 6  23815066.344        1663.683
 -16761632.625 8 -11869801.428 9  21620082.529        -200.710
  -8248756.381 6  -6423444.797 6  23521884.988       -2175.903
 93  5 10  5 49  0.0030000  0  7 17 28  3 22 26 23 21                0.003634850
 -12185134.216 8 -10569365.578 9  21663407.086         877.910
  -4875763.077 6  -3812468.039 5  24782437.205       -3017.811
 -12983437.799 7  -9228460.525 8  21962106.199        1752.378
  -4601481.917 6  -3609176.340 6  24360743.269        1614.418
  -4009376.329 6  -3138454.440 6  23824613.921        1681.472
 -16767460.839 7 -11874342.895 9  21618973.295        -187.692
  -8313914.020 6  -6474216.958 6  23509485.306       -2167.677
 93  5 10  5 49 30.0030000  0  7 17 28  3 22 26 23 21                0.003642650
 -12158694.667 8 -10548763.328 9  21668438.392         884.836
  -4966230.637 6  -3882962.209 5  24765221.593       -3013.257
 -12930604.825 7  -9187291.974 8  21972160.231        1769.558
  -4552833.269 6  -3571268.312 6  24370000.924        1628.876
  -3958650.588 6  -3098927.902 6  23834267.042        1700.218
 -16772892.266 8 -11878575.147 9  21617939.832        -174.158
  -8378811.095 6  -6524786.072 6  23497135.873       -2158.678
 93  5 10  5 50  0.0030000  0  7 17 28  3 22 26 23 21                0.003650480
 -12132055.582 8 -10528005.602 9  21673507.922         891.169
  -5056563.565 6  -3953351.495 5  24748031.903       -3008.853
 -12877262.259 7  -9145726.348 8  21982310.912        1786.488
  -4503751.031 6  -3533022.431 6  24379340.763        1643.374
  -3907368.876 6  -3058968.145 6  23844025.504        1718.572
 -16777920.975 8 -11882493.624 9  21616983.044        -161.003
  -8443434.685 6  -6575142.082 6  23484838.765       -2149.322
 93  5 10  5 50 30.0030000  0  7 17 28  3 22 26 23 21                0.003658350
 -12105220.443 8 -10507095.102 9  21678614.717         897.733
  -5146754.519 6  -4023630.120 5  24730869.088       -3004.019
 -12823407.263 7  -9103761.418 8  21992559.098        1803.540
  -4454233.616 6  -3494437.457 6  24388763.949        1657.692
  -3855545.928 6  -3018586.638 6  23853887.058        1736.262
 -16782543.849 8 -11886095.845 9  21616103.114        -147.060
  -8507764.199 6  -6625268.937 6  23472597.158       -2139.395
 93  5 10  5 51  0.0030000  0  7 17 28  3 22 26 23 21                0.003666250
 -12078199.640 8 -10486039.940 9  21683756.518         903.990
  -5236809.135 6  -4093802.570 5  24713732.436       -2999.381
 -12769048.125 7  -9061403.678 8  22002903.198        1820.382
  -4404289.658 6  -3455520.124 6  24398267.741        1672.161
  -3803199.123 6  -2977796.950 6  23863848.242        1753.618
 -16786749.698 7 -11889373.127 9  21615302.837        -133.170
  -8571805.384 6  -6675171.124 6  23460410.363       -2129.779
 93  5 10  5 51 30.0030000  0  7 17 28  3 22 26 23 21                0.003674150
 -12050976.363 8 -10464826.995 9  21688936.923         910.982
  -5326706.039 6  -4163852.041 5  24696625.433       -2993.791
 -12714178.589 7  -9018648.204 8  22013344.590        1837.216
  -4353906.413 6  -3416260.447 6  24407855.292        1686.483
  -3750336.675 6  -2936605.440 6  23873907.609        1770.089
 -16790537.202 8 -11892324.399 9  21614582.163        -119.374
  -8635562.003 6  -6724851.559 6  23448277.892       -2120.949
 93  5 10  5 52  0.0030000  0  7 17 28  3 22 26 23 21                0.003682040
 -12023528.981 8 -10443439.434 9  21694160.005         918.669
  -5416420.935 6  -4233759.712 5  24679553.034       -2987.262
 -12658801.798 7  -8975497.453 8  22023882.513        1854.222
  -4303093.509 6  -3376666.013 6  24417525.060        1700.855
  -3696994.024 6  -2895039.747 6  23884058.420        1785.851
 -16793907.621 7 -11894950.704 9  21613940.859        -105.636
  -8699056.505 6  -6774327.753 6  23436195.150       -2112.083
 93  5 10  5 52 30.0030000  0  7 17 28  3 22 26 23 21                0.003689890
 -11995843.852 8 -10421866.601 9  21699428.410         926.762
  -5505934.853 6  -4303510.816 5  24662518.844       -2980.556
 -12602912.493 7  -8931947.352 8  22034517.862        1871.275
  -4251858.020 6  -3336742.233 6  24427274.884        1714.634
  -3643183.521 6  -2853109.522 6  23894298.113        1801.533
 -16796867.556 8 -11897257.118 9  21613377.509         -92.078
  -8762286.531 6  -6823597.874 6  23424162.801       -2103.494
 93  5 10  5 53  0.0030000  0  7 17 28  3 22 26 23 21                0.003697730
 -11967920.096 8 -10400107.836 9  21704741.958         934.826
  -5595248.578 6  -4373105.891 5  24645523.213       -2973.704
 -12546514.474 7  -8888000.859 8  22045249.980        1888.330
  -4200205.870 6  -3296493.843 6  24437103.835        1728.749
  -3588888.766 6  -2810801.953 6  23904629.931        1817.952
 -16799435.602 8 -11899258.192 9  21612889.019         -79.279
  -8825261.828 6  -6872669.473 6  23412179.143       -2094.779
 93  5 10  5 53 30.0030000  0  7 17 28  3 22 26 23 21                0.003705550
 -11939752.817 8 -10378159.305 9  21710101.869         943.229
  -5684351.495 6  -4442536.709 5  24628567.201       -2966.322
 -12489607.800 7  -8843658.013 8  22056079.105        1905.464
  -4148140.764 6  -3255923.632 6  24447011.606        1742.507
  -3534110.155 6  -2768117.322 6  23915053.932        1834.250
 -16801624.275 7 -11900963.631 9  21612472.448         -66.320
  -8887981.811 6  -6921542.178 6  23400243.738       -2086.188
 93  5 10  5 54  0.0030000  0  7 17 28  3 22 26 23 21                0.003713380
 -11911339.830 8 -10356019.309 9  21715508.867         950.960
  -5773235.871 6  -4511797.211 5  24611653.118       -2959.423
 -12432184.088 7  -8798912.271 8  22067006.469        1922.603
  -4095662.371 6  -3215031.413 6  24456997.921        1756.010
  -3478830.774 6  -2725042.499 6  23925573.760        1851.289
 -16803420.126 7 -11902362.993 9  21612130.633         -53.446
  -8950424.725 6  -6970198.940 6  23388360.925       -2076.649
 93  5 10  5 54 30.0030000  0  7 17 28  3 22 26 23 21                0.003721230
 -11882699.872 8 -10333702.453 9  21720958.516         958.440
  -5861929.701 6  -4580909.236 5  24594775.332       -2953.366
 -12374248.383 7  -8753767.575 8  22078031.307        1939.581
  -4042786.482 6  -3173829.437 6  24467059.718        1769.227
  -3423027.114 6  -2681559.115 6  23936192.350        1869.180
 -16804834.693 7 -11903465.240 9  21611861.446         -40.740
  -9012584.557 6  -7018635.127 6  23376532.392       -2067.270
 93  5 10  5 55  0.0030000  0  7 17 28  3 22 26 23 21                0.003729120
 -11853826.925 8 -10311204.061 9  21726452.959         966.504
  -5950443.167 6  -4649880.719 5  24577931.822       -2947.575
 -12315796.384 7  -8708220.572 8  22089154.417        1956.979
  -3989503.482 6  -3132310.229 6  24477198.909        1782.958
  -3366679.306 6  -2637651.771 6  23946915.236        1887.104
 -16805859.626 8 -11904263.887 9  21611666.584         -27.415
  -9074459.123 6  -7066849.060 6  23364757.845       -2057.789
 93  5 10  5 55 30.0030000  0  7 17 28  3 22 26 23 21                0.003737010
 -11824706.980 8 -10288513.202 9  21731994.186         974.677
  -6038786.474 6  -4718719.647 5  24561120.300       -2942.111
 -12256828.060 7  -8662271.225 8  22100375.665        1974.041
  -3935810.580 6  -3090471.648 5  24487416.262        1796.466
  -3309808.930 6  -2593337.229 6  23957737.574        1904.305
 -16806483.777 7 -11904750.226 9  21611547.796         -14.231
  -9136052.912 6  -7114844.170 6  23353037.168       -2048.574
 93  5 10  5 56  0.0030000  0  7 17 28  3 22 26 23 21                0.003744900
 -11795347.390 8 -10265635.590 9  21737580.917         982.809
  -6126965.268 6  -4787430.353 5  24544340.736       -2936.412
 -12197347.922 7  -8615923.079 8  22111694.441        1991.189
  -3881724.294 6  -3048326.474 5  24497708.998        1809.365
  -3252420.080 6  -2548618.642 6  23968658.320        1921.726
 -16806716.852 7 -11904931.818 9  21611503.597          -1.157
  -9197371.783 6  -7162625.052 6  23341368.789       -2039.558
 93  5 10  5 56 30.0030000  0  7 17 28  3 22 26 23 21                0.003752790
 -11765729.350 8 -10242556.612 9  21743216.914         991.708
  -6214967.781 6  -4856003.728 5  24527593.929       -2930.343
 -12137351.616 7  -8569172.721 8  22123111.179        2008.389
  -3827250.928 6  -3005879.726 5  24508074.942        1822.170
  -3194508.649 6  -2503492.862 6  23979678.305        1938.800
 -16806553.210 8 -11904804.300 9  21611534.736          12.057
  -9258430.628 6  -7210203.336 6  23329749.520       -2031.038
 93  5 10  5 57  0.0030000  0  7 17 28  3 22 26 23 21                0.003760650
 -11735840.666 8 -10219266.721 9  21748904.617        1000.820
  -6302780.993 6  -4924429.570 5  24510883.634       -2923.763
 -12076840.994 7  -8522021.597 8  22134626.048        2025.451
  -3772392.120 6  -2963132.623 5  24518514.177        1835.036
  -3136094.902 6  -2457975.671 6  23990794.107        1955.335
 -16805991.405 7 -11904366.515 9  21611641.302          25.540
  -9319237.451 6  -7257585.247 6  23318178.380       -2022.677
 93  5 10  5 57 30.0030000  0  7 17 28  3 22 26 23 21                0.003768490
 -11705691.189 8 -10195773.625 9  21754642.134        1008.996
  -6390386.859 6  -4992693.906 5  24494213.029       -2916.603
 -12015815.843 7  -8474469.539 8  22146238.838        2042.622
  -3717157.297 6  -2920092.514 5  24529024.639        1847.260
  -3077186.972 6  -2412073.405 6  24002004.023        1971.841
 -16805025.727 8 -11903614.023 9  21611825.295          38.850
  -9379785.382 6  -7304765.422 6  23306656.588       -2013.799
 93  5 10  5 58  0.0030000  0  7 17 28  3 22 26 23 21                0.003776310
 -11675300.318 8 -10172092.418 9  21760425.381        1017.004
  -6477774.620 6  -5060788.233 5  24477583.756       -2909.388
 -11954272.490 7  -8426513.681 7  22157949.991        2059.941
  -3661557.380 6  -2876767.936 5  24539605.325        1859.464
  -3017780.049 6  -2365782.282 6  24013308.790        1988.457
 -16803652.332 7 -11902543.821 9  21612086.635          52.687
  -9440058.414 6  -7351731.367 6  23295187.178       -2004.418
 93  5 10  5 58 30.0030000  0  7 17 28  3 22 26 23 21                0.003784100
 -11644675.545 8 -10148228.967 9  21766253.206        1024.551
  -6564963.077 6  -5128727.267 5  24460991.750       -2903.201
 -11892210.865 7  -8378153.981 7  22169760.345        2077.251
  -3605587.430 6  -2833154.981 5  24550255.982        1871.974
  -2957886.643 6  -2319112.087 6  24024706.254        2004.277
 -16801863.504 7 -11901149.927 9  21612427.038          66.563
  -9500043.359 6  -7398472.842 7  23283772.134       -1994.378
 93  5 10  5 59  0.0030000  0  7 17 28  3 22 26 23 21                0.003791880
 -11613841.924 8 -10124202.775 9  21772120.775        1031.009
  -6651964.801 6  -5196520.813 5  24444436.008       -2896.815
 -11829633.770 7  -8329392.621 7  22181668.321        2094.386
  -3549237.579 6  -2789246.030 5  24560978.699        1884.679
  -2897527.839 6  -2272079.278 6  24036192.031        2019.696
 -16799653.890 7 -11899428.146 9  21612847.237          80.813
  -9559721.644 6  -7444975.362 7  23272415.482       -1984.019
 93  5 10  5 59 30.0030000  0  7 17 28  3 22 26 23 21                0.003799640
 -11582814.218 8 -10100025.342 9  21778025.169        1037.508
  -6738770.432 6  -5264161.577 5  24427917.744       -2890.275
 -11766537.325 7  -8280226.571 7  22193675.059        2111.601
  -3492503.650 6  -2745037.774 5  24571775.193        1897.553
  -2836706.172 6  -2224685.775 6  24047765.984        2034.987
 -16797012.909 8 -11897370.211 9  21613349.749          95.054
  -9619088.127 6  -7491234.913 7  23261118.744       -1973.960
 93  5 10  6  0  0.0030000  0  7 17 28  3 22 26 23 21                0.003807380
 -11551575.224 8 -10075683.263 9  21783969.732        1045.065
  -6825376.578 6  -5331646.853 5  24411437.334       -2883.328
 -11702920.733 7  -8230655.206 7  22205780.778        2129.096
  -3435373.336 6  -2700520.689 5  24582646.407        1911.008
  -2775419.858 6  -2176930.209 6  24059428.572        2050.711
 -16793941.633 8 -11894977.018 9  21613934.345         109.441
  -9678158.399 6  -7537263.674 7  23249877.904       -1964.219
 93  5 10  6  0 30.0030000  0  7 17 28  3 22 26 23 21                0.003815100
 -11520103.170 8 -10051159.594 9  21789958.797        1053.193
  -6911763.770 6  -5398961.524 5  24394998.476       -2875.589
 -11638783.422 7  -8180678.099 7  22217985.969        2146.534
  -3377836.415 6  -2655686.737 5  24593595.319        1924.776
  -2713659.757 6  -2128805.495 6  24071180.952        2066.765
 -16790444.059 7 -11892251.598 9  21614599.714         123.661
  -9736944.990 6  -7583071.369 7  23238691.549       -1954.928
 93  5 10  6  1  0.0030000  0  7 17 28  3 22 26 23 21                0.003822830
 -11488388.638 8 -10026446.973 9  21795993.678        1061.362
  -6997905.515 6  -5466084.948 5  24378606.173       -2867.132
 -11574127.302 7  -8130296.724 7  22230289.452        2163.677
  -3319892.837 6  -2610535.909 5  24604621.964        1938.068
  -2651409.904 6  -2080299.132 6  24083026.776        2083.384
 -16786535.027 8 -11889205.611 9  21615343.599         136.741
  -9795465.300 6  -7628671.568 7  23227555.379       -1946.506
 93  5 10  6  1 30.0030000  0  7 17 28  3 22 26 23 21                0.003830570
 -11456407.683 8 -10001526.750 9  21802079.533        1070.725
  -7083791.908 6  -5533009.412 5  24362262.705       -2858.743
 -11508952.385 7  -8079511.073 7  22242691.666        2180.975
  -3261556.588 6  -2565079.086 5  24615722.577        1950.987
  -2588647.908 6  -2031393.683 6  24094969.991        2100.796
 -16782245.763 7 -11885863.299 9  21616159.875         148.925
  -9853733.128 6  -7674075.037 7  23216467.122       -1937.985
 93  5 10  6  2  0.0030000  0  7 17 28  3 22 26 23 21                0.003838350
 -11424149.527 8  -9976390.531 9  21808218.095        1079.669
  -7169429.995 6  -5599740.375 5  24345966.210       -2850.471
 -11443261.271 7  -8028323.211 7  22255192.110        2198.112
  -3202838.973 6  -2519325.129 5  24626896.253        1963.340
  -2525360.411 6  -1982078.736 6  24107013.152        2118.272
 -16777602.895 8 -11882245.471 9  21617043.112         160.631
  -9911738.526 6  -7719274.005 7  23205429.296       -1928.905
 93  5 10  6  2 30.0030000  0  7 17 28  3 22 26 23 21                0.003846160
 -11391627.609 8  -9951048.789 9  21814406.821        1088.263
  -7254820.678 6  -5666278.580 6  24329716.647       -2842.404
 -11377052.648 7  -7976732.075 7  22267791.467        2215.485
  -3143757.804 6  -2473287.873 5  24638139.517        1975.349
  -2461551.724 6  -1932357.728 6  24119155.383        2135.515
 -16772603.961 7 -11878350.197 9  21617994.465         172.593
  -9969455.489 6  -7764248.246 7  23194445.720       -1919.053
 93  5 10  6  3  0.0030000  0  7 17 28  3 22 26 23 21                0.003853990
 -11358856.980 8  -9925513.232 9  21820642.854        1096.368
  -7339972.707 6  -5732630.797 6  24313513.067       -2834.529
 -11310325.856 7  -7924737.189 7  22280489.148        2232.657
  -3084323.952 6  -2426975.778 5  24649448.956        1986.818
  -2397235.252 6  -1882241.027 6  24131395.116        2152.137
 -16767245.771 7 -11874174.967 9  21619014.117         184.663
 -10026879.427 6  -7808994.127 7  23183518.494       -1909.226
 93  5 10  6  3 30.0030000  0  7 17 28  3 22 26 23 21                0.003861830
 -11325848.409 8  -9899792.261 9  21826923.856        1104.269
  -7424892.826 6  -5798802.320 6  24297353.371       -2826.584
 -11243086.924 7  -7872343.237 7  22293284.179        2249.863
  -3024553.497 6  -2380401.405 5  24660822.816        1998.117
  -2332432.302 6  -1831745.246 6  24143726.390        2168.117
 -16761524.292 7 -11869716.674 9  21620102.795         197.233
 -10084005.398 6  -7853507.858 7  23172647.640       -1898.886
 93  5 10  6  4  0.0030000  0  7 17 28  3 22 26 23 21                0.003869650
 -11292611.005 8  -9873892.996 9  21833248.504        1111.496
  -7509570.109 6  -5864784.605 6  24281239.829       -2818.456
 -11175330.031 7  -7819545.661 7  22306177.924        2267.058
  -2964437.260 6  -2333557.650 5  24672263.097        2009.493
  -2267158.863 6  -1780882.839 6  24156147.358        2183.411
 -16755403.438 8 -11864947.166 9  21621267.560         210.948
 -10140816.224 6  -7897775.991 7  23161836.746       -1888.512
 93  5 10  6  4 30.0030000  0  7 17 28  3 22 26 23 21                0.003877450
 -11259150.593 8  -9847819.944 9  21839615.798        1119.214
  -7594000.056 6  -5930574.177 6  24265173.192       -2810.251
 -11107054.145 7  -7766343.695 7  22319170.339        2284.464
  -2903980.180 6  -2286448.231 5  24683767.383        2021.112
  -2201418.809 6  -1729656.830 6  24168656.979        2199.292
 -16748866.338 8 -11859853.325 9  21622511.436         224.757
 -10197314.180 7  -7941800.348 7  23151085.627       -1878.146
 93  5 10  6  5  0.0030000  0  7 17 28  3 22 26 23 21                0.003885240
 -11225458.068 8  -9821566.042 9  21846027.328        1127.109
  -7678188.685 6  -5996175.666 6  24249152.543       -2802.286
 -11038259.070 7  -7712737.136 7  22332261.626        2301.709
  -2843172.978 6  -2239066.006 5  24695338.364        2032.758
  -2135203.898 6  -1678060.826 6  24181257.265        2215.156
 -16741920.936 7 -11854441.317 9  21623832.923         238.318
 -10253506.485 6  -7985586.517 7  23140393.089       -1867.905
 93  5 10  6  5 30.0030000  0  7 17 28  3 22 26 23 21                0.003893020
 -11191524.769 8  -9795124.504 9  21852484.610        1135.048
  -7762140.982 6  -6061593.025 6  24233176.999       -2794.557
 -10968945.958 7  -7658726.928 7  22345451.466        2318.912
  -2782013.025 6  -2191408.926 5  24706977.238        2044.573
  -2068512.481 6  -1626093.480 6  24193948.516        2230.890
 -16734569.794 8 -11848713.141 9  21625231.734         251.770
 -10309386.530 6  -8029129.390 7  23129759.052       -1857.472
 93  5 10  6  6  0.0030000  0  7 17 28  3 22 26 23 21                0.003900800
 -11157353.021 8  -9768497.163 9  21858987.268        1143.026
  -7845861.232 6  -6126829.567 6  24217245.639       -2786.703
 -10899112.482 7  -7604311.251 7  22358740.296        2336.342
  -2720490.802 6  -2143469.538 5  24718684.351        2056.754
  -2001341.535 6  -1573752.518 6  24206730.586        2247.042
 -16726817.016 8 -11842672.003 9  21626706.962         264.832
 -10364956.729 7  -8072430.819 7  23119184.212       -1847.332
 93  5 10  6  6 30.0030000  0  7 17 28  3 22 26 23 21                0.003908590
 -11122940.122 8  -9741681.926 9  21865535.785        1151.432
  -7929347.082 6  -6191883.431 6  24201358.709       -2778.761
 -10828761.570 7  -7549492.357 7  22372127.878        2353.773
  -2658600.151 6  -2095243.058 5  24730461.439        2069.545
  -1933691.062 6  -1521037.897 6  24219604.128        2262.982
 -16718684.860 8 -11836335.254 9  21628254.400         277.436
 -10420234.101 7  -8115504.056 7  23108665.723       -1837.680
 93  5 10  6  7  0.0030000  0  7 17 28  3 22 26 23 21                0.003916390
 -11088272.157 8  -9714667.927 9  21872133.048        1159.811
  -8012576.247 6  -6256737.332 6  24185520.821       -2769.812
 -10757883.905 7  -7494263.029 7  22385615.651        2371.141
  -2596319.772 6  -2046712.908 5  24742313.000        2082.393
  -1865577.194 6  -1467962.158 6  24232565.574        2277.973
 -16710167.466 8 -11829698.325 9  21629875.288         290.302
 -10475221.183 6  -8158351.113 7  23098201.617       -1828.229
 93  5 10  6  7 30.0030000  0  7 17 28  3 22 26 23 21                0.003924210
 -11053353.527 8  -9687458.612 9  21878777.847        1168.023
  -8095528.052 6  -6321375.086 6  24169735.679       -2760.200
 -10686486.027 7  -7438628.336 7  22399201.854        2388.461
  -2533657.232 6  -1997884.984 5  24754238.071        2095.123
  -1797009.964 6  -1414533.173 6  24245613.652        2293.143
 -16701269.913 8 -11822765.157 9  21631568.486         302.902
 -10529928.009 7  -8200979.787 7  23087791.052       -1818.915
 93  5 10  6  8  0.0030000  0  7 17 28  3 22 26 23 21                0.003932040
 -11018181.715 8  -9660052.025 9  21885470.933        1176.725
  -8178178.907 6  -6385778.303 6  24154007.547       -2750.033
 -10614565.215 7  -7382586.148 7  22412888.150        2405.797
  -2470608.291 5  -1948755.952 5  24766235.513        2107.756
  -1727977.918 6  -1360742.000 6  24258750.306        2308.771
 -16691985.152 8 -11815530.263 9  21633335.223         315.887
 -10584349.023 7  -8243385.730 7  23077435.574       -1809.407
 93  5 10  6  8 30.0030000  0  7 17 28  3 22 26 23 21                0.003939880
 -10982743.907 8  -9632438.133 9  21892214.665        1185.620
  -8260528.188 6  -6449946.542 6  24138337.107       -2739.998
 -10542130.028 7  -7326143.131 7  22426672.528        2422.854
  -2407197.941 6  -1899345.290 5  24778302.620        2119.437
  -1658484.321 6  -1306591.171 6  24271974.646        2323.986
 -16682307.759 8 -11807989.424 9  21635176.889         329.095
 -10638484.804 7  -8285569.427 7  23067133.736       -1799.661
 93  5 10  6  9  0.0030000  0  7 17 28  3 22 26 23 21                0.003947710
 -10947034.340 8  -9604612.507 9  21899010.043        1194.956
  -8342569.968 6  -6513875.179 6  24122725.112       -2729.576
 -10469178.247 7  -7269297.624 7  22440554.717        2440.253
  -2343436.183 6  -1849660.841 5  24790436.278        2131.187
  -1588519.944 6  -1252073.491 6  24285288.484        2340.421
 -16672227.414 8 -11800134.623 9  21637095.240         342.855
 -10692315.577 7  -8327515.458 7  23056890.067       -1789.077
 93  5 10  6  9 30.0030000  0  7 17 28  3 22 26 23 21                0.003955550
 -10911047.554 8  -9576570.868 9  21905857.839        1203.914
  -8424314.922 6  -6577572.515 6  24107169.543       -2720.424
 -10395710.695 7  -7212050.187 7  22454535.150        2457.148
  -2279326.913 5  -1799705.594 5  24802635.497        2142.379
  -1518059.979 6  -1197169.643 6  24298696.475        2356.534
 -16661740.132 8 -11791962.694 9  21639090.930         356.087
 -10745829.600 7  -8369214.658 7  23046706.797       -1778.795
 93  5 10  6 10  0.0030000  0  7 17 28  3 22 26 23 21                0.003963370
 -10874788.126 8  -9548316.781 9  21912757.643        1213.302
  -8505791.489 6  -6641060.736 6  24091664.799       -2711.521
 -10321736.974 7  -7154408.331 7  22468611.696        2474.212
  -2214890.254 5  -1749495.222 5  24814897.286        2153.274
  -1447120.979 6  -1141892.495 6  24312195.705        2372.428
 -16650858.639 8 -11783483.607 9  21641161.656         369.175
 -10799043.968 7  -8410680.376 7  23036579.878       -1768.990
 93  5 10  6 10 30.0030000  0  7 17 28  3 22 26 23 21                0.003971200
 -10838259.829 8  -9519853.174 9  21919708.581        1221.874
  -8587012.874 6  -6704350.091 6  24076209.007       -2702.949
 -10247253.998 7  -7096369.678 7  22482785.582        2491.256
  -2150131.521 5  -1699033.855 5  24827220.923        2164.313
  -1375717.504 6  -1086253.467 6  24325783.451        2387.863
 -16639599.424 8 -11774710.182 9  21643304.053         381.590
 -10851974.585 7  -8451924.995 7  23026507.759       -1759.579
 93  5 10  6 11  0.0030000  0  7 17 28  3 22 26 23 21                0.003979030
 -10801476.386 8  -9491190.765 9  21926708.187        1230.255
  -8667970.177 6  -6767433.689 6  24060803.312       -2694.349
 -10172253.846 7  -7037927.999 7  22497057.621        2508.416
  -2085026.718 5  -1648302.898 5  24839609.317        2175.782
  -1303849.354 6  -1030252.339 6  24339459.421        2403.225
 -16627961.683 8 -11765641.798 9  21645518.598         394.155
 -10904622.966 7  -8492949.665 7  23016489.226       -1750.428
 93  5 10  6 11 30.0030000  0  7 17 28  3 22 26 23 21                0.003986860
 -10764444.170 8  -9462334.494 9  21933755.319        1238.287
  -8748669.348 6  -6830316.135 6  24045446.473       -2685.540
 -10096742.258 7  -6979087.823 7  22511426.863        2525.366
  -2019591.616 5  -1597314.519 5  24852061.015        2186.297
  -1231524.505 6   -973895.333 6  24353222.533        2418.192
 -16615955.739 8 -11756286.530 9  21647803.327         406.018
 -10957000.901 7  -8533763.619 7  23006521.758       -1741.516
 93  5 10  6 12  0.0030000  0  7 17 28  3 22 26 23 21                0.003994700
 -10727177.259 8  -9433295.370 9  21940847.078        1246.011
  -8829092.491 6  -6892983.511 6  24030142.300       -2676.092
 -10020721.439 7  -6919850.826 7  22525893.017        2542.362
  -1953851.288 5  -1546088.264 5  24864570.572        2196.399
  -1158747.117 6   -917185.702 6  24367071.616        2433.421
 -16603596.596 8 -11746656.015 9  21650155.209         417.833
 -11009105.475 7  -8574364.577 7  22996606.569       -1732.125
 93  5 10  6 12 30.0040000  0  7 17 28  3 22 26 23 21                0.004002560
 -10689682.442 8  -9404078.614 9  21947982.199        1253.481
  -8909230.798 6  -6955428.912 6  24014892.815       -2666.180
  -9944188.286 7  -6860214.619 7  22540456.746        2559.346
  -1887798.645 5  -1494618.679 5  24877140.373        2206.819
  -1085510.737 6   -860118.388 6  24381007.959        2448.803
 -16590876.010 8 -11736743.858 9  21652576.154         430.256
 -11060913.127 7  -8614734.143 7  22986748.095       -1721.498
 93  5 10  6 13  0.0040000  0  7 17 28  3 22 26 23 21                0.004010410
 -10651959.475 8  -9374684.101 9  21955160.550        1261.451
  -8989062.535 6  -7017635.442 6  23999701.181       -2655.936
  -9867148.144 7  -6800183.359 7  22555117.217        2576.428
  -1821445.513 5  -1442914.986 5  24889767.332        2216.624
  -1011812.439 6   -802691.167 6  24395032.284        2464.523
 -16577774.012 8 -11726534.513 9  21655069.416         443.017
 -11112392.648 7  -8654848.037 7  22976951.546       -1710.355
 93  5 10  6 13 30.0040000  0  7 17 28  3 22 26 23 21                0.004018260
 -10614007.129 8  -9345110.856 9  21962382.758        1268.780
  -9068583.412 6  -7079599.749 6  23984568.760       -2645.470
  -9789598.729 7  -6739755.258 7  22569874.399        2593.335
  -1754806.917 5  -1390988.822 5  24902447.883        2226.188
   -937645.125 6   -744898.465 6  24409145.750        2479.892
 -16564305.741 8 -11716039.748 9  21657632.523         455.010
 -11163532.552 7  -8694697.302 7  22967220.434       -1699.098
 93  5 10  6 14  0.0040000  0  7 17 28  3 22 26 23 21                0.004026120
 -10575826.655 8  -9315359.843 9  21969648.120        1276.664
  -9147797.382 6  -7141324.893 6  23969494.534       -2635.589
  -9711541.547 7  -6678931.480 7  22584728.208        2610.254
  -1687866.944 5  -1338827.826 5  24915186.955        2236.710
   -863022.403 6   -686750.909 5  24423345.587        2494.682
 -16550466.776 8 -11705256.126 9  21660265.798         467.610
 -11214339.054 7  -8734286.761 7  22957552.239       -1688.115
 93  5 10  6 14 30.0040000  0  7 17 28  3 22 26 23 21                0.004033980
 -10537404.104 8  -9285420.204 9  21976959.866        1284.973
  -9226711.250 6  -7202816.189 6  23954477.870       -2625.145
  -9632976.142 7  -6617711.703 7  22599678.678        2627.338
  -1620601.673 5  -1286413.341 5  24927986.923        2247.564
   -787963.869 6   -628263.720 5  24437628.721        2509.336
 -16536248.583 8 -11694176.998 9  21662971.457         480.364
 -11264820.481 7  -8773622.926 7  22947945.817       -1677.384
 93  5 10  6 15  0.0040000  0  7 17 28  3 22 26 23 21                0.004041830
 -10498731.221 8  -9255285.498 9  21984319.133        1293.262
  -9305316.122 6  -7264066.728 6  23939519.866       -2615.182
  -9553904.181 7  -6556097.214 7  22614725.671        2643.888
  -1553028.010 5  -1233758.569 5  24940845.245        2257.450
   -712471.778 6   -569438.760 5  24451994.459        2523.421
 -16521656.252 8 -11682806.353 9  21665747.945         492.277
 -11314998.572 7  -8812722.708 7  22938397.527       -1667.959
 93  5 10  6 15 30.0040000  0  7 17 28  3 22 26 23 21                0.004049680
 -10459791.531 8  -9224942.893 9  21991729.151        1302.764
  -9383605.867 6  -7325071.704 6  23924621.770       -2604.214
  -9474325.875 7  -6494088.155 7  22629868.866        2661.087
  -1485137.351 5  -1180856.767 5  24953764.276        2268.600
   -636554.048 6   -510282.104 6  24466441.177        2537.675
 -16506699.373 8 -11671151.630 9  21668593.954         504.998
 -11364891.466 7  -8851600.262 7  22928902.901       -1658.424
 93  5 10  6 16  0.0040000  0  7 17 28  3 22 26 23 21                0.004057520
 -10420568.723 8  -9194379.672 9  21999193.175        1312.123
  -9461578.706 6  -7385829.765 6  23909784.389       -2593.731
  -9394239.545 7  -6431683.248 7  22645108.786        2677.873
  -1416922.441 5  -1127702.323 5  24966745.713        2279.001
   -560216.110 6   -450798.065 6  24480967.867        2551.696
 -16491362.537 8 -11659200.854 9  21671512.455         517.481
 -11414512.585 7  -8890266.072 7  22919460.348       -1649.433
 93  5 10  6 16 30.0040000  0  7 17 28  3 22 26 23 21                0.004065360
 -10381071.503 8  -9163602.633 9  22006709.292        1320.894
  -9539227.079 6  -7446334.987 6  23895008.700       -2582.812
  -9313648.798 7  -6368885.287 7  22660444.560        2694.604
  -1348405.811 5  -1074312.753 5  24979784.507        2288.651
   -483450.273 6   -390980.518 6  24495576.114        2566.181
 -16475648.439 8 -11646956.091 9  21674503.003         530.124
 -11463856.081 7  -8928715.519 7  22910070.569       -1640.028
 93  5 10  6 17  0.0040000  0  7 17 28  3 22 26 23 21                0.004073180
 -10341313.349 8  -9132622.284 9  22014275.204        1329.600
  -9616548.125 6  -7506585.144 6  23880295.066       -2571.955
  -9232554.153 7  -6305694.685 7  22675876.458        2711.459
  -1279596.092 5  -1020694.820 5  24992877.277        2298.814
   -406238.720 6   -330815.685 6  24510268.550        2581.057
 -16459547.282 8 -11634409.740 9  21677567.172         543.145
 -11512906.873 7  -8966936.902 7  22900736.270       -1630.016
 93  5 10  6 17 30.0040000  0  7 17 28  3 22 26 23 21                0.004081020
 -10301305.135 8  -9101447.048 9  22021888.524        1337.637
  -9693552.997 6  -7566588.923 6  23865641.560       -2561.615
  -9150959.001 7  -6242114.059 7  22691403.439        2728.099
  -1210474.608 5   -966833.920 5  25006031.127        2309.113
   -328585.203 6   -270306.436 6  24525045.565        2595.948
 -16443067.369 8 -11621568.239 9  21680703.292         555.710
 -11561657.186 7  -9004924.131 8  22891459.522       -1619.807
 93  5 10  6 18  0.0040000  0  7 17 28  3 22 26 23 21                0.004088860
 -10261058.519 8  -9070086.081 9  22029546.962        1345.440
  -9770249.985 6  -7626352.828 6  23851046.294       -2551.373
  -9068862.022 7  -6178142.401 7  22707026.012        2744.801
  -1141055.455 5   -912741.068 5  25019241.877        2318.708
   -250482.247 6   -209446.981 6  24539908.026        2610.875
 -16426204.461 8 -11608428.318 9  21683912.270         568.432
 -11610083.315 7  -9042658.772 8  22882244.272       -1608.553
 93  5 10  6 18 30.0040000  0  7 17 28  3 22 26 23 21                0.004096710
 -10220581.183 8  -9038545.308 9  22037249.479        1353.067
  -9846632.389 6  -7685871.565 6  23836511.058       -2540.756
  -8986268.167 7  -6113783.579 7  22722743.481        2761.200
  -1071350.593 5   -858425.610 5  25032506.324        2328.341
   -171933.386 6   -148240.082 6  24554855.995        2625.640
 -16408966.559 8 -11594996.172 9  21687192.440         580.595
 -11658169.055 7  -9080128.154 8  22873094.125       -1597.224
 93  5 10  6 19  0.0040000  0  7 17 28  3 22 26 23 21                0.004104560
 -10179859.783 8  -9006814.362 9  22044998.414        1361.615
  -9922688.355 6  -7745135.967 6  23822038.058       -2529.741
  -8903178.664 7  -6049038.526 7  22738554.987        2777.720
  -1001348.854 5   -803878.848 5  25045826.623        2338.322
    -92942.409 6    -86688.640 6  24569887.513        2640.113
 -16391368.450 8 -11581283.364 9  21690541.011         592.310
 -11705919.359 7  -9117336.161 8  22864007.598       -1586.434
 93  5 10  6 19 30.0040000  0  7 17 28  3 22 26 23 21                0.004112420
 -10138881.626 8  -8974883.354 9  22052796.367        1370.165
  -9998415.585 6  -7804144.171 6  23807627.834       -2518.763
  -8819595.756 7  -5983909.017 7  22754460.504        2794.127
   -931058.441 5   -749107.108 5  25059202.595        2347.591
    -13527.680 6    -24807.062 6  24584999.357        2653.954
 -16373427.322 8 -11567303.265 9  21693954.989         603.771
 -11753349.465 7  -9154294.695 8  22854981.486       -1575.659
 93  5 10  6 20  0.0040000  0  7 17 28  3 22 26 23 21                0.004120270
 -10097643.985 8  -8942750.127 9  22060643.744        1378.788
 -10073796.769 6  -7862882.792 6  23793283.562       -2506.842
  -8735518.651 7  -5918394.407 7  22770459.908        2810.574
   -860487.015 5   -694116.383 5  25072631.838        2357.149
     66296.832 6     37393.877 6  24600189.353        2667.332
 -16355133.904 8 -11553048.655 9  21697436.129         615.540
 -11800460.245 7  -9191004.357 8  22846016.731       -1565.465
 93  5 10  6 20 30.0040000  0  7 17 28  3 22 26 23 21                0.004128140
 -10056147.875 8  -8910415.530 9  22068540.396        1387.494
 -10148820.409 6  -7921342.764 6  23779006.906       -2495.004
  -8650948.786 7  -5852495.836 7  22786553.046        2827.118
   -789616.157 5   -638892.389 5  25086118.498        2367.469
    146525.834 6     99910.015 6  24615456.695        2681.112
 -16336491.859 8 -11538522.389 9  21700983.763         627.220
 -11847277.242 7  -9227485.106 8  22837107.810       -1555.731
 93  5 10  6 21  0.0040000  0  7 17 28  3 22 26 23 21                0.004136010
 -10014394.398 8  -8877880.367 9  22076486.007        1395.904
 -10223499.526 6  -7979534.279 6  23764795.795       -2483.811
  -8565882.330 7  -5786210.298 6  22802740.552        2843.614
   -718439.887 5   -583430.357 5  25099662.809        2377.285
    227160.104 6    162741.958 6  24630801.068        2694.393
 -16317493.848 8 -11523718.738 9  21704598.979         639.177
 -11893808.315 7  -9263743.065 8  22828253.100       -1546.442
 93  5 10  6 21 30.0040000  0  7 17 28  3 22 26 23 21                0.004143880
  -9972399.726 8  -8845157.271 9  22084477.475        1403.739
 -10297850.913 6  -8037470.408 6  23750646.848       -2472.915
  -8480323.732 7  -5719541.279 7  22819021.900        2860.001
   -646985.172 5   -527751.378 5  25113259.847        2386.349
    308188.304 6    225880.838 6  24646219.985        2707.584
 -16298135.568 8 -11508634.366 9  21708282.858         651.378
 -11940055.204 7  -9299779.596 8  22819452.512       -1536.741
 93  5 10  6 22  0.0040000  0  7 17 28  3 22 26 23 21                0.004151740
  -9930164.059 8  -8812246.375 9  22092514.500        1411.806
 -10371866.270 6  -8095144.722 6  23736561.930       -2461.902
  -8394269.158 7  -5652485.805 6  22835397.404        2876.534
   -575254.223 5   -471857.169 5  25126910.376        2395.512
    389627.227 6    289339.774 6  24661717.592        2721.591
 -16278400.925 8 -11493256.726 9  21712038.249         663.937
 -11986009.613 7  -9335588.207 8  22810707.526       -1527.110
 93  5 10  6 22 30.0040000  0  7 17 28  3 22 26 23 21                0.004159600
  -9887677.160 8  -8779139.727 9  22100599.424        1420.470
 -10445566.952 6  -8152573.817 6  23722537.501       -2451.611
  -8307719.997 7  -5585044.915 6  22851866.901        2893.076
   -503258.339 5   -415756.502 5  25140610.984        2403.845
    471493.271 6    353131.493 6  24677295.846        2735.745
 -16258294.362 8 -11477589.279 9  21715864.349         676.379
 -12031666.416 7  -9371164.917 8  22802019.340       -1516.684
 93  5 10  6 23  0.0040000  0  7 17 28  3 22 26 23 21                0.004167440
  -9844932.709 8  -8745832.375 9  22108733.491        1429.192
 -10518954.580 6  -8209758.990 6  23708572.597       -2440.825
  -8220682.456 7  -5517223.491 6  22868429.615        2909.186
   -431024.094 5   -359470.081 5  25154356.471        2411.611
    553766.644 6    417240.645 6  24692951.949        2749.069
 -16237823.217 8 -11461637.749 9  21719760.013         688.242
 -12077014.660 7  -9406501.203 8  22793389.795       -1506.496
 93  5 10  6 23 30.0040000  0  7 17 28  3 22 26 23 21                0.004175270
  -9801912.504 8  -8712310.157 9  22116919.936        1438.715
 -10592000.568 6  -8266677.931 6  23694672.313       -2428.962
  -8133151.918 7  -5449017.890 6  22885086.063        2925.836
   -358551.834 5   -302998.222 5  25168146.836        2419.966
    636454.304 6    481672.637 6  24708686.667        2763.267
 -16216990.148 8 -11445404.196 9  21723724.437         700.511
 -12122041.725 7  -9441587.214 8  22784821.407       -1495.348
 93  5 10  6 24  0.0040000  0  7 17 28  3 22 26 23 21                0.004183090
  -9758613.234 8  -8678570.481 9  22125159.402        1447.946
 -10664694.398 6  -8323322.471 6  23680839.076       -2417.319
  -8045127.590 7  -5380427.556 6  22901836.647        2942.174
   -285826.906 5   -246329.473 5  25181985.636        2428.426
    719558.310 6    546429.025 6  24724500.682        2776.932
 -16195805.569 8 -11428896.730 9  21727755.729         711.767
 -12166745.016 7  -9476420.936 8  22776314.817       -1484.845
 93  5 10  6 24 30.0040000  0  7 17 28  3 22 26 23 21                0.004190920
  -9715037.875 8  -8644615.656 9  22133451.319        1456.852
 -10737030.621 7  -8379688.370 6  23667073.814       -2404.870
  -7956613.023 7  -5311455.162 6  22918680.388        2958.528
   -212851.987 5   -189465.914 5  25195872.919        2436.541
    803067.892 6    611501.485 5  24740392.073        2790.227
 -16174287.492 8 -11412129.391 9  21731850.303         722.685
 -12211131.161 7  -9511007.523 8  22767868.452       -1474.300
 93  5 10  6 25  0.0040000  0  7 17 28  3 22 26 23 21                0.004198750
  -9671207.040 8  -8610461.777 9  22141791.996        1465.100
 -10808977.811 7  -8435751.122 6  23653382.594       -2391.783
  -7867608.142 7  -5242100.751 6  22935617.593        2974.833
   -139629.738 5   -132409.617 5  25209806.601        2445.049
    886976.982 6    676885.252 5  24756359.790        2803.862
 -16152444.205 8 -11395108.661 9  21736006.736         733.545
 -12255204.650 7  -9545350.486 8  22759481.489       -1464.101
 93  5 10  6 25 30.0040000  0  7 17 28  3 22 26 23 21                0.004206600
  -9627134.809 8  -8576119.802 9  22150178.530        1473.020
 -10880542.916 7  -8491516.155 6  23639764.333       -2379.151
  -7778117.983 7  -5172368.185 6  22952646.753        2991.064
    -66154.851 5    -75156.471 5  25223787.916        2453.517
    971294.350 6    742587.111 5  24772404.742        2817.280
 -16130271.996 8 -11377831.616 9  21740226.154         744.827
 -12298982.827 7  -9579463.337 8  22751150.705       -1454.347
 93  5 10  6 26  0.0040000  0  7 17 28  3 22 26 23 21                0.004214470
  -9582817.227 8  -8541586.634 9  22158612.062        1481.706
 -10951726.578 7  -8546983.931 6  23626218.559       -2366.148
  -7688138.168 7  -5102254.088 6  22969769.679        3007.501
      7583.516 5    -17698.027 5  25237819.578        2462.477
   1056011.075 6    808600.162 5  24788525.468        2830.707
 -16107755.637 8 -11360286.415 9  21744510.799         756.573
 -12342466.072 7  -9613346.383 8  22742876.375       -1444.403
 93  5 10  6 26 30.0040000  0  8  1 17 28  3 22 26 23 21             0.004222450
   -532378.20515   -405693.42015  25876980.760       -3327.827
  -9538237.295 8  -8506849.054 9  22167095.508        1490.349
 -11022516.943 7  -8602145.253 6  23612747.804       -2353.037
  -7597668.041 6  -5031757.912 6  22986985.464        3023.713
     81582.572 5     39963.538 5  25251901.871        2471.037
   1141130.123 6    874926.765 5  24804723.326        2843.847
 -16084879.716 8 -11342461.011 9  21748864.054         768.483
 -12385649.264 7  -9646995.608 8  22734658.336       -1434.438
 93  5 10  6 27  0.0040000  0  8  1 17 28  3 22 26 23 21             0.004230350
   -632212.860 5   -483486.438 5  25857982.921       -3327.819
  -9493384.209 7  -8471898.614 9  22175630.919        1500.035
 -11092914.147 7  -8657000.247 7  23599351.809       -2340.164
  -7506707.945 7  -4960879.934 6  23004294.260        3040.069
    155850.579 5     97834.701 5  25266035.279        2480.404
   1226647.123 6    941563.427 5  24820996.571        2857.227
 -16061639.361 8 -11324351.673 9  21753286.455         780.956
 -12428531.221 7  -9680410.112 8  22726497.992       -1424.348
 93  5 10  6 27 30.0040000  0  8  1 17 28  3 22 26 23 21             0.004238240
   -732052.304 5   -561283.228 5  25838983.614       -3328.187
  -9448235.192 7  -8436717.564 9  22184222.602        1509.680
 -11162928.751 7  -8711557.068 7  23586028.851       -2327.438
  -7415260.009 7  -4889621.841 6  23021696.353        3056.114
    230395.497 5    155921.611 5  25280220.717        2489.218
   1312555.761 6   1008505.284 5  24837344.503        2869.881
 -16038028.862 8 -11305953.880 9  21757779.412         792.809
 -12471110.354 7  -9713588.655 8  22718395.551       -1414.136
 93  5 10  6 28  0.0040000  0  8  1 17 28  3 22 26 23 21             0.004246150
   -831890.671 5   -639079.162 5  25819984.622       -3327.643
  -9402795.761 7  -8401310.246 9  22192869.625        1519.601
 -11232548.400 7  -8765806.136 7  23572780.633       -2313.715
  -7323325.706 7  -4817984.743 6  23039191.059        3072.561
    305213.178 5    214221.096 5  25294457.487        2498.627
   1398861.216 6   1075756.357 5  24853768.213        2883.875
 -16014070.933 8 -11287285.377 9  21762338.288         804.378
 -12513367.409 7  -9746516.211 8  22710354.369       -1402.992
 93  5 10  6 28 30.0040000  0  8  1 17 28  3 22 26 23 21             0.004254070
   -931716.115 5   -716865.083 5  25800987.659       -3327.147
  -9357076.539 7  -8365684.881 9  22201569.683        1528.371
 -11301766.651 7  -8819742.442 7  23559608.651       -2300.675
  -7230904.829 6  -4745968.514 6  23056778.335        3088.713
    380302.964 5    272732.612 5  25308746.036        2507.559
   1485579.245 6   1143328.892 5  24870269.800        2897.324
 -15989774.501 8 -11268353.097 9  21766961.947         815.298
 -12555292.242 7  -9779184.893 8  22702376.621       -1391.907
 93  5 10  6 29  0.0040000  0  7 17 28  3 22 26 23 21                0.004261950
  -9311098.304 7  -8329857.700 9  22210318.827        1536.839
 -11370592.951 7  -8873373.321 7  23546511.059       -2287.629
  -7138001.713 7  -4673576.499 6  23074457.397        3104.706
    455656.537 5    331449.634 5  25323085.974        2515.966
   1572697.107 6   1211212.991 5  24886847.765        2910.588
 -15965148.391 8 -11249163.930 9  21771648.221         826.499
 -12596879.485 7  -9811590.540 8  22694462.930       -1380.467
 93  5 10  6 29 30.0040000  0  7 17 28  3 22 26 23 21                0.004269930
  -9264881.875 7  -8293844.918 9  22219113.139        1544.336
 -11439030.386 7  -8926701.185 7  23533487.516       -2274.642
  -7044622.043 6  -4600813.127 6  23092226.514        3120.450
    531244.212 5    390349.075 5  25337471.048        2523.252
   1660202.958 6   1279399.405 5  24903499.615        2923.339
 -15940194.793 8 -11229719.578 9  21776396.825         837.065
 -12638118.691 7  -9843724.962 8  22686615.312       -1368.791
 93  5 10  6 30  0.0040000  0  7 17 28  3 22 26 23 21                0.004277900
  -9218431.213 7  -8257649.604 9  22227952.459        1552.404
 -11507077.246 7  -8979724.704 7  23520538.829       -2261.863
  -6950766.325 7  -4527678.839 6  23110086.789        3136.259
    607050.571 5    449418.980 5  25351895.950        2530.383
   1748092.319 6   1347884.678 5  24920224.408        2935.785
 -15914916.899 8 -11210022.534 9  21781207.333         848.189
 -12679008.511 7  -9875587.136 8  22678834.249       -1357.391
 93  5 10  6 30 30.0040000  0  7 17 28  3 22 26 23 21                0.004285850
  -9171733.864 7  -8221262.085 9  22236838.657        1560.594
 -11574741.303 7  -9032449.938 7  23507663.113       -2249.271
  -6856436.905 6  -4454175.436 6  23128037.293        3151.905
    683063.771 5    508650.013 5  25366360.435        2536.984
   1836342.015 6   1416650.697 5  24937017.811        2947.161
 -15889294.238 8 -11190056.833 9  21786083.168         859.727
 -12719563.604 7  -9907188.510 8  22671116.922       -1346.580
 93  5 10  6 31  0.0040000  0  7 17 28  3 22 26 23 21                0.004293770
  -9124781.825 7  -8184676.088 9  22245773.523        1569.489
 -11642024.167 7  -9084878.130 7  23494859.759       -2236.313
  -6761637.058 6  -4380305.435 6  23146076.723        3167.693
    759275.309 5    568035.630 5  25380862.335        2543.795
   1924927.485 6   1485678.385 5  24953875.273        2958.479
 -15863324.831 8 -11169820.940 9  21791025.027         871.495
 -12759803.324 7  -9938544.110 8  22663459.612       -1336.308
 93  5 10  6 31 30.0040000  0  7 17 28  3 22 26 23 21                0.004301670
  -9077559.101 7  -8147879.171 9  22254759.450        1578.727
 -11708914.105 7  -9137000.153 7  23482130.929       -2223.210
  -6666364.118 6  -4306066.827 6  23164206.902        3183.402
    835696.090 5    627584.211 5  25395405.208        2550.834
   2013856.326 6   1554973.671 5  24970797.707        2970.079
 -15837005.306 8 -11149312.221 9  21796033.551         882.938
 -12799740.891 7  -9969664.270 8  22655859.563       -1326.504
 93  5 10  6 32  0.0040000  0  7 17 28  3 22 26 23 21                0.004309560
  -9030056.756 7  -8110864.378 9  22263798.953        1588.340
 -11775417.754 7  -9188821.192 7  23469475.759       -2210.151
  -6570626.594 6  -4231466.190 6  23182425.051        3199.021
    912333.676 5    687301.827 5  25409988.960        2558.402
   2103129.463 6   1624537.169 5  24987785.551        2981.680
 -15810345.171 8 -11128538.107 9  21801106.719         894.563
 -12839396.604 7 -10000564.815 8  22648313.408       -1317.064
 93  5 10  6 32 30.0040000  0  7 17 28  3 22 26 23 21                0.004317450
  -8982273.743 7  -8073630.857 9  22272891.907        1597.256
 -11841522.386 7  -9240331.277 7  23456896.179       -2196.726
  -6474423.251 6  -4156502.554 6  23200731.816        3214.472
    989195.372 5    747194.044 5  25424615.054        2565.936
   2192753.546 5   1694374.180 5  25004840.679        2993.554
 -15783340.599 8 -11107495.581 9  21806245.270         905.838
 -12878771.967 7 -10031246.902 8  22640820.627       -1307.753
 93  5 10  6 33  0.0040000  0  7 17 28  3 22 26 23 21                0.004325340
  -8934222.626 7  -8036188.443 9  22282035.897        1606.123
 -11907222.820 7  -9291526.408 7  23444393.882       -2183.235
  -6377756.600 6  -4081177.925 6  23219127.403        3229.788
   1066279.208 5    807259.343 5  25439283.465        2573.094
   2282750.035 5   1764501.346 5  25021965.902        3006.504
 -15756007.134 8 -11086196.791 9  21811446.689         916.607
 -12917861.477 7 -10061706.254 8  22633381.977       -1298.007
 93  5 10  6 33 30.0040000  0  8  1 17 28  3 22 26 23 21             0.004333250
      1663.61415    -27125.26611  25611225.943       -3321.814
  -8885912.185 7  -7998543.962 9  22291229.173        1614.522
 -11972514.929 7  -9342403.387 7  23431969.295       -2169.605
  -6280629.500 6  -4005494.506 6  23237610.107        3245.059
   1143581.550 5    867494.895 5  25453994.282        2580.306
   2373149.700 5   1834942.699 5  25039168.645        3020.130
 -15728346.881 8 -11064643.357 9  21816710.446         927.351
 -12956646.302 7 -10091928.183 8  22626001.236       -1287.588
 93  5 10  6 34  0.0040000  0  8  1 17 28  3 22 26 23 21             0.004341180
    -97972.503 5   -104764.834 1  25592267.081       -3320.649
  -8837351.065 7  -7960704.122 9  22300470.175        1622.712
 -12037394.716 7  -9392959.050 7  23419623.092       -2155.603
  -6183043.873 6  -3929453.793 6  23256180.061        3260.366
   1221095.068 5    927895.029 5  25468744.302        2587.347
   2463959.027 5   1905703.251 5  25056448.805        3033.804
 -15700360.541 8 -11042835.826 9  21822036.249         938.491
 -12995113.931 7 -10121902.962 8  22618681.132       -1276.890
 93  5 10  6 34 30.0040000  0  8  1 17 28  3 22 26 23 21             0.004349120
   -197580.820 5   -182381.557 4  25573310.842       -3319.826
  -8788557.624 7  -7922683.279 9  22309755.389        1630.163
 -12101859.359 7  -9443191.248 7  23407355.814       -2142.111
  -6085006.019 6  -3853060.683 6  23274835.744        3275.292
   1298809.532 5    988451.733 5  25483533.089        2593.720
   2555168.942 5   1976775.988 5  25073805.410        3046.877
 -15672040.433 8 -11020768.223 9  21827425.208         949.556
 -13033264.186 7 -10151630.401 8  22611421.668       -1266.370
 93  5 10  6 35  0.0040000  0  8  1 17 28  3 22 26 23 21             0.004357080
   -297148.431 5   -259966.610 5  25554362.955       -3317.931
  -8739532.779 7  -7884482.106 9  22319084.339        1638.203
 -12165918.895 7  -9493107.762 7  23395165.925       -2128.452
  -5986518.569 6  -3776317.250 6  23293577.251        3290.305
   1376721.612 5   1049162.414 5  25498359.354        2600.341
   2646771.883 5   2048154.935 5  25091236.971        3059.712
 -15643388.362 8 -10998441.934 9  21832877.295         960.666
 -13071088.919 7 -10181104.214 8  22604223.591       -1255.374
 93  5 10  6 35 30.0040000  0  8  1 17 28  3 22 26 23 21             0.004365050
   -396658.072 5   -337506.464 5  25535426.852       -3315.941
  -8690267.681 7  -7846093.730 9  22328459.109        1646.396
 -12229567.904 7  -9542704.395 7  23383053.989       -2114.617
  -5887585.315 6  -3699226.420 6  23312403.779        3305.158
   1454825.770 5   1110022.772 5  25513222.192        2606.567
   2738734.473 5   2119814.133 5  25108736.493        3070.969
 -15614400.643 8 -10975854.114 9  21838393.566         971.791
 -13108590.821 7 -10210326.464 8  22597087.152       -1244.704
 93  5 10  6 36  0.0040000  0  8  1 17 28  3 22 26 23 21             0.004373000
   -496111.412 5   -415002.461 5  25516501.673       -3314.142
  -8640742.322 7  -7807502.544 9  22337883.247        1655.350
 -12292802.282 7  -9591977.929 7  23371020.458       -2100.747
  -5788204.153 6  -3621786.584 6  23331315.526        3320.155
   1533106.135 5   1171020.457 5  25528118.160        2612.294
   2831020.093 6   2191725.029 5  25126297.951        3081.396
 -15585084.044 8 -10953010.014 9  21843972.423         982.735
 -13145778.362 7 -10239303.757 9  22590011.071       -1234.288
 93  5 10  6 36 30.0040000  0  8  1 17 28  3 22 26 23 21             0.004380930
   -595504.728 5   -492451.670 5  25497587.808       -3311.825
  -8590952.277 7  -7768705.114 9  22347357.897        1664.188
 -12355619.446 7  -9640926.368 7  23359066.565       -2086.890
  -5688376.054 6  -3543998.490 6  23350312.247        3334.949
   1611559.658 5   1232153.036 5  25543047.057        2617.953
   2923613.964 5   2263876.117 5  25143918.479        3091.656
 -15555453.444 8 -10929921.242 9  21849611.029         992.654
 -13182657.789 7 -10268040.958 9  22582993.240       -1224.073
 93  5 10  6 37  0.0040000  0  8  1 17 28  3 22 26 23 21             0.004388850
   -694823.826 5   -569843.114 5  25478688.637       -3309.510
  -8540892.153 7  -7729697.227 9  22356883.931        1673.245
 -12418010.616 7  -9689542.869 7  23347194.142       -2072.272
  -5588101.071 6  -3465862.164 6  23369393.966        3349.871
   1690173.521 5   1293410.571 5  25558006.265        2623.131
   3016508.959 6   2336261.870 5  25161595.249        3101.372
 -15525536.817 8 -10906609.591 9  21855303.768        1001.971
 -13219229.330 7 -10296538.239 9  22576033.976       -1213.976
 93  5 10  6 37 30.0040000  0  8  1 17 28  3 22 26 23 21             0.004396760
   -794086.557 5   -647190.590 5  25459800.462       -3307.898
  -8490564.418 7  -7690480.825 9  22366461.061        1682.012
 -12479963.241 7  -9737817.641 7  23335404.966       -2057.725
  -5487384.767 6  -3387381.951 6  23388559.637        3364.436
   1768936.981 5   1354784.688 5  25572995.350        2627.884
   3109693.048 6   2408872.879 5  25179327.625        3111.126
 -15495343.815 8 -10883082.579 9  21861049.380        1011.022
 -13255507.946 7 -10324807.295 9  22569130.208       -1204.465
 93  5 10  6 38  0.0040000  0  8  1 17 28  3 22 26 23 21             0.004404660
   -893300.948 5   -724500.428 5  25440921.232       -3306.388
  -8439973.853 7  -7651059.604 9  22376088.296        1690.413
 -12541479.677 7  -9785752.500 7  23323698.700       -2043.397
  -5386228.455 6  -3308558.871 6  23407809.339        3378.952
   1847853.397 5   1416277.924 5  25588013.458        2633.320
   3203191.442 6   2481728.856 5  25197119.956        3122.031
 -15464875.307 8 -10859340.897 9  21866847.117        1020.291
 -13291501.077 7 -10352853.870 9  22562280.877       -1195.139
 93  5 10  6 38 30.0040000  0  8  1 17 28  3 22 26 23 21             0.004412560
   -992468.693 5   -801773.920 5  25422049.615       -3304.733
  -8389139.883 7  -7611448.731 9  22385761.859        1698.634
 -12602562.646 7  -9833349.614 7  23312075.188       -2028.836
  -5284637.354 6  -3229397.021 6  23427141.687        3393.526
   1926942.187 5   1477905.496 5  25603064.261        2639.154
   3297014.695 6   2554837.941 5  25214974.229        3132.929
 -15434121.199 8 -10835376.663 9  21872699.465        1030.159
 -13327216.909 7 -10380684.375 9  22555484.144       -1185.907
 93  5 10  6 39  0.0040000  0  8  1 17 28  3 22 26 23 21             0.004420450
  -1091590.857 5   -879011.828 5  25403187.024       -3303.622
  -8338051.959 7  -7571639.966 9  22395483.588        1707.165
 -12663208.280 7  -9880605.946 7  23300534.604       -2014.403
  -5182606.640 6  -3149892.601 6  23446557.554        3408.219
   2006205.934 5   1539669.447 5  25618147.217        2645.316
   3391173.018 6   2628208.100 5  25232891.964        3144.286
 -15403054.034 8 -10811168.482 9  21878611.462        1041.054
 -13362649.938 7 -10408294.511 9  22548741.900       -1176.389
 93  5 10  6 39 30.0040000  0  8  1 17 28  3 22 26 23 21             0.004428360
  -1190685.427 5   -956228.325 5  25384330.148       -3302.798
  -8286708.172 7  -7531631.815 9  22405253.975        1715.647
 -12723436.776 7  -9927537.235 7  23289073.740       -2000.912
  -5080142.897 6  -3070050.746 6  23466055.448        3422.443
   2085662.694 5   1601583.741 5  25633267.007        2651.754
   3485676.126 6   2701846.914 5  25250875.717        3155.998
 -15371652.651 8 -10786699.885 9  21884587.195        1052.337
 -13397800.433 7 -10435684.496 9  22542052.593       -1166.968
 93  5 10  6 40  0.0040000  0  8  1 17 28  3 22 26 23 21             0.004436260
  -1289745.860 5  -1033418.237 5  25365479.571       -3301.337
  -8235105.920 7  -7491422.277 9  22415073.599        1724.441
 -12783252.967 7  -9974147.257 7  23277690.980       -1986.938
  -4977247.551 6  -2989872.592 6  23485635.384        3436.978
   2165316.547 5   1663651.659 5  25648423.046        2658.333
   3580535.268 5   2775763.140 5  25268926.267        3167.706
 -15339907.764 8 -10761963.618 9  21890628.024        1063.795
 -13432653.355 7 -10462842.614 9  22535420.602       -1156.575
 93  5 10  6 40 30.0040000  0  8  1 17 28  3 22 26 23 21             0.004444160
  -1388767.767 5  -1110578.071 5  25346636.067       -3299.987
  -8183242.948 7  -7451009.578 9  22424942.785        1733.295
 -12842646.566 7 -10020427.971 7  23266388.685       -1972.640
  -4873919.965 6  -2909357.621 6  23505297.962        3451.372
   2245155.365 5   1725863.666 5  25663615.559        2664.065
   3675732.228 5   2849942.609 5  25287041.636        3178.843
 -15307824.987 8 -10736964.047 9  21896733.108        1075.034
 -13467187.079 7 -10489751.987 9  22528848.803       -1145.565
 93  5 10  6 41  0.0040000  0  8  1 17 28  3 22 26 23 21             0.004452060
  -1487745.580 5  -1187703.570 5  25327800.753       -3298.454
  -8131110.099 7  -7410386.584 9  22434863.326        1742.204
 -12901610.682 7 -10066374.021 7  23255168.013       -1958.263
  -4770160.815 6  -2828506.364 6  23525042.451        3465.602
   2325162.640 5   1788206.966 5  25678840.910        2669.674
   3771264.451 5   2924383.331 5  25305220.774        3189.911
 -15275410.963 8 -10711706.366 9  21902901.298        1085.762
 -13501383.020 7 -10516398.143 9  22522341.476       -1134.306
 93  5 10  6 41 30.0040000  0  8  1 17 28  3 22 26 23 21             0.004459950
  -1586669.252 5  -1264786.897 5  25308976.549       -3296.429
  -8078706.876 7  -7369552.916 9  22444835.334        1751.203
 -12960134.189 7 -10111976.754 7  23244031.432       -1943.301
  -4665973.662 6  -2747321.587 6  23544868.858        3479.797
   2405328.330 5   1850673.687 5  25694096.278        2674.324
   3867120.608 5   2999076.504 5  25323461.283        3200.234
 -15242686.404 8 -10686206.728 9  21909128.647        1095.631
 -13535245.458 7 -10542784.445 9  22515897.628       -1123.350
 93  5 10  6 42  0.0040000  0  8  1 17 28  3 22 26 23 21             0.004467820
  -1685518.999 5  -1341812.581 5  25290166.197       -3293.442
  -8026033.779 7  -7328508.953 9  22454858.686        1760.510
 -13018200.410 7 -10157223.146 7  23232981.849       -1927.646
  -4561360.501 6  -2665804.859 6  23564776.224        3494.272
   2485622.677 5   1913240.687 5  25709377.173        2678.722
   3963275.160 5   3074002.145 5  25341758.496        3210.012
 -15209673.210 8 -10660482.153 9  21915410.926        1105.214
 -13568783.732 7 -10568918.140 9  22509515.666       -1112.565
 93  5 10  6 42 30.0040000  0  8  1 17 28  3 22 26 23 21             0.004475680
  -1784285.246 5  -1418773.234 5  25271371.413       -3290.915
  -7973082.717 7  -7287248.386 9  22464934.928        1769.703
 -13075802.324 7 -10202107.744 7  23222020.688       -1912.407
  -4456322.271 6  -2583956.926 6  23584764.525        3508.203
   2566039.655 5   1975903.258 5  25724680.256        2682.682
   4059711.244 5   3149147.189 5  25360109.609        3219.264
 -15176384.257 8 -10634542.721 9  21921745.611        1114.214
 -13602019.234 7 -10594815.925 9  22503191.105       -1103.055
 93  5 10  6 43  0.0040000  0  8  1 17 28  3 22 26 23 21             0.004483530
  -1882972.189 5  -1495672.110 5  25252591.118       -3288.314
  -7919849.948 7  -7245768.325 9  22475064.796        1779.098
 -13132943.414 7 -10246633.251 7  23211147.206       -1896.861
  -4350861.055 6  -2501779.389 6  23604833.634        3522.337
   2646591.206 5   2038670.656 5  25740008.333        2687.487
   4156429.887 5   3224512.414 5  25378513.861        3228.812
 -15142822.780 8 -10608390.917 9  21928131.810        1123.171
 -13634974.453 7 -10620495.292 9  22496919.757       -1094.081
 93  5 10  6 43 30.0040000  0  8  1 17 28  3 22 26 23 21             0.004491380
  -1981580.127 5  -1572509.364 5  25233826.414       -3285.600
  -7866338.974 7  -7204071.453 9  22485247.696        1788.417
 -13189616.567 7 -10290794.137 7  23200362.675       -1881.250
  -4244979.312 6  -2419274.144 6  23624981.956        3536.392
   2727284.389 5   2101548.399 5  25755363.666        2692.178
   4253438.321 5   3300103.411 5  25396974.220        3238.649
 -15108993.038 8 -10582030.091 9  21934569.493        1132.359
  13626546.83617     -7630.58311  22490699.242       -1084.942
 93  5 10  6 44  0.0040000  0  8  1 17 28  3 22 26 23 21             0.004499230
  -2080111.712 5  -1649287.202 5  25215076.892       -3283.356
  -7812551.602 7  -7162159.234 9  22495483.282        1797.414
 -13245823.298 7 -10334591.602 7  23189666.857       -1865.875
  -4138677.658 6  -2336441.729 6  23645210.390        3550.207
   2808117.876 5   2164535.535 5  25770746.300        2696.910
   4350749.554 5   3375930.368 5  25415492.471        3248.893
 -15074881.034 8 -10555449.314 9  21941060.630        1141.802
  13594138.912 7    -32876.764 2  22484532.243       -1075.555
 93  5 10  6 44 30.0040000  0  8  1 17 28  3 22 26 23 21             0.004507090
  -2178574.168 5  -1726011.127 5  25196340.041       -3280.996
  -7758501.036 7  -7120041.918 9  22505768.571        1805.767
 -13301566.727 7 -10378028.011 7  23179059.092       -1850.415
  -4031960.621 6  -2253285.624 6  23665518.123        3563.952
   2889106.272 5   2227643.333 5  25786157.470        2702.180
   4448382.052 5   3452007.655 5  25434071.310        3259.891
 -15040481.561 8 -10528644.539 9  21947606.658        1151.613
  13562022.589 7    -57904.875 5  22478420.664       -1065.513
 93  5 10  6 45  0.0040000  0  8  1 17 28  3 22 26 23 21             0.004514960
  -2276964.919 5  -1802679.171 5  25177617.110       -3278.317
  -7704210.540 7  -7077737.614 9  22516099.608        1813.601
 -13356842.168 7 -10421099.784 7  23168540.805       -1834.690
  -3924831.596 6  -2169808.483 6  23685903.810        3577.711
   2970250.252 5   2290872.346 5  25801597.555        2707.263
   4546352.980 5   3528348.659 5  25452714.258        3271.487
 -15005784.090 8 -10501607.547 9  21954209.517        1161.620
  13530213.056 7    -82691.494 6  22472367.623       -1055.143
 93  5 10  6 45 30.0040000  0  8  1 17 28  3 22 26 23 21             0.004522860
  -2375262.144 5  -1879274.377 5  25158911.946       -3274.983
  -7649683.720 7  -7035249.141 9  22526475.494        1821.451
 -13411648.703 7 -10463806.173 7  23158111.336       -1819.228
  -3817293.464 6  -2086012.576 6  23706367.701        3591.247
   3051534.819 5   2354210.941 5  25817065.659        2711.662
   4644664.404 5   3604955.008 5  25471422.818        3282.478
 -14970783.443 8 -10474334.327 9  21960870.037        1171.701
  13498725.968 7   -107226.863 7  22466375.702       -1043.933
 93  5 10  6 46  0.0040000  0  7  1 17 28  3 22 26 23                0.004530740
  -2473450.053 5  -1955784.381 5  25140226.906       -3270.966
  -7594915.131 7  -6992572.394 9  22536897.622        1829.706
 -13465984.223 7 -10506145.529 7  23147771.072       -1803.218
  -3709343.365 6  -2001895.636 6  23726909.982        3605.144
   3132955.414 5   2417655.510 5  25832560.388        2716.644
   4743300.689 5   3681814.451 5  25490192.347        3293.219
 -14935480.648 8 -10446825.651 9  21967587.663        1181.647
 93  5 10  6 46 30.0040000  0  8  1 17 28  3 22 26 23 21             0.004538670
  -2571528.406 6  -2032209.011 5  25121563.519       -3267.663
  -7539916.709 7  -6949716.478 9  22547363.395        1836.978
 -13519849.825 7 -10548118.724 8  23137521.187       -1787.776
  -3600986.745 6  -1917461.937 6  23747529.347        3618.440
   3214508.732 5   2481203.511 5  25848079.052        2720.257
   4842232.884 5   3758904.528 5  25509018.874        3302.299
 -14899895.816 8 -10419097.213 9  21974359.039        1190.691
    146460.03317    -16770.05811  22454583.695       -1022.191
 93  5 10  6 47  0.0040000  0  8  1 17 28  3 22 26 23 21             0.004546560
  -2669506.432 5  -2108555.466 5  25102919.309       -3264.212
  -7484683.516 7  -6906677.639 9  22557873.750        1845.258
 -13573249.837 7 -10589729.109 8  23127359.511       -1772.402
  -3492227.232 6  -1832714.273 6  23768225.708        3631.869
   3296166.084 5   2544832.581 5  25863617.523        2723.525
   4941434.627 5   3836204.609 5  25527896.297        3310.907
 -14864039.632 8 -10391157.342 9  21981182.402        1199.532
     17975.11617    -11693.57011  22448777.835       -1011.745
 93  5 10  6 47 30.0040000  0  8  1 17 28  3 22 26 23 21             0.004554430
  -2767383.854 5  -2184823.555 5  25084292.689       -3261.382
  -7429194.176 7  -6863439.198 9  22568433.218        1853.854
 -13626187.950 7 -10630979.578 8  23117285.565       -1756.760
  -3383061.465 6  -1747650.065 6  23788999.518        3645.479
   3377922.365 5   2608538.742 5  25879175.416        2726.757
   5040882.874 5   3913696.789 5  25546820.520        3318.839
 -14827918.701 8 -10363011.162 9  21988056.055        1208.389
    -12212.382 7    -35218.996 2  22443032.674       -1000.933
 93  5 10  6 48  0.0040000  0  8  1 17 28  3 22 26 23 21             0.004562260
  -2865184.576 5  -2261031.843 5  25065682.474       -3259.013
  -7373452.833 7  -6820004.397 9  22579040.794        1861.973
 -13678654.989 7 -10671862.988 8  23107301.697       -1741.378
  -3273492.893 6  -1662271.987 6  23809849.676        3658.563
   3459771.809 5   2672317.433 5  25894751.060        2729.512
   5140564.723 5   3991370.928 5  25565789.239        3326.452
 -14791533.954 8 -10334659.421 9  21994979.681        1217.071
    -42094.616 7    -58486.917 2  22437346.367        -991.658
 93  5 10  6 48 30.0040000  0  8  1 17 28  3 22 26 23 21             0.004570060
  -2962918.021 5  -2337187.747 5  25047085.186       -3256.761
  -7317462.032 7  -6776375.202 9  22589695.580        1870.566
 -13730654.328 7 -10712381.936 8  23097406.728       -1725.381
  -3163526.763 6  -1576584.119 5  23830775.491        3672.063
   3541705.301 5   2736161.681 5  25910342.645        2732.507
   5240487.241 5   4069232.619 5  25584803.990        3334.959
 -14754874.961 8 -10306093.980 9  22001955.713        1226.652
    -71701.501 7    -81556.051 1  22431712.370        -982.406
 93  5 10  6 49  0.0040000  0  8  1 17 28  3 22 26 23 21             0.004577840
  -3060575.188 5  -2413284.167 5  25028500.881       -3253.691
  -7261205.584 7  -6732539.011 9  22600400.859        1879.745
 -13782172.824 7 -10752526.224 8  23087603.006       -1709.225
  -3053158.837 6  -1490583.165 5  23851777.946        3685.412
   3623731.819 5   2800078.411 5  25925952.108        2736.041
   5340673.786 5   4147300.087 5  25603868.723        3344.000
 -14717926.296 8 -10277302.822 9  22008986.897        1236.552
   -101027.803 7   -104403.495 1  22426131.812        -972.861
 93  5 10  6 49 30.0040000  0  8  1 17 28  3 22 26 23 21             0.004585620
  -3158138.442 5  -2489307.408 5  25009935.003       -3250.389
  -7204679.927 7  -6688493.042 9  22611157.192        1888.655
 -13833198.462 7 -10792286.426 8  23077892.758       -1692.302
  -2942394.056 6  -1404272.965 5  23872855.368        3698.698
   3705872.325 5   2864083.948 5  25941582.945        2739.928
   5441131.297 5   4225578.659 5  25622984.158        3353.464
 -14680676.193 8 -10248276.758 9  22016075.388        1246.813
   -130078.462 7   -127034.184 2  22420603.838        -963.797
 93  5 10  6 50  0.0040000  0  8  1 17 28  3 22 26 23 21             0.004593410
  -3255589.328 5  -2565243.134 5  24991390.660       -3246.201
  -7147884.326 7  -6644236.742 9  22621965.089        1897.812
 -13883715.605 7 -10831650.451 8  23068279.294       -1675.557
  -2831231.583 6  -1317652.879 5  23894009.151        3711.992
   3788131.592 5   2928182.019 5  25957236.304        2744.161
   5541884.227 5   4304087.447 5  25642157.508        3363.601
 -14643120.706 8 -10219012.755 9  22023221.982        1256.816
   -158856.451 7   -149449.485 4  22415127.561        -954.488
 93  5 10  6 50 30.0040000  0  8  1 17 28  3 22 26 23 21             0.004601210
  -3352911.342 5  -2641078.391 5  24972870.933       -3241.851
  -7090821.506 7  -6599772.219 9  22632823.594        1906.489
 -13933735.240 7 -10870626.784 8  23058760.853       -1658.869
  -2719672.837 6  -1230724.036 5  23915238.344        3725.142
   3870516.453 5   2992378.000 5  25972913.943        2748.332
   5642938.605 5   4382831.086 5  25661387.744        3373.445
 -14605272.806 8 -10189520.899 9  22030423.985        1266.380
   -187337.774 7   -171642.685 6  22409707.930        -943.974
 93  5 10  6 51  0.0040000  0  8  1 17 28  3 22 26 23 21             0.004609040
  -3450090.172 5  -2716802.115 5  24954378.134       -3236.746
  -7033491.118 7  -6555099.187 9  22643733.079        1915.667
 -13983249.878 7 -10909209.610 8  23049338.876       -1642.078
  -2607719.220 6  -1143487.460 5  23936542.347        3738.263
   3953028.019 5   3056672.663 5  25988615.080        2752.390
   5744291.739 5   4461807.558 5  25680674.472        3383.377
 -14567141.635 8 -10159808.303 9  22037680.252        1275.814
   -215484.459 7   -193575.150 7  22404352.040        -932.448
 93  5 10  6 51 30.0040000  0  8  1 17 28  3 22 26 23 21             0.004616870
  -3547114.950 5  -2792405.780 5  24935915.389       -3231.995
  -6975889.491 7  -6510214.805 9  22654694.392        1924.241
 -14032262.112 7 -10947400.950 8  23040012.219       -1625.734
  -2495370.237 6  -1055942.831 5  23957921.466        3751.194
   4035655.252 5   3121057.438 5  26004338.033        2755.702
   5845940.267 5   4541014.263 5  25700017.936        3393.074
 -14528724.216 8 -10129872.660 9  22044990.800        1285.064
   -243289.638 7   -215241.516 7  22399060.894        -921.334
 93  5 10  6 52  0.0040000  0  8  1 17 28  3 22 26 23 21             0.004624710
  -3643996.644 5  -2867897.947 5  24917478.985       -3226.864
  -6918022.995 7  -6465124.033 9  22665706.027        1933.554
 -14080789.193 7 -10985214.257 8  23030777.806       -1609.434
  -2382628.654 6   -968092.277 5  23979375.213        3764.627
   4118380.143 5   3185518.369 5  26020080.011        2759.239
   5947879.271 5   4620447.273 5  25719416.360        3402.897
 -14490029.007 8 -10099720.549 9  22052354.182        1294.634
   -270746.952 7   -236636.818 8  22393835.770        -909.264
 93  5 10  6 52 30.0040000  0  8  1 17 28  3 22 26 23 21             0.004632550
  -3740743.552 5  -2943285.104 5  24899068.842       -3222.723
  -6859887.582 7  -6419823.726 9  22676769.020        1942.500
 -14128835.398 7 -11022652.868 8  23021634.834       -1593.132
  -2269496.331 6   -879937.250 5  24000903.679        3777.595
   4201200.529 5   3250053.689 5  26035841.064        2762.308
   6050096.719 5   4700097.224 5  25738867.556        3411.811
 -14451052.480 8 -10069349.252 9  22059771.078        1304.049
   -297863.031 7   -257766.222 8  22388675.662        -898.392
 93  5 10  6 53  0.0040000  0  7  1 17 28  3 26 23 21                0.004640460
  -3837358.231 5  -3018569.177 5  24880683.714       -3218.496
  -6801471.429 7  -6374304.629 9  22687885.284        1951.850
 -14176387.564 7 -11059706.477 8  23012585.838       -1577.073
  -2155976.010 6   -791479.875 5  24022505.785        3790.242
   6152581.339 5   4779955.376 5  25758369.955        3420.364
 -14411796.314 8 -10038760.026 9  22067241.386        1313.017
   -324671.345 7   -278655.793 8  22383574.244        -888.961
 93  5 10  6 53 30.0040000  0  7  1 17 28  3 26 23 21                0.004648300
  -3933849.556 5  -3093757.164 5  24862322.142       -3214.633
  -6742771.142 7  -6328564.162 8  22699055.581        1961.121
 -14223454.465 7 -11096381.990 8  23003629.338       -1560.867
  -2042068.014 6   -702720.424 5  24044181.565        3803.220
   6255324.700 5   4860015.149 5  25777921.046        3428.918
 -14372270.493 8 -10007960.694 9  22074762.939        1321.624
   -351202.566 7   -299329.475 9  22378525.399        -879.849
 93  5 10  6 54  0.0040000  0  7  1 17 28  3 26 23 21                0.004656130
  -4030220.435 5  -3168851.313 5  24843982.741       -3210.216
  -6683796.061 7  -6282609.554 8  22710278.411        1970.434
 -14270029.708 7 -11132674.387 8  22994766.206       -1544.099
  -1927774.827 6   -613660.810 5  24065931.262        3816.053
   6358317.004 5   4940268.871 5  25797520.074        3437.075
 -14332493.386 8  -9976965.555 9  22082332.478        1330.003
   -377452.831 7   -319784.206 9  22373530.418        -870.389
 93  5 10  6 54 30.0040000  0  8  1 17 28 31  3 26 23 21             0.004663940
  -4126464.970 6  -3243846.990 5  24825667.786       -3205.906
  -6624551.936 7  -6236445.321 8  22721552.056        1979.246
 -14316093.982 7 -11168568.625 8  22986000.453       -1526.695
   -265443.87616   -214189.45615  26014809.241       -2858.582
  -1813100.148 6   -524303.952 5  24087753.525        3828.783
   6461541.644 5   5020703.656 5  25817163.081        3444.802
 -14292475.292 8  -9945782.632 9  22089947.757        1337.847
   -403424.976 7   -340022.231 9  22368588.088        -860.882
 93  5 10  6 55  0.0040000  0  8  1 17 28 31  3 26 23 21             0.004671780
  -4222568.680 5  -3318732.911 5  24807379.970       -3201.009
  -6565041.535 7  -6190073.584 8  22732876.158        1987.975
 -14361635.118 7 -11204055.216 8  22977334.603       -1509.442
   -351097.142 6   -280932.297 5  25998509.695       -2851.542
  -1698044.157 6   -434649.965 5  24109647.896        3841.350
   6565001.100 5   5101321.404 5  25836850.479        3452.718
 -14252228.281 8  -9914421.345 9  22097606.765        1345.479
   -429102.536 7   -360030.699 9  22363701.572        -850.940
 93  5 10  6 55 30.0040000  0  8  1 17 28 31  3 26 23 21             0.004679620
  -4318521.420 6  -3393501.245 5  24789120.579       -3195.734
  -6505274.336 7  -6143501.745 8  22744249.473        1996.466
 -14406650.503 7 -11239132.132 8  22968768.382       -1491.478
   -436531.494 5   -347504.554 5  25982251.655       -2844.101
  -1582609.788 6   -344701.108 5  24131614.243        3854.046
   6668702.966 5   5182128.047 5  25856584.556        3460.821
 -14211736.710 8  -9882869.456 9  22105311.802        1353.938
   -454467.831 7   -379795.853 9  22358874.775        -840.058
 93  5 10  6 56  0.0040000  0  8  1 17 28 31  3 26 23 21             0.004687470
  -4414308.889 6  -3468140.771 5  24770892.683       -3190.009
  -6445253.470 7  -6096732.246 8  22755671.027        2005.015
 -14451121.909 7 -11273785.176 8  22960305.771       -1473.195
   -521742.115 5   -413902.460 5  25966036.446       -2836.588
  -1466797.105 6   -254457.502 5  24153652.353        3866.625
   6772652.609 5   5263127.786 5  25876365.461        3469.233
 -14170983.757 8  -9851113.940 9  22113066.772        1362.971
   -479508.465 7   -399308.024 9  22354109.702        -829.450
 93  5 10  6 56 30.0040000  0  8  1 17 28 31  3 26 23 21             0.004695330
  -4509930.953 6  -3542651.423 5  24752697.261       -3184.830
  -6384972.992 7  -6049760.448 8  22767142.065        2013.599
 -14495044.984 7 -11308010.935 8  22951947.178       -1455.304
   -606726.931 5   -480124.381 5  25949864.544       -2829.186
  -1350609.054 6   -163921.392 5  24175762.506        3878.880
   6876860.399 5   5344328.677 5  25896195.639        3477.918
 -14129961.410 8  -9819148.461 9  22120873.388        1371.798
   -504238.769 7   -418578.371 9  22349403.602        -819.368
 93  5 10  6 57  0.0040000  0  8  1 17 28 31  3 26 23 21             0.004703200
  -4605397.186 6  -3617040.665 5  24734531.038       -3179.641
  -6324429.043 7  -6002583.362 8  22778663.349        2022.661
 -14538439.265 7 -11341824.657 8  22943689.714       -1437.624
   -691487.738 6   -546171.757 5  25933735.099       -2821.415
  -1234051.947 6    -73097.716 5  24197942.643        3891.332
   6981326.219 5   5425730.572 5  25916074.660        3486.409
 -14088662.681 8  -9786967.652 9  22128732.197        1381.661
   -528672.081 7   -437617.297 9  22344754.298        -809.608
 93  5 10  6 57 30.0040000  0  8  1 17 28 31  3 26 23 21             0.004711050
  -4700721.514 6  -3691319.314 5  24716391.320       -3175.377
  -6263616.077 7  -5955196.654 8  22790235.956        2031.581
 -14581309.532 7 -11375230.067 8  22935531.503       -1420.319
   -776021.566 6   -612042.260 5  25917648.924       -2814.049
  -1117127.134 6     18012.520 5  24220192.641        3903.379
   7086032.383 5   5507319.795 5  25935999.499        3493.910
 -14047068.195 8  -9754556.364 9  22136646.969        1391.142
   -552818.442 7   -456432.643 9  22340159.539        -800.118
 93  5 10  6 58  0.0040000  0  8  1 17 28 31  3 26 23 21             0.004718890
  -4795920.281 6  -3765500.115 5  24698275.889       -3171.163
  -6202530.984 7  -5907597.884 8  22801860.032        2040.837
 -14623656.079 7 -11408227.362 8  22927473.549       -1402.807
   -860327.504 5   -677735.269 5  25901606.468       -2806.557
   -999839.906 6    109405.163 5  24242511.708        3915.411
   7190964.399 5   5589084.975 5  25955967.197        3501.535
 -14005193.042 8  -9721926.376 9  22144615.881        1400.437
   -576678.419 7   -475024.817 9  22335618.775        -790.600
 93  5 10  6 58 30.0040000  0  8  1 17 28 31  3 26 23 21             0.004726720
  -4890993.620 6  -3839583.209 5  24680184.092       -3166.916
  -6141159.855 7  -5859776.248 8  22813538.326        2050.581
 -14665476.198 7 -11440814.473 8  22919515.691       -1385.148
   -944402.962 5   -743248.611 5  25885607.388       -2798.543
   -882191.628 6    201079.080 5  24264899.551        3927.527
   7296123.647 5   5671027.258 5  25975978.649        3509.068
 -13963042.069 8  -9689081.475 9  22152637.079        1409.723
   -600245.610 7   -493388.854 9  22331133.977        -780.461
 93  5 10  6 59  0.0040000  0  8  1 17 28 31  3 26 23 21             0.004734530
  -4985934.483 6  -3913563.090 5  24662117.360       -3162.392
  -6079498.173 7  -5811728.189 8  22825271.835        2060.268
 -14706762.130 7 -11472985.332 8  22911659.169       -1367.091
  -1028244.715 5   -808579.891 5  25869653.094       -2790.800
   -764184.573 6    293032.625 5  24287355.204        3939.366
   7401505.497 5   5753142.990 5  25996032.156        3516.480
 -13920610.791 8  -9656018.154 9  22160711.239        1418.968
   -623503.914 7   -511512.198 9  22326708.111        -770.032
 93  5 10  6 59 30.0040000  0  8  1 17 28 31  3 26 23 21             0.004742330
  -5080731.190 6  -3987430.621 5  24644077.741       -3157.341
  -6017546.435 7  -5763454.129 8  22837060.851        2069.835
 -14747501.452 7 -11504730.266 8  22903906.485       -1348.818
  -1111851.643 5   -873728.152 5  25853743.543       -2782.911
   -645822.387 6    385262.850 5  24309878.924        3951.273
   7507121.884 5   5835441.414 5  26016129.951        3524.735
 -13877917.000 8  -9622750.276 9  22168835.574        1427.104
   -646441.804 7   -529385.880 9  22322343.235        -759.152
 93  5 10  7  0  0.0040000  0  8  1 17 28 31  3 26 23 21             0.004750130
  -5175355.765 6  -4061164.010 5  24626071.097       -3151.028
  -5955304.464 7  -5714953.898 8  22848905.113        2079.640
 -14787684.422 7 -11536041.666 8  22896260.048       -1330.173
  -1195218.501 5   -938689.355 5  25837878.643       -2774.842
   -527104.512 6    477770.267 5  24332469.772        3963.099
   7612994.883 5   5917939.822 5  26036276.225        3533.462
 -13834979.716 8  -9589292.656 9  22177006.408        1435.433
   -669051.638 7   -547003.912 9  22318040.764        -748.280
 93  5 10  7  0 30.0040000  0  8  1 17 28 31  3 26 23 21             0.004757940
  -5269795.000 6  -4134752.974 5  24608099.232       -3144.805
  -5892776.470 7  -5666230.795 8  22860803.864        2088.932
 -14827319.906 7 -11566926.447 8  22888717.692       -1312.093
  -1278345.008 5  -1003463.267 5  25822060.302       -2766.787
   -408035.992 6    570550.900 5  24355127.875        3974.728
   7719117.322 5   6000632.629 5  26056470.704        3541.386
 -13791796.420 8  -9555643.337 9  22185223.890        1443.672
   -691340.284 7   -564371.672 9  22313799.209        -737.430
 93  5 10  7  1  0.0040000  0  8  1 17 28 31  3 26 23 21             0.004765760
  -5364039.662 6  -4208190.350 5  24590164.833       -3138.077
  -5829976.359 7  -5617295.674 8  22872754.520        2097.807
 -14866421.397 7 -11597395.151 8  22881276.803       -1294.718
  -1361228.796 5  -1068048.013 5  25806287.761       -2758.725
   -288618.811 6    663603.215 5  24377852.715        3986.243
   7825466.744 5   6083502.260 5  26076708.448        3548.558
 -13748364.000 8  -9521799.915 9  22193488.947        1451.881
   -713305.826 7   -581487.677 9  22309619.271        -726.982
 93  5 10  7  1 30.0040000  0  8  1 17 28 31  3 26 23 21             0.004773580
  -5458073.546 6  -4281463.493 5  24572270.623       -3130.825
  -5766917.571 7  -5568158.959 8  22884754.453        2106.167
 -14905008.530 7 -11627463.043 8  22873933.975       -1277.620
  -1443869.646 5  -1132443.496 5  25790561.288       -2750.638
   -168858.606 6    756922.843 5  24400642.547        3997.687
   7932019.619 5   6166530.409 5  26096985.279        3554.846
 -13704688.615 8  -9487767.159 9  22201800.163        1459.966
   -734970.401 7   -598369.152 9  22305496.746        -717.249
 93  5 10  7  2  0.0040000  0  8  1 17 28 31  3 26 23 21             0.004781400
  -5551892.136 6  -4354568.844 5  24554417.749       -3124.013
  -5703607.060 7  -5518826.117 8  22896802.122        2114.405
 -14943078.883 7 -11657128.245 9  22866689.271       -1260.539
  -1526262.560 5  -1196645.753 5  25774882.172       -2742.317
    -48754.832 6    850510.162 5  24423497.604        4008.946
   8038752.957 5   6249699.193 5  26117295.932        3560.527
 -13660758.556 8  -9453535.959 9  22210159.877        1468.669
   -756341.240 7   -615021.755 9  22301429.712        -707.656
 93  5 10  7  2 30.0040000  0  8  1 17 28 31  3 26 23 21             0.004789210
  -5645509.270 6  -4427517.245 5  24536602.903       -3117.445
  -5640053.171 7  -5469303.612 8  22908896.022        2122.369
 -14980635.132 7 -11686392.855 9  22859542.387       -1243.264
  -1608404.104 5  -1260652.123 5  25759251.521       -2733.840
     71690.841 6    944363.877 5  24446418.307        4020.385
   8145657.361 5   6333001.350 5  26137639.104        3566.403
 -13616568.362 8  -9419102.057 9  22218568.895        1477.056
   -777422.529 7   -631448.726 9  22297418.307        -697.878
 93  5 10  7  3  0.0040000  0  8  1 17 28 31  3 26 23 21             0.004797020
  -5738940.696 6  -4500320.907 5  24518823.521       -3111.409
  -5576266.320 7  -5419599.595 8  22921034.187        2130.153
 -15017668.977 7 -11715250.397 9  22852495.225       -1225.491
  -1690294.171 5  -1324462.624 5  25743668.911       -2725.402
    192473.163 6   1038479.965 5  24469402.249        4031.586
   8252745.661 5   6416446.720 5  26158017.548        3572.986
 -13572142.434 8  -9384484.465 9  22227022.693        1484.637
   -798220.819 7   -647655.174 9  22293460.578        -688.720
 93  5 10  7  3 30.0040000  0  8  1 17 28 31  3 26 23 21             0.004804840
  -5832197.616 6  -4572988.623 5  24501077.427       -3105.787
  -5512235.764 7  -5369705.656 8  22933218.744        2138.687
 -15054152.567 7 -11743679.160 9  22845552.592       -1206.637
  -1771926.690 5  -1388072.351 5  25728134.245       -2716.491
    313593.818 6   1132859.650 5  24492450.539        4043.009
   8360047.245 5   6500058.350 5  26178436.631        3580.613
 -13527491.333 8  -9349691.414 9  22235519.340        1492.211
   -818738.051 7   -663642.621 9  22289556.471        -678.836
 93  5 10  7  4  0.0040000  0  8  1 17 28 31  3 26 23 21             0.004812650
  -5925307.660 6  -4645541.871 5  24483358.872       -3101.551
  -5447952.337 7  -5319614.696 8  22945451.234        2146.846
 -15090070.296 7 -11771666.996 9  22838717.604       -1187.864
  -1853297.964 5  -1451478.519 5  25712649.615       -2708.067
    435051.110 6   1227501.653 5  24515563.277        4053.923
   8467587.316 5   6583855.806 5  26198900.901        3588.779
 -13482610.372 8  -9314719.260 9  22244059.759        1499.790
   -838951.041 7   -679392.998 9  22285710.345        -668.662
 93  5 10  7  4 30.0040000  0  8  1 17 28 31  3 26 23 21             0.004820470
  -6018276.642 6  -4717985.215 5  24465668.057       -3096.462
  -5383413.919 7  -5269325.048 8  22957732.802        2155.728
 -15125412.924 7 -11799206.716 9  22831992.279       -1168.373
  -1934407.655 5  -1514680.862 5  25697214.816       -2699.269
    556839.931 6   1322401.988 5  24538738.836        4064.962
   8575383.533 5   6667852.854 5  26219414.033        3597.325
 -13437497.840 8  -9279566.641 9  22252644.454        1507.609
   -858852.539 7   -694900.658 9  22281923.176        -658.114
 93  5 10  7  5  0.0040000  0  8  1 17 28 31  3 26 23 21             0.004828280
  -6111091.553 6  -4790308.504 5  24448006.258       -3090.865
  -5318601.367 7  -5218821.786 8  22970066.355        2165.250
 -15160172.998 7 -11826292.501 9  22825377.786       -1148.921
  -2015255.425 5  -1577679.114 5  25681830.162       -2690.472
    678956.346 6   1417557.600 5  24561977.035        4076.061
   8683427.064 5   6752042.600 5  26239973.525        3605.440
 -13392150.445 8  -9244231.027 9  22261274.110        1515.867
   -878440.956 7   -710164.353 9  22278195.499        -647.745
 93  5 10  7  5 30.0040000  0  8  1 17 28 31  3 26 23 21             0.004836100
  -6203726.013 6  -4862491.178 6  24430378.866       -3084.832
  -5253496.365 7  -5168090.624 8  22982455.677        2174.919
 -15194349.305 7 -11852923.386 9  22818874.322       -1129.671
  -2095835.485 5  -1640468.769 5  25666496.614       -2681.635
    801401.012 6   1512968.982 5  24585277.544        4086.633
   8791707.016 5   6836416.577 5  26260578.616        3612.846
 -13346546.760 8  -9208695.708 9  22269952.002        1524.312
   -897718.856 7   -725186.090 9  22274527.055        -637.563
 93  5 10  7  6  0.0040000  0  8  1 17 28 31  3 26 23 21             0.004843910
  -6296163.135 6  -4934520.087 6  24412788.802       -3077.588
  -5188105.048 7  -5117136.374 8  22994899.242        2184.516
 -15227945.953 7 -11879102.582 9  22812481.556       -1110.098
  -2176148.738 5  -1703050.553 5  25651213.106       -2672.476
    924167.665 6   1608631.249 5  24608638.767        4097.543
   8900202.771 5   6920958.742 5  26281225.113        3619.908
 -13300682.397 8  -9172957.259 9  22278679.842        1533.109
   -916694.883 7   -739972.608 9  22270915.916        -627.583
 93  5 10  7  6 30.0040000  0  8  1 17 28 31  3 26 23 21             0.004851730
  -6388373.819 6  -5006372.531 6  24395241.537       -3069.887
  -5122420.256 7  -5065953.435 8  23007398.610        2194.554
 -15260961.821 7 -11904829.250 9  22806198.869       -1091.065
  -2256186.963 5  -1765417.982 5  25635982.799       -2663.369
   1047259.119 6   1704546.605 5  24632062.037        4108.298
   9008894.387 5   7005653.445 5  26301908.214        3625.947
 -13254565.157 8  -9137021.756 9  22287455.655        1541.334
   -935385.095 7   -754536.404 9  22267359.337        -618.444
 93  5 10  7  7  0.0040000  0  8  1 17 28 31  3 26 23 21             0.004859540
  -6480364.594 6  -5078053.642 6  24377736.594       -3062.846
  -5056441.537 7  -5014541.463 8  23019953.637        2203.967
 -15293422.182 7 -11930123.043 9  22800021.653       -1072.960
  -2335955.009 5  -1827574.908 5  25620803.526       -2654.436
   1170666.124 6   1800707.893 5  24655546.550        4118.561
   9117753.501 5   7090478.582 5  26322623.392        3631.446
 -13208210.473 8  -9100901.249 9  22296276.629        1549.034
   -953803.110 7   -768888.094 9  22263854.243        -609.461
 93  5 10  7  7 30.0040000  0  8  1 17 28 31  3 26 23 21             0.004867350
  -6572131.033 6  -5149559.928 6  24360272.902       -3055.216
  -4990175.039 7  -4962905.236 8  23032563.667        2213.520
 -15325330.016 7 -11954986.293 9  22793949.878       -1054.436
  -2415446.357 5  -1889516.239 5  25605676.897       -2645.190
   1294389.638 6   1897115.755 5  24679090.355        4129.202
   9226786.067 5   7175438.942 5  26343371.717        3637.113
 -13161619.833 8  -9064596.857 9  22305142.461        1556.673
   -971943.566 7   -783023.511 9  22260402.145        -599.986
 93  5 10  7  8  0.0040000  0  8  1 17 28 31  3 26 23 21             0.004875150
  -6663678.129 6  -5220895.315 6  24342851.764       -3047.780
  -4923632.643 7  -4911054.035 7  23045226.282        2222.766
 -15356687.810 7 -11979420.942 9  22787982.537       -1036.056
  -2494661.780 5  -1951242.574 5  25590602.415       -2635.714
   1418423.925 6   1993765.815 5  24702692.883        4139.631
   9335982.218 5   7260526.761 5  26364151.058        3642.732
 -13114800.375 8  -9028114.167 9  22314052.083        1564.621
   -989798.592 7   -796936.540 9  22257004.295        -590.140
 93  5 10  7  8 30.0040000  0  8  1 17 28 31  3 26 23 21             0.004882950
  -6755011.985 6  -5292064.510 6  24325471.727       -3040.960
  -4856812.522 7  -4858986.442 7  23057942.169        2231.908
 -15387501.865 7 -12003431.912 9  22782118.708       -1018.104
  -2573596.146 6  -2012749.891 5  25575582.322       -2626.434
   1542768.907 6   2090657.972 5  24726354.754        4149.874
   9445344.397 5   7345743.943 5  26384961.582        3648.066
 -13067750.136 8  -8991451.673 9  22323005.485        1572.180
  -1007356.686 7   -810618.157 9  22253663.330        -580.307
 93  5 10  7  9  0.0040000  0  7  1 17 28 31  3 23 21                0.004890730
  -6846129.839 6  -5363065.399 6  24308132.701       -3033.663
  -4789719.970 7  -4806706.526 7  23070709.471        2240.632
 -15417762.104 7 -12027011.317 9  22776360.323        -999.276
  -2652243.548 6  -2074033.548 5  25560616.308       -2616.770
   1667425.221 6   2187792.714 5  24750076.490        4160.236
 -13020466.754 8  -8954607.477 9  22332003.296        1579.823
  -1024606.668 7   -824059.691 9  22250380.811        -569.985
 93  5 10  7  9 30.0040000  0  7  1 17 28 31  3 23 21                0.004898530
  -6937027.919 6  -5433895.071 6  24290836.044       -3026.193
  -4722377.483 7  -4754231.906 7  23083524.460        2248.994
 -15447453.793 7 -12050147.712 9  22770709.904        -979.961
  -2730607.356 6  -2135096.257 5  25545703.906       -2607.227
   1792384.832 6   2285163.793 5  24773855.784        4170.361
 -12972959.974 8  -8917589.226 9  22341043.397        1587.386
  -1041561.154 7   -837271.013 9  22247154.484        -560.082
 93  5 10  7 10  0.0040000  0  7  1 17 28 31  3 23 21                0.004906320
  -7027709.860 6  -5504556.286 6  24273579.310       -3019.324
  -4654789.991 7  -4701566.319 7  23096385.735        2256.972
 -15476566.367 7 -12072832.828 9  22765170.012        -960.889
  -2808679.475 6  -2195931.684 5  25530847.452       -2597.527
   1917650.140 6   2382773.093 5  24797692.896        4180.490
 -12925224.514 8  -8880392.775 9  22350127.088        1594.879
  -1058210.441 7   -850244.463 9  22243986.210        -549.825
 93  5 10  7 10 30.0040000  0  7  1 17 28 31  3 23 21                0.004914100
  -7118181.703 6  -5575053.819 6  24256363.449       -3012.175
  -4586957.139 7  -4648709.598 7  23109293.848        2265.250
 -15505104.538 7 -12095070.364 9  22759739.461        -941.586
  -2886457.925 6  -2256538.263 5  25516046.667       -2587.729
   2043218.420 6   2480618.421 5  24821588.188        4190.521
 -12877280.145 8  -8843033.549 9  22359250.663        1601.355
  -1074556.644 7   -862981.764 9  22240875.584        -539.845
 93  5 10  7 11  0.0040000  0  7  1 17 28 31  3 23 21                0.004921890
  -7208437.099 6  -5645382.657 6  24239188.186       -3004.874
  -4518876.065 7  -4595659.442 7  23122249.039        2273.628
 -15533058.050 7 -12116852.357 9  22754420.192        -921.936
  -2963941.404 6  -2316914.985 5  25501302.418       -2577.764
   2169085.353 6   2578696.528 5  24845539.302        4200.527
 -12829146.095 8  -8805526.503 9  22368410.253        1607.750
  -1090599.208 7   -875482.470 9  22237822.626        -529.685
 93  5 10  7 11 30.0040000  0  7  1 17 28 31  3 23 21                0.004929660
  -7298475.620 6  -5715542.503 6  24222054.218       -2997.587
  -4450537.326 7  -4542408.496 7  23135253.457        2282.447
 -15560425.343 7 -12138177.518 9  22749212.397        -902.614
  -3041122.852 6  -2377056.402 5  25486615.419       -2567.564
   2295252.990 6   2677008.919 5  24869547.745        4210.483
 -12780811.923 8  -8767863.514 9  22377608.184        1614.601
  -1106336.106 7   -887744.978 9  22234828.389        -519.282
 93  5 10  7 12  0.0040000  0  7  1 17 28 31  3 23 21                0.004937440
  -7388298.846 6  -5785534.612 6  24204962.113       -2990.440
  -4381929.834 7  -4488948.142 7  23148308.940        2291.600
 -15587218.630 7 -12159055.403 9  22744113.868        -883.543
  -3117999.902 6  -2436960.591 5  25471986.047       -2557.451
   2421718.697 6   2775553.585 5  24893614.009        4220.407
 -12732277.996 8  -8730044.886 9  22386843.990        1621.131
  -1121759.582 7   -899763.280 9  22231893.400        -509.020
 93  5 10  7 12 30.0040000  0  7  1 17 28 31  3 23 21                0.004945230
  -7477895.662 6  -5855350.306 6  24187910.972       -2982.544
  -4313045.254 7  -4435271.861 7  23161417.422        2300.723
 -15613430.469 7 -12179480.221 9  22739126.101        -863.854
  -3194569.881 6  -2496625.480 5  25457415.447       -2547.143
   2548480.257 5   2874328.780 5  24917735.717        4230.203
 -12683539.697 8  -8692066.991 9  22396118.570        1628.391
  -1136889.942 7   -911553.148 9  22229014.213        -499.623
 93  5 10  7 13  0.0040000  0  7  1 17 28 31  3 23 21                0.004953010
  -7567247.458 6  -5924975.044 6  24170907.720       -2973.993
  -4243883.821 7  -4381379.863 7  23174578.613        2310.112
 -15639053.652 7 -12199446.339 9  22734250.166        -844.367
  -3270828.367 6  -2556047.654 5  25442903.884       -2536.589
   2675536.297 5   2973333.434 5  24941913.425        4240.026
 -12634561.965 8  -8653902.544 9  22405438.619        1637.046
  -1151740.011 7   -923124.637 9  22226188.109        -490.485
 93  5 10  7 13 30.0040000  0  7  1 17 28 31  3 23 21                0.004960810
  -7656339.114 6  -5994397.096 6  24153954.494       -2965.315
  -4174442.691 7  -4327269.923 7  23187792.926        2319.390
 -15664099.867 7 -12218962.868 9  22729484.167        -825.281
  -3346773.572 5  -2615225.726 5  25428451.611       -2526.201
   2802883.793 6   3072565.162 5  24966146.982        4249.662
 -12585318.615 8  -8615531.117 9  22414809.380        1645.788
  -1166318.770 7   -934484.716 9  22223413.899        -481.296
 93  5 10  7 14  0.0040000  0  7  1 17 28 31  3 23 21                0.004968610
  -7745169.025 6  -6063615.192 6  24137051.764       -2956.494
  -4104725.331 7  -4272944.711 7  23201059.632        2328.648
 -15688568.635 7 -12238029.451 9  22724827.768        -805.772
  -3422408.518 6  -2674162.047 5  25414058.389       -2515.904
   2930514.692 6   3172017.765 5  24990434.950        4259.030
 -12535827.772 8  -8576966.852 9  22424227.081        1653.811
  -1180629.787 7   -945636.161 9  22220690.596        -472.718
 93  5 10  7 14 30.0040000  0  7  1 17 28 31  3 23 21                0.004976420
  -7833721.284 6  -6132616.934 6  24120200.076       -2946.929
  -4034722.260 7  -4218396.906 7  23214380.580        2338.355
 -15712446.897 7 -12256635.899 9  22720283.666        -786.020
  -3497726.393 5  -2732851.259 5  25399725.929       -2505.197
   3058430.493 5   3271692.376 5  25014776.679        4268.503
 -12486086.826 8  -8538207.682 9  22433692.398        1662.227
  -1194679.377 7   -956583.904 9  22218016.896        -463.625
 93  5 10  7 15  0.0040000  0  7  1 17 28 31  3 23 21                0.004984230
  -7921998.228 6  -6201404.152 6  24103401.136       -2938.252
  -3964423.388 7  -4163618.582 7  23227757.957        2348.200
 -15735741.485 7 -12274787.520 9  22715851.062        -766.627
  -3572725.163 6  -2791291.885 5  25385454.306       -2494.582
   3186627.772 5   3371586.293 5  25039171.964        4277.790
 -12436110.181 8  -8499264.848 9  22443202.635        1669.558
  -1208445.556 7   -967310.780 9  22215397.200        -453.951
 93  5 10  7 15 30.0040000  0  7  1 17 28 31  3 23 21                0.004992050
  -8010019.295 6  -6269991.954 6  24086651.396       -2930.066
  -3893832.345 7  -4108612.600 7  23241190.719        2357.699
 -15758435.305 7 -12292471.036 9  22711532.554        -746.234
  -3647401.040 5  -2849480.881 5  25371243.907       -2483.825
   3315105.588 5   3471698.814 5  25063620.248        4287.065
 -12385923.537 8  -8460158.391 9  22452752.983        1676.037
  -1221909.183 7   -977801.915 9  22212835.434        -443.602
 93  5 10  7 16  0.0040000  0  7  1 17 28 31  3 23 21                0.004999860
  -8097802.304 6  -6338394.275 6  24069947.471       -2922.156
  -3822960.613 7  -4053387.882 7  23254677.403        2366.981
 -15780512.872 7 -12309674.343 9  22707331.371        -725.611
  -3721752.987 5  -2907417.442 5  25357094.959       -2473.059
   3443859.447 5   3572026.437 5  25088121.051        4296.123
 -12335548.693 8  -8420905.264 9  22462338.925        1682.370
  -1235070.558 7   -988057.530 9  22210330.879        -433.792
 93  5 10  7 16 30.0050000  0  7  1 17 28 31  3 23 21                0.005007670
  -8185347.141 6  -6406611.026 6  24053287.777       -2914.120
  -3751805.845 7  -3997942.665 7  23268218.077        2376.224
 -15801972.668 7 -12326396.271 9  22703247.677        -705.060
  -3795781.353 5  -2965101.865 5  25343007.645       -2462.060
   3572890.405 6   3672569.961 5  25112675.011        4305.229
 -12284969.222 8  -8381492.716 9  22471963.804        1689.371
  -1247917.850 7   -998068.417 9  22207886.191        -422.664
 93  5 10  7 17  0.0050000  0  7  1 17 28 31  3 23 21                0.005015470
  -8272651.271 6  -6474640.190 6  24036674.497       -2906.349
  -3680386.687 7  -3942291.382 7  23281808.560        2384.731
 -15822815.184 7 -12342637.192 9  22699281.476        -684.609
  -3869475.346 5  -3022525.744 5  25328984.388       -2450.987
   3702190.476 6   3773323.212 5  25137280.233        4314.318
 -12234183.696 8  -8341919.571 9  22481628.091        1696.201
  -1260435.282 7  -1007822.247 9  22205504.150        -412.067
 93  5 10  7 17 30.0050000  0  7  1 17 28 31  3 23 21                0.005023260
  -8359714.393 6  -6542481.560 6  24020107.614       -2897.999
  -3608721.528 7  -3886448.421 7  23295446.108        2392.957
 -15843046.172 7 -12358401.610 9  22695431.781        -664.448
  -3942835.962 6  -3079689.857 5  25315024.772       -2439.867
   3831760.712 6   3874286.989 5  25161937.116        4323.321
 -12183191.236 8  -8302185.214 9  22491331.696        1703.104
  -1272644.394 7  -1017335.848 9  22203181.077        -402.068
 93  5 10  7 18  0.0050000  0  7  1 17 28 31  3 23 21                0.005031040
  -8446520.194 6  -6610122.419 6  24003588.752       -2889.050
  -3536801.097 7  -3830406.557 7  23309132.202        2401.664
 -15862686.644 7 -12373705.888 9  22691694.228        -644.954
  -4015861.820 5  -3136593.125 5  25301128.003       -2428.616
   3961596.951 6   3975458.003 5  25186643.538        4332.167
 -12131985.034 8  -8262284.289 9  22501075.979        1710.565
  -1284560.831 7  -1026621.395 9  22200913.338        -392.294
 93  5 10  7 18 30.0050000  0  7  1 17 28 31  3 23 21                0.005038830
  -8533057.680 6  -6677554.210 6  23987120.455       -2880.139
  -3464629.413 7  -3774168.907 7  23322865.867        2409.858
 -15881744.609 7 -12388556.241 9  22688067.687        -625.610
  -4088549.331 5  -3193232.738 5  25287295.780       -2417.213
   4091697.922 5   4076835.324 5  25211400.942        4341.028
 -12080557.362 8  -8222210.787 9  22510862.593        1717.948
  -1296182.127 7  -1035676.960 9  22198701.570        -382.577
 93  5 10  7 19  0.0050000  0  7  1 17 28 31  3 23 21                0.005046620
  -8619329.346 6  -6744778.873 6  23970703.318       -2871.351
  -3392211.838 7  -3717739.658 7  23336646.517        2417.998
 -15900221.502 7 -12402953.845 9  22684551.731        -606.086
  -4160894.620 5  -3249605.669 5  25273528.872       -2405.872
   4222061.718 6   4178417.430 5  25236208.752        4349.575
 -12028914.407 8  -8181969.516 9  22520689.781        1724.848
  -1307532.576 7  -1044521.446 9  22196541.713        -374.101
 93  5 10  7 19 30.0050000  0  7  1 17 28 31  3 23 21                0.005054420
  -8705339.411 6  -6811799.672 6  23954336.717       -2862.454
  -3319542.176 7  -3661113.964 7  23350474.914        2426.830
 -15918102.682 7 -12416887.235 9  22681149.167        -585.947
  -4232897.917 6  -3305712.147 5  25259827.368       -2394.387
   4352683.342 5   4280200.445 5  25261064.993        4358.191
 -11977061.247 8  -8141564.482 9  22530556.830        1732.050
  -1318614.346 7  -1053156.606 9  22194432.615        -364.618
 93  5 10  7 20  0.0050000  0  7  1 17 28 31  3 23 21                0.005062210
  -8791081.547 6  -6878611.686 6  23938020.661       -2853.515
  -3246606.726 7  -3604281.171 7  23364353.846        2435.529
 -15935379.382 7 -12430349.595 9  22677861.275        -565.719
  -4304557.919 6  -3361551.120 5  25246190.677       -2382.953
   4483558.508 5   4382181.032 5  25285969.196        4366.564
 -11924990.592 8  -8100989.955 9  22540465.441        1739.241
  -1329407.952 7  -1061567.212 9  22192378.644        -354.806
 93  5 10  7 20 30.0050000  0  7  1 17 28 31  3 23 21                0.005070000
  -8876547.401 6  -6945208.418 6  23921756.575       -2844.309
  -3173404.558 7  -3547240.547 7  23378284.019        2444.577
 -15952040.187 7 -12443332.036 9  22674690.598        -545.210
  -4375867.880 6  -3417117.310 5  25232620.806       -2371.128
   4614688.860 5   4484360.473 5  25310922.225        4375.018
 -11872702.739 8  -8060246.179 9  22550415.462        1746.410
  -1339901.265 7  -1069743.812 9  22190382.198        -344.895
 93  5 10  7 21  0.0050000  0  7  1 17 28 31  3 23 21                0.005077790
  -8961740.652 6  -7011592.741 6  23905544.918       -2835.167
  -3099926.350 7  -3489984.823 7  23392266.643        2454.059
 -15968096.364 7 -12455843.356 9  22671635.166        -525.149
  -4446830.474 6  -3472412.843 5  25219117.100       -2359.552
   4746067.008 6   4586732.977 5  25335923.717        4383.222
 -11820215.784 8  -8019347.273 9  22560403.677        1752.753
  -1350100.603 7  -1077691.356 9  22188441.422        -334.803
 93  5 10  7 21 30.0050000  0  7  1 17 28 31  3 23 21                0.005085580
  -9046651.534 6  -7077757.027 6  23889387.001       -2825.292
  -3026160.786 7  -3432505.183 7  23406303.674        2463.731
 -15983557.534 7 -12467891.031 9  22668692.900        -505.574
  -4517443.315 6  -3527435.808 5  25205680.098       -2347.819
   4877689.508 5   4689295.905 5  25360971.468        4391.455
 -11767534.820 8  -7978297.169 9  22570428.400        1759.425
  -1359982.393 7  -1085391.446 9  22186561.103        -324.079
 93  5 10  7 22  0.0050000  0  7  1 17 28 31  3 23 21                0.005093360
  -9131260.402 6  -7143685.982 6  23873286.397       -2815.359
  -2952102.779 7  -3374797.664 7  23420396.328        2473.425
 -15998434.396 7 -12479483.387 9  22665862.111        -486.112
  -4587702.651 6  -3582183.354 5  25192310.310       -2336.031
   5009555.177 5   4792048.298 5  25386064.383        4399.413
 -11714655.829 8  -7937092.772 9  22580490.920        1765.799
  -1369553.072 7  -1092849.117 9  22184740.033        -313.985
 93  5 10  7 22 30.0050000  0  7  1 17 28 31  3 23 21                0.005101150
  -9215576.825 6  -7209387.047 6  23857241.697       -2805.841
  -2877758.387 7  -3316867.004 7  23434543.515        2482.804
 -16012724.070 7 -12490618.208 9  22663142.953        -466.536
  -4657606.513 6  -3636653.877 5  25179007.988       -2324.242
   5141660.669 5   4894987.565 5  25411202.903        4407.400
 -11661595.061 8  -7895746.731 9  22590588.281        1771.644
  -1378830.749 7  -1100078.481 9  22182974.486        -304.498
 93  5 10  7 23  0.0050000  0  7  1 17 28 31  3 23 21                0.005108940
  -9299604.802 6  -7274863.367 6  23841251.848       -2795.962
  -2803132.807 6  -3258717.202 7  23448744.263        2492.273
 -16026417.191 7 -12501288.193 9  22660536.836        -446.134
  -4727152.782 6  -3690845.775 5  25165773.859       -2312.086
   5274002.857 5   4998111.297 5  25436386.892        4415.319
 -11608355.363 8  -7854261.276 9  22600719.297        1777.848
  -1387819.382 7  -1107082.616 9  22181264.111        -294.768
 93  5 10  7 23 30.0050000  0  7  1 17 28 31  3 23 21                0.005116720
  -9383341.826 6  -7340112.978 6  23825316.617       -2786.559
  -2728235.470 6  -3200355.658 7  23462996.658        2500.805
 -16039491.615 7 -12511476.040 9  22658048.880        -425.404
  -4796339.243 6  -3744757.297 5  25152607.931       -2300.296
   5406578.150 5   5101416.632 5  25461614.910        4422.745
 -11554923.962 8  -7812626.426 9  22610887.138        1784.154
  -1396528.818 7  -1113869.181 9  22179606.806        -286.066
 93  5 10  7 24  0.0050000  0  7  1 17 28 31  3 23 21                0.005124510
  -9466802.011 6  -7405146.861 6  23809434.132       -2777.549
  -2653082.493 7  -3141794.913 7  23477298.165        2509.401
 -16051937.455 7 -12521174.118 9  22655680.648        -404.216
  -4865168.461 6  -3798390.449 5  25139510.360       -2288.280
   5539379.512 5   5204898.129 5  25486885.994        4430.464
 -11501311.878 8  -7770850.821 9  22621089.366        1790.061
  -1404989.312 7  -1120461.791 9  22177996.831        -277.896
 93  5 10  7 24 30.0050000  0  7  1 17 28 31  3 23 21                0.005132300
  -9549999.677 6  -7469976.184 7  23793602.145       -2768.643
  -2577678.479 6  -3083038.559 7  23491647.033        2517.614
 -16063751.713 7 -12530380.039 9  22653432.425        -383.438
  -4933636.013 6  -3851741.777 5  25126481.480       -2276.264
   5672405.942 5   5308555.020 5  25512199.609        4437.708
 -11447521.628 8  -7728936.325 9  22631325.218        1796.172
  -1413205.674 8  -1126864.164 9  22176433.265        -269.856
 93  5 10  7 25  0.0050000  0  7  1 17 28 31  3 23 21                0.005140090
  -9632909.987 6  -7534581.602 7  23777825.305       -2758.696
  -2502016.090 7  -3024080.865 7  23506045.564        2526.669
 -16074933.961 7 -12539093.475 9  22651304.588        -362.006
  -5001737.672 6  -3904807.975 5  25113522.151       -2263.922
   5805656.393 5   5412386.463 5  25537556.614        4445.351
 -11393534.009 8  -7686868.059 9  22641598.637        1802.994
  -1421169.022 7  -1133069.358 9  22174917.843        -261.043
 93  5 10  7 25 30.0050000  0  7  1 17 28 31  3 23 21                0.005147890
  -9715533.186 6  -7598963.293 7  23762102.765       -2749.379
  -2426088.819 7  -2964916.769 7  23520494.019        2535.234
 -16085490.411 7 -12547319.295 9  22649295.978        -341.638
  -5069472.037 6  -3957588.020 5  25100632.894       -2251.726
   5939128.206 5   5516390.389 5  25562955.817        4452.467
 -11339352.211 8  -7644648.488 9  22651909.110        1809.123
  -1428872.979 7  -1139072.449 9  22173451.827        -252.418
 93  5 10  7 26  0.0050000  0  7  1 17 28 31  3 23 21                0.005155680
  -9797863.596 7  -7663116.850 7  23746435.603       -2739.215
  -2349895.634 7  -2905545.474 7  23534993.060        2544.331
 -16095434.494 7 -12555067.955 9  22647403.638        -321.258
  -5136834.197 6  -4010077.992 5  25087814.398       -2239.064
   6072819.508 5   5620565.343 5  25588396.260        4459.974
 -11284984.148 8  -7602283.784 9  22662255.038        1815.448
  -1436305.667 7  -1144864.154 9  22172037.198        -243.159
 93  5 10  7 26 30.0050000  0  7  1 17 28 31  3 23 21                0.005163480
  -9879871.529 7  -7727019.121 7  23730830.369       -2727.891
  -2273425.963 6  -2845958.737 7  23549544.368        2553.607
 -16104764.761 7 -12562338.287 9  22645627.900        -300.699
  -5203818.901 6  -4062273.862 5  25075067.692       -2226.500
   6206730.920 5   5724911.843 5  25613878.304        4467.227
 -11230420.836 8  -7559766.930 9  22672638.119        1821.959
  -1443447.771 7  -1150429.441 9  22170678.138        -233.003
 93  5 10  7 27  0.0050000  0  7  1 17 28 31  3 23 21                0.005171270
  -9961549.517 7  -7790664.271 7  23715287.520       -2717.490
  -2196684.544 6  -2786160.232 7  23564148.039        2562.421
 -16113479.400 7 -12569128.939 9  22643969.577        -280.289
  -5270426.744 6  -4114176.078 5  25062392.898       -2213.982
   6340855.939 5   5829424.762 5  25639401.929        4474.257
 -11175676.059 8  -7517108.671 9  22683055.808        1827.581
  -1450291.648 7  -1155762.329 9  22169375.861        -223.174
 93  5 10  7 27 30.0050000  0  7  1 17 28 31  3 23 21                0.005179050
 -10042913.327 7  -7854064.624 7  23699804.248       -2706.592
  -2119683.116 6  -2726159.138 7  23578801.016        2570.920
 -16121583.039 7 -12575443.447 9  22642427.583        -259.920
  -5336656.895 6  -4165783.947 5  25049789.420       -2201.384
   6475191.004 5   5934101.364 5  25664965.214        4481.170
 -11120759.273 8  -7474316.384 9  22693506.053        1833.587
  -1456842.516 7  -1160866.909 9  22168129.264        -213.613
 93  5 10  7 28  0.0050000  0  7  1 17 28 31  3 23 21                0.005186820
 -10123935.609 7  -7917198.851 7  23684386.178       -2694.991
  -2042425.535 6  -2665958.439 7  23593502.658        2579.679
 -16129069.202 7 -12581276.854 9  22641002.820        -239.129
  -5402504.735 6  -4217093.938 5  25037259.167       -2188.464
   6609735.186 5   6038940.902 5  25690568.260        4488.239
 -11065658.184 8  -7431380.507 9  22703991.494        1839.905
  -1463109.407 7  -1165750.200 9  22166936.710        -204.139
 93  5 10  7 28 30.0050000  0  7  1 17 28 31  3 23 21                0.005194590
 -10204630.267 7  -7980077.760 7  23669030.462       -2684.597
  -1964917.329 6  -2605562.437 7  23608252.037        2587.788
 -16135935.939 7 -12586627.560 9  22639696.552        -218.437
  -5467975.393 6  -4268110.018 5  25024800.643       -2175.966
   6744478.792 6   6143935.814 5  25716209.694        4494.721
 -11010373.594 8  -7388301.595 9  22714511.899        1846.043
  -1469100.253 7  -1170418.392 9  22165796.408        -194.927
 93  5 10  7 29  0.0050000  0  7  1 17 28 31  3 23 21                0.005202350
 -10285022.021 7  -8042720.661 7  23653732.768       -2674.644
  -1887158.538 6  -2544971.205 7  23623048.804        2596.447
 -16142176.409 7 -12591490.275 9  22638508.947        -197.456
  -5533064.423 6  -4318828.761 5  25012414.546       -2163.138
   6879420.395 6   6249085.019 5  25741888.499        4501.372
 -10954895.524 8  -7345071.936 9  22725069.241        1852.812
  -1474817.863 7  -1174873.673 9  22164708.732        -186.077
 93  5 10  7 29 30.0050000  0  7  1 17 28 31  3 23 21                0.005210100
 -10365103.387 7  -8105121.706 7  23638493.521       -2664.282
  -1809124.645 6  -2484165.601 7  23637898.153        2605.645
 -16147781.031 7 -12595857.519 9  22637442.098        -176.307
  -5597759.457 6  -4369240.462 5  25000102.941       -2149.964
   7014567.261 5   6354394.197 5  25767606.334        4508.053
 -10899202.917 8  -7301675.119 9  22735667.165        1859.768
  -1480262.312 7  -1179116.099 9  22163673.069        -177.096
 93  5 10  7 30  0.0050000  0  7  1 17 28 31  3 23 21                0.005217860
 -10444882.229 6  -8167286.993 7  23623311.710       -2654.562
  -1730813.387 6  -2423143.864 7  23652800.019        2615.114
 -16152750.492 7 -12599729.827 9  22636496.368        -155.015
  -5662063.002 6  -4419347.103 5  24987866.131       -2136.887
   7149912.097 5   6459857.585 5  25793361.392        4514.723
 -10843313.017 8  -7258124.551 9  22746302.624        1866.078
  -1485435.637 7  -1183147.282 9  22162688.889        -167.743
 93  5 10  7 30 30.0050000  0  7  1 17 28 31  3 23 21                0.005225620
 -10524381.406 7  -8229234.399 7  23608183.425       -2645.158
  -1652225.029 6  -2361906.180 7  23667754.975        2624.238
 -16157086.490 7 -12603108.547 9  22635671.500        -134.037
  -5725974.133 6  -4469147.966 5  24975704.672       -2123.700
   7285450.141 5   6565471.547 5  25819153.545        4521.072
 -10787246.080 8  -7214436.046 9  22756971.577        1871.789
  -1490331.171 7  -1186961.985 9  22161756.886        -158.555
 93  5 10  7 31  0.0050000  0  7  1 17 28 31  3 23 21                0.005233380
 -10603584.880 7  -8290951.344 7  23593111.432       -2634.993
  -1573352.022 6  -2300446.713 6  23682764.364        2633.824
 -16160797.669 7 -12606000.393 9  22634965.700        -113.500
  -5789488.372 6  -4518639.594 5  24963618.189       -2110.552
   7421180.730 5   6671235.558 5  25844982.349        4527.329
 -10731015.624 8  -7170620.112 9  22767671.820        1876.745
  -1494951.326 8  -1190562.112 9  22160877.502        -149.454
 93  5 10  7 31 30.0050000  0  7  1 17 28 31  3 23 21                0.005241150
 -10682471.780 7  -8352421.607 7  23578100.139       -2624.183
  -1494207.150 6  -2238775.385 6  23697825.137        2642.332
 -16163901.030 7 -12608418.613 9  22634375.500         -93.348
  -5852606.531 6  -4567822.543 5  24951607.269       -2097.297
   7557098.412 5   6777145.297 5  25870846.706        4533.483
 -10674645.429 8  -7126695.301 9  22778398.712        1881.250
  -1499287.468 7  -1193940.939 9  22160052.265        -139.691
 93  5 10  7 32  0.0050000  0  7  1 17 28 31  3 23 21                0.005248910
 -10761026.509 7  -8413633.062 7  23563151.680       -2612.932
  -1414812.477 6  -2176909.439 6  23712933.268        2650.523
 -16166400.258 7 -12610366.064 9  22633899.798         -73.350
  -5915324.207 6  -4616693.467 5  24939672.464       -2084.018
   7693201.730 5   6883199.743 5  25896746.752        4539.711
 -10618136.956 8  -7082662.755 9  22789152.158        1885.890
  -1503331.107 7  -1197091.814 9  22159282.688        -130.026
 93  5 10  7 32 30.0050000  0  7  1 17 28 31  3 23 21                0.005256660
 -10839240.763 7  -8474579.202 7  23548268.043       -2601.177
  -1335172.014 6  -2114851.943 6  23728088.186        2658.946
 -16168297.215 7 -12611844.217 9  22633538.927         -53.122
  -5977637.991 6  -4665249.648 5  24927814.814       -2070.230
   7829489.347 5   6989397.748 5  25922681.566        4546.045
 -10561478.473 8  -7038513.300 9  22799933.805        1891.522
  -1507086.482 8  -1200018.083 9  22158568.121        -120.307
 93  5 10  7 33  0.0050000  0  7  1 17 28 31  3 23 21                0.005264410
 -10917114.999 7  -8535260.420 7  23533448.862       -2589.945
  -1255290.330 6  -2052606.494 6  23743289.282        2666.873
 -16169599.848 7 -12612859.279 9  22633290.907         -33.051
  -6039549.281 6  -4713492.202 5  24916033.250       -2056.652
   7965955.107 5   7095734.595 5  25948649.560        4552.034
 -10504658.275 8  -6994237.854 9  22810746.468        1897.111
  -1510560.417 7  -1202725.057 9  22157906.890        -110.739
 93  5 10  7 33 30.0050000  0  7  1 17 28 31  3 23 21                0.005272160
 -10994651.616 7  -8595678.539 7  23518693.687       -2579.083
  -1175175.572 6  -1990179.414 6  23758534.598        2674.447
 -16170281.449 7 -12613390.393 9  22633161.429         -12.108
  -6101047.925 6  -4761413.207 5  24904330.531       -2043.060
   8102602.945 5   7202213.351 5  25974653.371        4557.794
 -10447655.772 8  -6949820.327 9  22821593.710        1903.177
  -1513747.362 8  -1205208.394 9  22157300.460        -101.710
 93  5 10  7 34  0.0050000  0  7  1 17 28 31  3 23 21                0.005279900
 -11071866.058 7  -8655845.596 7  23504000.499       -2568.633
  -1094812.105 6  -1927558.549 6  23773827.753        2683.242
 -16170327.983 7 -12613426.673 9  22633152.407           9.030
  -6162136.987 6  -4809015.065 5  24892705.781       -2029.592
   8239425.491 5   7308828.197 5  26000689.888        4563.446
 -10390473.084 8  -6905262.407 9  22832475.137        1908.964
  -1516669.688 8  -1207485.525 9  22156744.364         -93.106
 93  5 10  7 34 30.0050000  0  7  1 17 28 31  3 23 21                0.005287650
 -11148764.022 7  -8715766.058 7  23489367.510       -2557.915
  -1014171.465 6  -1864721.696 6  23789173.155        2692.753
 -16169728.769 7 -12612959.751 9  22633266.395          30.858
  -6222813.209 6  -4856295.232 5  24881159.461       -2015.547
   8376420.908 5   7415577.761 5  26026760.435        4569.326
 -10333114.810 8  -6860567.649 9  22843389.739        1914.915
  -1519325.781 8  -1209555.224 9  22156239.087         -83.981
 93  5 10  7 35  0.0050000  0  7  1 17 28 31  3 23 21                0.005295390
 -11225333.999 7  -8775430.967 8  23474796.277       -2546.888
   -933243.635 6  -1801661.059 6  23804572.947        2702.226
 -16168469.602 7 -12611978.595 9  22633505.860          53.023
  -6283071.781 6  -4903249.951 5  24869692.236       -2001.690
   8513588.798 5   7522461.701 5  26052862.212        4574.876
 -10275581.832 8  -6815736.780 9  22854337.910        1920.531
  -1521702.734 8  -1211407.388 9  22155786.698         -74.720
 93  5 10  7 35 30.0050000  0  7  1 17 28 31  3 23 21                0.005303140
 -11301565.232 7  -8834831.896 8  23460289.909       -2535.092
   -852024.525 6  -1738373.454 6  23820028.326        2712.564
 -16166545.251 7 -12610479.119 9  22633872.297          75.100
  -6342911.796 6  -4949878.518 5  24858305.002       -1987.607
   8650924.118 5   7629476.114 5  26078994.999        4580.590
 -10217878.589 8  -6770773.233 9  22865318.441        1926.186
  -1523802.553 7  -1213043.609 9  22155387.135         -65.218
 93  5 10  7 36  0.0050000  0  7  1 17 28 31  3 23 21                0.005310880
 -11377442.790 7  -8893957.237 8  23445851.215       -2523.224
   -770498.133 6  -1674846.404 6  23835542.546        2722.517
 -16163980.614 7 -12608480.705 9  22634359.949          95.971
  -6402332.387 6  -4996180.279 5  24846997.770       -1973.724
   8788423.377 5   7736618.281 5  26105160.714        4585.884
 -10160012.426 8  -6725682.732 9  22876329.967        1931.772
  -1525619.890 7  -1214459.727 9  22155041.313         -55.740
 93  5 10  7 36 30.0050000  0  7  1 17 28 31  3 23 21                0.005318620
 -11452962.171 7  -8952803.483 8  23431480.343       -2511.217
   -688692.928 6  -1611102.087 6  23851109.168        2731.049
 -16160791.743 7 -12605995.901 9  22634966.929         116.629
  -6461332.736 6  -5042154.574 5  24835770.515       -1959.560
   8926082.108 5   7843884.675 5  26131355.967        4591.152
 -10101971.057 8  -6680455.720 9  22887374.990        1937.891
  -1527149.620 8  -1215651.721 9  22154750.205         -46.170
 93  5 10  7 37  0.0050000  0  7  1 17 28 31  3 23 21                0.005326350
 -11528114.445 7  -9011363.691 8  23417179.772       -2498.782
   -606637.027 6  -1547162.454 6  23866723.713        2739.268
 -16156987.340 7 -12603031.435 9  22635690.999         137.029
  -6519908.050 6  -5087797.675 5  24824623.861       -1945.414
   9063899.885 5   7951275.046 5  26157581.830        4596.414
 -10043737.773 8  -6635079.148 9  22898456.579        1944.371
  -1528392.780 7  -1216620.431 9  22154513.700         -36.889
 93  5 10  7 37 30.0050000  0  7  1 17 28 31  3 23 21                0.005334080
 -11602900.615 7  -9069638.608 8  23402948.506       -2486.468
   -524342.948 6  -1483037.207 6  23882384.288        2747.362
 -16152590.015 7 -12599604.958 9  22636527.838         156.498
  -6578062.824 6  -5133113.065 5  24813557.121       -1931.235
   9201867.489 5   8058782.134 5  26183836.482        4601.576
  -9985319.013 8  -6589558.044 9  22909573.313        1950.489
  -1529368.013 7  -1217380.356 9  22154328.087         -27.742
 93  5 10  7 38  0.0050000  0  7  1 17 28 31  3 23 21                0.005341800
 -11677305.215 7  -9127616.182 8  23388789.409       -2473.825
   -441812.204 6  -1418727.557 6  23898089.746        2754.806
 -16147605.413 7 -12595720.859 9  22637476.402         176.219
  -6635788.138 6  -5178093.801 5  24802572.688       -1916.895
   9339988.897 5   8166409.098 5  26210119.629        4606.567
  -9926710.083 7  -6543888.766 9  22920726.392        1957.005
  -1530066.119 7  -1217924.317 9  22154195.330         -18.589
 93  5 10  7 38 30.0050000  0  7  1 17 28 31  3 23 21                0.005349510
 -11751330.367 7  -9185298.106 8  23374702.812       -2461.291
   -359058.154 6  -1354243.903 6  23913836.876        2762.172
 -16142014.084 7 -12591363.995 9  22638540.125         196.396
  -6693080.525 6  -5222737.219 5  24791670.033       -1902.691
   9478262.213 5   8274154.377 5  26236433.003        4611.220
  -9867903.275 7  -6498065.300 9  22931916.744        1963.165
  -1530483.109 7  -1218249.262 9  22154116.075          -9.341
 93  5 10  7 39  0.0050000  0  7  1 17 28 31  3 23 21                0.005357210
 -11824973.533 7  -9242682.380 8  23360688.799       -2448.364
   -276062.309 6  -1289571.821 6  23929630.452        2770.877
 -16135809.799 7 -12586529.493 9  22639720.698         217.229
  -6749942.834 6  -5267045.497 5  24780849.123       -1888.104
   9616678.901 5   8382011.401 5  26262772.831        4616.302
  -9808920.663 8  -6452104.841 9  22943140.605        1968.685
  -1530620.819 7  -1218356.580 9  22154090.092           0.037
 93  5 10  7 39 30.0050000  0  7  1 17 28 31  3 23 21                0.005364910
 -11898237.931 7  -9299771.496 8  23346747.122       -2435.900
   -192807.269 6  -1224697.786 6  23945473.712        2779.487
 -16128982.601 7 -12581209.622 9  22641019.770         238.118
  -6806371.953 6  -5311016.230 5  24770111.406       -1873.645
   9755238.122 5   8489979.458 5  26289139.866        4620.858
  -9749789.066 8  -6406028.276 9  22954392.944        1973.490
  -1530481.646 7  -1218248.136 9  22154116.413           9.417
 93  5 10  7 40  0.0050000  0  7  1 17 28 31  3 23 21                0.005372600
 -11971134.351 7  -9356573.893 8  23332875.298       -2424.171
   -109299.696 6  -1159626.977 6  23961364.805        2787.711
 -16121513.727 7 -12575389.745 9  22642441.083         259.870
  -6862364.868 6  -5354647.069 6  24759456.465       -1859.203
   9893937.559 5   8598056.822 5  26315533.635        4625.344
  -9690515.078 8  -6359840.770 9  22965672.226        1977.923
  -1530066.795 7  -1217924.885 9  22154195.361          18.080
 93  5 10  7 40 30.0050000  0  7  1 17 28 31  3 23 21                0.005380280
 -12043685.263 7  -9413107.051 8  23319069.073       -2412.476
    -25536.515 6  -1094356.954 6  23977303.819        2796.590
 -16113380.096 7 -12569051.843 9  22643988.875         282.282
  -6917919.902 6  -5397936.684 6  24748884.673       -1844.389
  10032773.432 5   8706240.477 5  26341953.720        4630.115
  -9631115.995 8  -6313555.774 9  22976975.671        1981.912
  -1529399.006 7  -1217404.542 9  22154322.222          26.315
 93  5 10  7 41  0.0050000  0  7  1 17 28 31  3 23 21                0.005387980
 -12115891.305 7  -9469371.466 8  23305328.996       -2401.151
     58486.724 6  -1028884.328 6  23993293.355        2805.000
 -16104585.395 7 -12562198.835 9  22645662.374         304.124
  -6973034.177 6  -5440882.857 6  24738396.392       -1829.819
  10171744.181 5   8814529.170 5  26368398.619        4634.457
  -9571609.716 8  -6267187.268 9  22988299.650        1985.146
  -1528503.151 8  -1216706.467 9  22154492.936          33.419
 93  5 10  7 41 30.0050000  0  6  1 17 28 31 23 21                   0.005395560
 -12187756.686 7  -9525370.452 8  23291653.574       -2389.524
    142759.807 6   -963217.003 6  24009330.048        2813.386
 -16095126.398 7 -12554828.197 9  22647462.296         326.614
  -7027707.272 6  -5483485.260 6  24727992.666       -1814.861
  -9511997.454 8  -6220736.164 9  22999643.659        1989.442
  -1527388.759 7  -1215838.113 9  22154704.788          41.101
 93  5 10  7 42  0.0050000  0  6  1 17 28 31 23 21                   0.005403250
 -12259271.483 7  -9581096.253 8  23278044.874       -2377.755
    227280.492 6   -897356.770 6  24025413.551        2821.771
 -16085002.309 7 -12546939.318 9  22649388.844         348.605
  -7081939.181 6  -5525743.892 6  24717672.362       -1800.223
  -9452253.862 8  -6174182.737 9  23011012.368        1993.855
  -1526054.188 7  -1214798.211 9  22154958.682          48.287
 93  5 10  7 42 30.0050000  0  6  1 17 28 31 23 21                   0.005410970
 -12330418.117 7  -9636535.158 8  23264506.006       -2365.228
    312068.791 6   -831287.966 6  24041547.867        2830.737
 -16074220.297 7 -12538537.753 9  22651440.734         369.940
  -7135721.645 6  -5567652.284 6  24707438.127       -1785.341
  -9392362.014 8  -6127513.759 9  23022409.718        1998.988
  -1524486.092 7  -1213576.301 9  22155257.086          56.429
 93  5 10  7 43  0.0050000  0  6  1 17 28 31 23 21                   0.005418690
 -12401184.234 7  -9691677.571 8  23251039.830       -2352.498
    397128.508 6   -765007.670 6  24057734.324        2839.825
 -16062809.358 7 -12529646.123 9  22653611.970         390.667
  -7189056.038 6  -5609211.522 6  24697288.431       -1770.360
  -9332310.057 8  -6080720.055 9  23033837.176        2004.472
  -1522654.201 8  -1212148.869 9  22155605.802          65.636
 93  5 10  7 43 30.0050000  0  6  1 17 28 31 23 21                   0.005426410
 -12471567.182 7  -9746521.404 8  23237646.511       -2339.790
    482461.983 6   -698514.070 6  24073973.202        2848.888
 -16050776.511 7 -12520269.883 9  22655901.925         411.133
  -7241940.598 6  -5650420.262 6  24687225.019       -1755.386
  -9272081.963 8  -6033789.072 9  23045298.162        2010.676
  -1520537.362 8  -1210499.392 9  22156008.703          75.279
 93  5 10  7 44  0.0050000  0  6  1 17 28 31 23 21                   0.005434120
 -12541570.909 7  -9801069.750 8  23224325.214       -2327.267
    568069.056 6   -631807.306 6  24090263.419        2858.088
 -16038141.791 7 -12510424.657 9  22658305.891         431.222
  -7294374.990 6  -5691278.221 6  24677247.298       -1740.343
  -9211669.918 8  -5986714.786 9  23056794.163        2016.479
  -1518139.014 8  -1208630.571 9  22156465.038          84.543
 93  5 10  7 44 30.0050000  0  6  1 17 28 31 23 21                   0.005441820
 -12611201.145 7  -9855327.061 8  23211074.627       -2314.453
    653946.446 6   -564889.867 6  24106605.201        2867.137
 -16024903.047 7 -12500108.766 9  22660824.686         451.533
  -7346354.591 6  -5731781.791 6  24667355.744       -1724.815
  -9151088.974 8  -5939508.865 9  23068322.432        2022.337
  -1515451.613 8  -1206536.491 9  22156976.513          94.757
 93  5 10  7 45  0.0050000  0  6  1 17 28 31 23 21                   0.005449510
 -12680443.999 7  -9909282.507 8  23197898.358       -2301.522
    740089.858 6   -497765.145 6  24122998.096        2875.709
 -16011049.076 7 -12489313.489 9  22663461.701         472.285
  -7397868.199 6  -5771922.252 6  24657552.983       -1709.435
  -9090335.853 8  -5892168.754 9  23079883.310        2027.827
  -1512467.097 7  -1204210.892 9  22157544.413         104.078
 93  5 10  7 45 30.0050000  0  6  1 17 28 31 23 21                   0.005457190
 -12749293.475 7  -9962931.431 8  23184796.698       -2288.452
    826481.980 6   -430446.619 6  24139437.715        2883.744
 -15996563.307 7 -12478025.867 9  22666218.234         493.469
  -7448917.514 6  -5811700.939 6  24647838.296       -1693.995
  -9029418.984 7  -5844701.089 9  23091475.245        2033.268
  -1509212.789 8  -1201675.084 9  22158163.502         112.819
 93  5 10  7 46  0.0050000  0  6  1 17 28 31 23 21                   0.005464870
 -12817748.783 7 -10016273.216 8  23171770.076       -2275.201
    913109.936 6   -362944.334 6  24155922.493        2891.504
 -15981440.421 7 -12466241.825 9  22669095.932         514.894
  -7499503.349 6  -5851118.450 6  24638212.488       -1678.428
  -8968351.258 7  -5797115.851 9  23103095.899        2037.810
  -1505701.383 8  -1198938.931 9  22158831.840         121.473
 93  5 10  7 46 30.0050000  0  6  1 17 28 31 23 21                   0.005472530
 -12885805.010 7 -10069304.004 9  23158819.343       -2261.681
    999972.799 6   -295258.993 6  24172451.757        2899.664
 -15965679.800 7 -12453960.828 9  22672095.186         535.989
  -7549624.118 6  -5890173.581 6  24628674.965       -1662.744
  -8907153.132 8  -5749429.027 9  23114741.577        2042.259
  -1501923.073 8  -1195994.801 9  22159550.650         130.499
 93  5 10  7 47  0.0050000  0  6  1 17 28 31 23 21                   0.005480190
 -12953455.380 7 -10122018.565 9  23145946.144       -2248.159
   1087079.706 6   -227383.512 6  24189028.002        2907.570
 -15949290.761 7 -12441190.156 9  22675214.476         556.910
  -7599277.378 6  -5928864.437 6  24619226.436       -1647.293
  -8845831.345 7  -5701645.833 9  23126410.711        2045.994
  -1497890.606 8  -1192852.624 9  22160318.160         138.591
 93  5 10  7 47 30.0050000  0  6  1 17 28 31 23 21                   0.005487860
 -13020696.082 7 -10174413.904 9  23133150.624       -2234.792
   1174428.468 6   -159319.558 6  24205650.568        2915.739
 -15932266.856 7 -12427924.784 9  22678453.902         577.990
  -7648460.726 6  -5967189.088 6  24609867.053       -1631.600
  -8784395.659 7  -5653773.892 9  23138101.516        2049.801
  -1493604.262 7  -1189512.623 9  22161133.915         147.178
 93  5 10  7 48  0.0050000  0  6  1 17 28 31 23 21                   0.005495530
 -13087538.105 7 -10226498.570 9  23120431.049       -2221.428
   1262031.407 6    -91057.556 6  24222320.521        2924.583
 -15914613.789 7 -12414169.146 9  22681813.447         598.759
  -7697170.383 6  -6005144.655 6  24600597.963       -1615.685
  -8722851.606 7  -5605817.491 9  23149813.069        2053.201
  -1489058.745 8  -1185970.671 9  22161998.857         156.008
 93  5 10  7 48 30.0050000  0  6  1 17 28 31 23 21                   0.005503210
 -13153978.302 7 -10278270.140 9  23107787.921       -2207.953
   1349902.851 6    -22586.319 6  24239041.673        2933.449
 -15896343.756 7 -12399932.795 9  22685290.379         619.253
  -7745403.182 6  -6042728.663 6  24591419.198       -1599.825
  -8661197.760 7  -5557775.551 9  23161545.676        2057.239
  -1484242.052 8  -1182217.404 9  22162915.721         165.038
 93  5 10  7 49  0.0050000  0  6  1 17 28 31 23 21                   0.005510900
 -13220011.652 7 -10329724.691 9  23095221.911       -2194.171
   1438025.745 6     46080.845 6  24255810.943        2941.542
 -15877454.321 7 -12385213.740 9  22688884.644         640.235
  -7793158.670 6  -6079940.716 6  24582331.889       -1583.718
  -8599416.569 7  -5509634.372 9  23173301.897        2061.556
  -1479159.775 7  -1178257.194 9  22163882.733         174.016
 93  5 10  7 49 30.0050000  0  6  1 17 28 31 23 21                   0.005518570
 -13285636.600 7 -10380860.986 9  23082733.796       -2181.083
   1526397.000 6    114941.532 6  24272627.717        2949.931
 -15857936.690 7 -12370005.205 9  22692598.640         660.733
  -7840433.996 6  -6116778.617 6  24573335.793       -1568.062
  -8537495.413 7  -5461384.140 9  23185085.159        2066.407
  -1473808.414 8  -1174087.315 9  22164901.148         182.577
 93  5 10  7 50  0.0050000  0  6  1 17 28 31 23 21                   0.005526250
 -13350863.171 7 -10431686.859 9  23070321.448       -2167.439
   1615034.976 6    184010.056 6  24289495.262        2958.940
 -15837802.888 7 -12354316.555 9  22696430.058         681.284
  -7887226.141 6  -6153240.025 6  24564431.697       -1551.698
  -8475420.451 7  -5413014.060 9  23196897.623        2071.829
  -1468188.001 7  -1169707.790 9  22165970.609         192.086
 93  5 10  7 50 30.0050000  0  6  1 17 28 31 23 21                   0.005533910
 -13415684.653 7 -10482197.073 9  23057986.328       -2153.875
   1703923.763 6    253274.011 6  24306409.574        2966.879
 -15817055.107 7 -12338149.462 9  22700378.095         702.077
  -7933533.468 6  -6189323.642 6  24555619.369       -1535.523
  -8413181.380 7  -5364516.090 9  23208741.453        2077.305
  -1462287.239 8  -1165109.808 9  22167093.391         201.072
 93  5 10  7 51  0.0050000  0  6  1 17 28 31 23 21                   0.005541560
 -13480098.525 7 -10532389.687 9  23045728.574       -2140.505
   1793053.247 6    322725.555 6  24323370.041        2975.332
 -15795669.858 7 -12321485.640 9  22704447.578         723.749
  -7979358.686 6  -6225031.600 6  24546899.386       -1519.460
  -8350787.070 7  -5315897.162 9  23220614.923        2082.220
  -1456123.495 8  -1160306.893 9  22168266.459         209.869
 93  5 10  7 51 30.0050000  0  6  1 17 28 31 23 21                   0.005549210
 -13544121.284 7 -10582277.534 9  23033545.548       -2127.598
   1882445.204 6    392381.568 6  24340380.743        2984.190
 -15773635.919 7 -12304316.356 9  22708640.526         745.320
  -8024699.335 6  -6260361.962 6  24538271.200       -1503.289
  -8288248.119 7  -5267165.520 9  23232515.555        2087.068
  -1449695.644 8  -1155298.191 9  22169489.632         218.774
 93  5 10  7 52  0.0050000  0  6  1 17 28 31 23 21                   0.005556850
 -13607743.784 7 -10631853.476 9  23021438.500       -2113.792
   1972098.272 6    462241.091 6  24357441.344        2992.574
 -15750947.657 7 -12286637.186 9  22712957.595         767.235
  -8069550.320 6  -6295310.773 6  24529736.147       -1486.879
  -8225559.281 7  -5218317.090 8  23244444.886        2092.124
  -1442993.143 8  -1150075.459 9  22170764.929         227.923
 93  5 10  7 52 30.0050000  0  6  1 17 28 31 23 21                   0.005564480
 -13670946.609 7 -10681102.413 9  23009411.366       -2099.657
   2062001.265 6    532295.346 6  24374549.297        3001.138
 -15727594.216 7 -12268439.713 9  22717401.660         789.754
  -8113910.019 6  -6329876.782 6  24521294.689       -1470.369
  -8162718.805 7  -5169350.503 8  23256402.948        2097.077
  -1436024.004 8  -1144644.981 9  22172091.211         236.562
 93  5 10  7 53  0.0050000  0  6  1 17 28 31 23 21                   0.005572120
 -13733732.931 7 -10730026.786 9  22997463.539       -2086.043
   2152168.969 6    602555.875 6  24391708.249        3010.061
 -15703578.223 7 -12249725.968 9  22721971.927         811.231
  -8157775.493 6  -6364057.647 6  24512947.200       -1453.890
  -8099738.476 7  -5120274.935 8  23268387.761        2101.693
  -1428804.442 8  -1139019.353 9  22173465.100         244.882
 93  5 10  7 53 30.0050000  0  6  1 17 28 31 23 21                   0.005579780
 -13796105.299 7 -10778628.611 9  22985594.445       -2072.042
   2242593.313 6    673016.350 6  24408915.749        3017.958
 -15678933.668 7 -12230522.435 9  22726661.520         831.532
  -8201145.692 6  -6397852.605 6  24504694.145       -1437.626
  -8036619.156 7  -5071091.066 8  23280399.114        2106.056
  -1421340.423 8  -1133203.240 9  22174885.407         252.539
 93  5 10  7 54  0.0050000  0  6  1 17 28 31 23 21                   0.005587440
 -13858039.674 7 -10826889.141 9  22973808.583       -2057.075
   2333252.742 6    743660.032 6  24426166.870        3025.977
 -15653673.449 7 -12210839.143 9  22731468.563         852.201
  -8244019.367 6  -6431260.649 6  24496535.620       -1420.709
  -7973364.014 7  -5021801.363 8  23292436.340        2110.669
  -1413644.153 8  -1127206.150 9  22176350.063         260.465
